[[{"header":{"parameterUnit":"m.s-1","parameterCategory":1,"la1":30.6,"la2":28.766,"lo1":-90.7593,"lo2":-88.6598,"dy":0.0162,"dx":0.0183,"nx":116,"ny":114,"refTime":"2024-04-08T06:00:00:Z","depth":0,"parameterNumber":2,"parameterNumberName":"U-component_of_WINDS"},"data":[0.0,0.0,0.0,0.0,0.0,0.0,0.0,0.0,0.0,0.0,0.0,0.0,0.0,0.0,0.0,0.0,0.0,0.0,0.0,0.0,0.0,0.0,0.0,0.0,0.0,0.0,0.0,0.0,0.0,0.0,0.0,0.0,0.0,0.0,0.0,0.0,0.0,0.0,0.0,0.0,0.0,0.0,0.0,0.0,0.0,0.0,0.0,0.0,0.0,0.0,0.0,0.0,0.0,0.0,0.0,0.0,0.0,0.0,0.0,0.0,0.0,0.0,0.0,0.0,0.0,0.0,0.0,0.0,0.0,0.0,0.0,0.0,0.0,0.0,0.0,0.0,0.0,0.0,0.0,0.0,0.0,0.0,0.0,0.0,0.0,0.0,0.0,0.0,0.0,0.0,0.0,0.0,0.0,0.0,0.0,0.0,0.0,0.0,0.0,0.0,0.0,0.0,0.0,0.0,0.0,0.0,0.0,0.0,0.0,0.0,0.0,0.0,0.0,0.0,0.0,0.0,0.0,0.0,0.0,0.0,0.0,0.0,0.0,0.0,0.0,0.0,0.0,0.0,0.0,0.0,0.0,0.0,0.0,0.0,0.0,0.0,0.0,0.0,0.0,0.0,0.0,0.0,0.0,0.0,0.0,0.0,0.0,0.0,0.0,0.0,0.0,0.0,0.0,0.0,0.0,0.0,0.0,0.0,0.0,0.0,0.0,0.0,0.0,0.0,0.0,0.0,0.0,0.0,0.0,0.0,0.0,0.0,0.0,0.0,0.0,0.0,0.0,0.0,0.0,0.0,0.0,0.0,0.0,0.0,0.0,0.0,0.0,0.0,0.0,0.0,0.0,0.0,0.0,0.0,0.0,0.0,0.0,0.0,0.0,0.0,0.0,0.0,0.0,0.0,0.0,0.0,0.0,0.0,0.0,0.0,0.0,0.0,0.0,0.0,0.0,0.0,0.0,0.0,0.0,0.0,0.0,0.0,0.0,0.0,0.0,0.0,0.0,0.0,0.0,0.0,0.0,0.0,0.0,0.0,0.0,0.0,0.0,0.0,0.0,0.0,0.0,0.0,0.0,0.0,0.0,0.0,0.0,0.0,0.0,0.0,0.0,0.0,0.0,0.0,0.0,0.0,0.0,0.0,0.0,0.0,0.0,0.0,0.0,0.0,0.0,0.0,0.0,0.0,0.0,0.0,0.0,0.0,0.0,0.0,0.0,0.0,0.0,0.0,0.0,0.0,0.0,0.0,0.0,0.0,0.0,0.0,0.0,0.0,0.0,0.0,0.0,0.0,0.0,0.0,0.0,0.0,0.0,0.0,0.0,0.0,0.0,0.0,0.0,0.0,0.0,0.0,0.0,0.0,0.0,0.0,0.0,0.0,0.0,0.0,0.0,0.0,0.0,0.0,0.0,0.0,0.0,0.0,0.0,0.0,0.0,0.0,0.0,0.0,0.0,0.0,0.0,0.0,0.0,0.0,0.0,0.0,0.0,0.0,0.0,0.0,0.0,0.0,0.0,0.0,0.0,0.0,0.0,0.0,0.0,0.0,0.0,0.0,0.0,0.0,0.0,0.0,0.0,0.0,0.0,0.0,0.0,0.0,0.0,0.0,0.0,0.0,0.0,0.0,0.0,0.0,0.0,0.0,0.0,0.0,0.0,0.0,0.0,0.0,0.0,0.0,0.0,0.0,0.0,0.0,0.0,0.0,0.0,0.0,0.0,0.0,0.0,0.0,0.0,0.0,0.0,0.0,0.0,0.0,0.0,0.0,0.0,0.0,0.0,0.0,0.0,0.0,0.0,0.0,0.0,0.0,0.0,0.0,0.0,0.0,0.0,0.0,0.0,0.0,0.0,0.0,0.0,0.0,0.0,0.0,0.0,0.0,0.0,0.0,0.0,0.0,0.0,0.0,0.0,0.0,0.0,0.0,0.0,0.0,0.0,0.0,0.0,0.0,0.0,0.0,0.0,0.0,0.0,0.0,0.0,0.0,0.0,0.0,0.0,0.0,0.0,0.0,0.0,0.0,0.0,0.0,0.0,0.0,0.0,0.0,0.0,0.0,0.0,0.0,0.0,0.0,0.0,0.0,0.0,0.0,0.0,0.0,0.0,0.0,0.0,0.0,0.0,0.0,0.0,0.0,0.0,0.0,0.0,0.0,0.0,0.0,0.0,0.0,0.0,0.0,0.0,0.0,0.0,0.0,0.0,0.0,0.0,0.0,0.0,0.0,0.0,0.0,0.0,0.0,0.0,0.0,0.0,0.0,0.0,0.0,0.0,0.0,0.0,0.0,0.0,0.0,0.0,0.0,0.0,0.0,0.0,0.0,0.0,0.0,0.0,0.0,0.0,0.0,0.0,0.0,0.0,0.0,0.0,0.0,0.0,0.0,0.0,0.0,0.0,0.0,0.0,0.0,0.0,0.0,0.0,0.0,0.0,0.0,0.0,0.0,0.0,0.0,0.0,0.0,0.0,0.0,0.0,0.0,0.0,0.0,0.0,0.0,0.0,0.0,0.0,0.0,0.0,0.0,0.0,0.0,0.0,0.0,0.0,0.0,0.0,0.0,0.0,0.0,0.0,0.0,0.0,0.0,0.0,0.0,0.0,0.0,0.0,0.0,0.0,0.0,0.0,0.0,0.0,0.0,0.0,0.0,0.0,0.0,0.0,0.0,0.0,0.0,0.0,0.0,0.0,0.0,0.0,0.0,0.0,0.0,0.0,0.0,0.0,0.0,0.0,0.0,0.0,0.0,0.0,0.0,0.0,0.0,0.0,0.0,0.0,0.0,0.0,0.0,0.0,0.0,0.0,0.0,0.0,0.0,0.0,0.0,0.0,0.0,0.0,0.0,0.0,0.0,0.0,0.0,0.0,0.0,0.0,0.0,0.0,0.0,0.0,0.0,0.0,0.0,0.0,0.0,0.0,0.0,0.0,0.0,0.0,0.0,0.0,0.0,0.0,0.0,0.0,0.0,0.0,0.0,0.0,0.0,0.0,0.0,0.0,0.0,0.0,0.0,0.0,0.0,0.0,0.0,0.0,0.0,0.0,0.0,0.0,0.0,0.0,0.0,0.0,0.0,0.0,0.0,0.0,0.0,0.0,0.0,0.0,0.0,0.0,0.0,0.0,0.0,0.0,0.0,0.0,0.0,0.0,0.0,0.0,0.0,0.0,0.0,0.0,0.0,0.0,0.0,0.0,0.0,0.0,0.0,0.0,0.0,0.0,0.0,0.0,0.0,0.0,0.0,0.0,0.0,0.0,0.0,0.0,0.0,0.0,0.0,0.0,0.0,0.0,0.0,0.0,0.0,0.0,0.0,0.0,0.0,0.0,0.0,0.0,0.0,0.0,0.0,0.0,0.0,0.0,0.0,0.0,0.0,0.0,0.0,0.0,0.0,0.0,0.0,0.0,0.0,0.0,0.0,0.0,0.0,0.0,0.0,0.0,0.0,0.0,0.0,0.0,0.0,0.0,0.0,0.0,0.0,0.0,0.0,0.0,0.0,0.0,0.0,0.0,0.0,0.0,0.0,0.0,0.0,0.0,0.0,0.0,0.0,0.0,0.0,0.0,0.0,0.0,0.0,0.0,0.0,0.0,0.0,0.0,0.0,0.0,0.0,0.0,0.0,0.0,0.0,0.0,0.0,0.0,0.0,0.0,0.0,0.0,0.0,0.0,0.0,0.0,0.0,0.0,0.0,0.0,0.0,0.0,0.0,0.0,0.0,0.0,0.0,0.0,0.0,0.0,0.0,0.0,0.0,0.0,0.0,0.0,0.0,0.0,0.0,0.0,0.0,0.0,0.0,0.0,0.0,0.0,0.0,0.0,0.0,0.0,0.0,0.0,0.0,0.0,0.0,0.0,0.0,0.0,0.0,0.0,0.0,0.0,0.0,0.0,0.0,0.0,0.0,0.0,0.0,0.0,0.0,0.0,0.0,0.0,0.0,0.0,0.0,0.0,0.0,0.0,0.0,0.0,0.0,0.0,0.0,0.0,0.0,0.0,0.0,0.0,0.0,0.0,0.0,0.0,0.0,0.0,0.0,0.0,0.0,0.0,0.0,0.0,0.0,0.0,0.0,0.0,0.0,0.0,0.0,0.0,0.0,0.0,0.0,0.0,0.0,0.0,0.0,0.0,0.0,0.0,0.0,0.0,0.0,0.0,0.0,0.0,0.0,0.0,0.0,0.0,0.0,0.0,0.0,0.0,0.0,0.0,0.0,0.0,0.0,0.0,0.0,0.0,0.0,0.0,0.0,0.0,0.0,0.0,0.0,0.0,0.0,0.0,0.0,0.0,0.0,0.0,0.0,0.0,0.0,0.0,0.0,0.0,0.0,0.0,0.0,0.0,0.0,0.0,0.0,0.0,0.0,0.0,0.0,0.0,0.0,0.0,0.0,0.0,0.0,0.0,0.0,0.0,0.0,0.0,0.0,0.0,0.0,0.0,0.0,0.0,0.0,0.0,0.0,0.0,0.0,0.0,0.0,0.0,0.0,0.0,0.0,0.0,0.0,0.0,0.0,0.0,0.0,0.0,0.0,0.0,0.0,0.0,0.0,0.0,0.0,0.0,0.0,0.0,0.0,0.0,0.0,0.0,0.0,0.0,0.0,0.0,0.0,0.0,0.0,0.0,0.0,0.0,0.0,0.0,0.0,0.0,0.0,0.0,0.0,0.0,0.0,0.0,0.0,0.0,0.0,0.0,0.0,0.0,0.0,0.0,0.0,0.0,0.0,0.0,0.0,0.0,0.0,0.0,0.0,0.0,0.0,0.0,0.0,0.0,0.0,0.0,0.0,0.0,0.0,0.0,0.0,0.0,0.0,0.0,0.0,0.0,0.0,0.0,0.0,0.0,0.0,0.0,0.0,0.0,0.0,0.0,0.0,0.0,0.0,0.0,0.0,0.0,0.0,0.0,0.0,0.0,0.0,0.0,0.0,0.0,0.0,0.0,0.0,0.0,0.0,0.0,0.0,0.0,0.0,0.0,0.0,0.0,0.0,0.0,0.0,0.0,0.0,0.0,0.0,0.0,0.0,0.0,0.0,0.0,0.0,0.0,0.0,0.0,0.0,0.0,0.0,0.0,0.0,0.0,0.0,0.0,0.0,0.0,0.0,0.0,0.0,0.0,0.0,0.0,0.0,0.0,0.0,0.0,0.0,0.0,0.0,0.0,0.0,0.0,0.0,0.0,0.0,0.0,0.0,0.0,0.0,0.0,0.0,0.0,0.0,0.0,0.0,0.0,0.0,0.0,0.0,0.0,0.0,0.0,0.0,0.0,0.0,0.0,0.0,0.0,0.0,0.0,0.0,0.0,0.0,0.0,0.0,0.0,0.0,0.0,0.0,0.0,0.0,0.0,0.0,0.0,0.0,0.0,0.0,0.0,0.0,0.0,0.0,0.0,0.0,0.0,0.0,0.0,0.0,0.0,0.0,0.0,0.0,0.0,0.0,0.0,0.0,0.0,0.0,0.0,0.0,0.0,0.0,0.0,0.0,0.0,0.0,0.0,0.0,0.0,0.0,0.0,0.0,0.0,0.0,0.0,0.0,0.0,0.0,0.0,0.0,0.0,0.0,0.0,0.0,0.0,0.0,0.0,0.0,0.0,0.0,0.0,0.0,0.0,0.0,0.0,0.0,0.0,0.0,0.0,0.0,0.0,0.0,0.0,0.0,0.0,0.0,0.0,0.0,0.0,0.0,0.0,0.0,0.0,0.0,0.0,0.0,0.0,0.0,0.0,0.0,0.0,0.0,0.0,0.0,0.0,0.0,0.0,0.0,0.0,0.0,0.0,0.0,0.0,0.0,0.0,0.0,0.0,0.0,0.0,0.0,0.0,0.0,0.0,0.0,0.0,0.0,0.0,0.0,0.0,0.0,0.0,0.0,0.0,0.0,0.0,0.0,0.0,0.0,0.0,0.0,0.0,0.0,0.0,0.0,0.0,0.0,0.0,0.0,0.0,0.0,0.0,0.0,0.0,0.0,0.0,0.0,0.0,0.0,0.0,0.0,0.0,0.0,0.0,0.0,0.0,0.0,0.0,0.0,0.0,0.0,0.0,0.0,0.0,0.0,0.0,0.0,0.0,0.0,0.0,0.0,0.0,0.0,-4.7545,-4.7362,0.0,0.0,0.0,0.0,0.0,0.0,0.0,0.0,0.0,0.0,0.0,0.0,0.0,0.0,0.0,0.0,0.0,0.0,0.0,0.0,0.0,0.0,0.0,-5.3803,-5.3922,-5.3234,-5.3174,-5.3473,-5.4162,-5.4521,0.0,0.0,0.0,0.0,-5.8112,-5.9069,-5.9727,-6.0086,-5.9757,-5.9608,-5.9578,-6.0236,-6.0027,-5.9129,0.0,0.0,0.0,0.0,0.0,0.0,0.0,0.0,0.0,0.0,0.0,0.0,0.0,0.0,0.0,0.0,0.0,0.0,0.0,0.0,0.0,0.0,0.0,0.0,0.0,0.0,0.0,0.0,0.0,0.0,0.0,0.0,0.0,0.0,0.0,0.0,0.0,0.0,0.0,0.0,0.0,0.0,0.0,0.0,0.0,0.0,0.0,0.0,0.0,0.0,0.0,0.0,0.0,0.0,0.0,0.0,0.0,0.0,0.0,0.0,0.0,0.0,0.0,0.0,0.0,0.0,0.0,0.0,0.0,0.0,-4.9717,-4.8269,0.0,0.0,0.0,0.0,0.0,0.0,0.0,0.0,0.0,0.0,0.0,0.0,0.0,0.0,0.0,0.0,0.0,0.0,0.0,0.0,0.0,-5.3234,-5.3354,-5.3982,-5.4192,-5.3743,-5.3593,-5.3832,-5.4491,-5.467,-5.5209,-5.6286,-5.7154,-5.7842,-5.8291,-5.9578,-6.0146,-5.9907,-5.9608,-5.9907,-6.0805,-6.2151,-6.1972,-6.0475,-6.0565,0.0,0.0,0.0,0.0,0.0,0.0,0.0,0.0,0.0,0.0,0.0,0.0,0.0,0.0,0.0,0.0,0.0,0.0,0.0,0.0,0.0,0.0,0.0,0.0,0.0,0.0,0.0,0.0,0.0,0.0,0.0,0.0,0.0,0.0,0.0,0.0,0.0,0.0,0.0,0.0,0.0,0.0,0.0,0.0,0.0,0.0,0.0,0.0,0.0,0.0,0.0,0.0,0.0,0.0,0.0,0.0,0.0,0.0,0.0,0.0,0.0,0.0,0.0,-5.6623,-5.662,-5.5754,-5.5597,-5.5212,-5.4629,-5.2846,-5.0184,-4.7269,-4.8327,0.0,0.0,0.0,0.0,0.0,0.0,0.0,0.0,0.0,0.0,0.0,0.0,0.0,0.0,0.0,0.0,0.0,0.0,0.0,-5.3414,-5.4012,-5.467,-5.5269,-5.5748,-5.5239,-5.5209,-5.5867,-5.6406,-5.6795,-5.6974,-5.871,-5.9458,-5.8979,-6.0296,-6.0416,-5.9249,-6.0326,-6.1762,-6.3528,-6.4874,-6.5652,-6.5862,-6.3677,-6.3617,-6.5084,0.0,0.0,0.0,0.0,0.0,0.0,0.0,0.0,0.0,0.0,0.0,0.0,0.0,0.0,0.0,0.0,0.0,0.0,0.0,0.0,0.0,0.0,0.0,0.0,0.0,0.0,0.0,0.0,0.0,0.0,0.0,0.0,0.0,0.0,0.0,0.0,0.0,0.0,0.0,0.0,0.0,-5.2995,-5.3503,0.0,0.0,0.0,0.0,0.0,0.0,0.0,0.0,0.0,0.0,0.0,0.0,0.0,-5.7483,-5.9907,-6.2361,-6.2677,-6.0805,-6.315,-6.1807,-5.7411,-5.9012,-5.836,-5.601,-5.6964,0.0,-4.9508,-4.987,0.0,0.0,0.0,0.0,0.0,0.0,0.0,0.0,0.0,0.0,0.0,0.0,0.0,0.0,0.0,0.0,0.0,0.0,0.0,0.0,0.0,-5.5209,-5.6226,-5.6166,-5.7962,-5.8381,-5.6795,-5.8351,-5.9009,-5.8261,-5.871,-5.8902,-5.8803,-5.9008,-5.927,-5.9446,-6.2048,-6.3947,-6.5144,-6.649,-6.7478,-6.8076,-6.6909,-6.6251,-6.5922,-6.4395,0.0,0.0,0.0,0.0,0.0,0.0,0.0,0.0,0.0,0.0,0.0,0.0,0.0,0.0,0.0,0.0,0.0,0.0,0.0,0.0,0.0,0.0,0.0,0.0,0.0,0.0,0.0,0.0,0.0,0.0,0.0,0.0,0.0,0.0,0.0,0.0,0.0,0.0,0.0,-5.4551,-5.6077,-5.491,-5.6107,-5.5957,0.0,0.0,0.0,0.0,0.0,0.0,0.0,0.0,0.0,-5.9578,-6.0505,-6.1732,-6.3288,-6.5203,-6.5692,-6.4814,-6.6285,-6.5037,-6.1311,-6.2175,-6.1327,-5.9082,-5.9718,-5.7827,-5.427,-5.2466,-5.0162,-4.7709,0.0,0.0,0.0,0.0,-4.6694,-4.5947,0.0,0.0,0.0,0.0,0.0,0.0,0.0,0.0,0.0,0.0,0.0,0.0,-5.3307,-5.5315,-5.6928,-5.7663,-6.0086,-6.0685,-5.8501,-5.9787,-6.0146,-5.9159,-5.9129,-5.8892,-5.829,-5.7737,-5.851,-6.0687,-6.3583,-6.5914,-6.7537,-6.8854,-6.9842,-7.05,-7.05,-6.9393,-6.7418,-6.5922,-6.4635,-6.3468,0.0,0.0,0.0,0.0,0.0,0.0,0.0,0.0,0.0,0.0,0.0,0.0,0.0,0.0,0.0,0.0,0.0,0.0,0.0,0.0,0.0,0.0,0.0,0.0,0.0,0.0,0.0,0.0,0.0,0.0,0.0,0.0,0.0,0.0,0.0,0.0,0.0,-5.7214,-5.889,-5.6944,-5.9308,-5.9608,0.0,0.0,0.0,0.0,0.0,0.0,-6.0745,-6.1493,-6.278,-6.4755,-6.5592,-6.652,-6.7537,-6.8525,-6.9139,-6.9341,-6.97,-6.8542,-6.6195,-6.6195,-6.4781,-6.2338,-6.2338,-6.0934,-5.8252,-5.4913,-5.1825,-4.919,-4.8987,-4.8025,-4.6899,-4.8403,-4.8179,-4.7355,0.0,0.0,0.0,0.0,0.0,0.0,0.0,0.0,0.0,0.0,0.0,-5.0601,-5.3555,-5.4728,-5.7046,-6.141,-6.0805,-6.0655,-6.1762,-6.0206,-5.9189,-5.9099,-6.0894,-6.0548,-5.7715,-5.7042,-5.8927,-6.3284,-6.4518,-6.7305,-7.1607,-7.2984,-7.3941,-7.4569,-7.4569,-7.3462,-7.1338,-6.7567,-6.664,-6.7388,-6.4246,0.0,0.0,0.0,0.0,0.0,0.0,0.0,0.0,0.0,0.0,0.0,0.0,0.0,0.0,0.0,0.0,0.0,0.0,0.0,0.0,0.0,0.0,0.0,0.0,0.0,0.0,0.0,0.0,0.0,0.0,0.0,0.0,0.0,0.0,0.0,0.0,0.0,0.0,-6.0835,-6.257,0.0,0.0,0.0,0.0,-6.0685,-6.1942,-6.3558,-6.5562,-6.6281,-6.7537,-6.9512,-7.0829,-7.2415,-7.436,-7.445,-7.4839,-7.5448,-7.4821,-7.3496,-7.1525,-7.1525,-6.9347,-6.5608,-6.5608,-6.3492,-5.9935,-5.662,-5.4235,-5.2503,-5.0911,-5.0258,-5.0167,-5.0258,-4.9931,-4.9364,0.0,0.0,0.0,0.0,0.0,-4.7481,-4.906,-4.9823,-5.0058,-4.9672,-5.2046,-5.4119,-5.5057,-5.8566,-6.1694,-6.3768,-6.5114,-6.5473,-6.4665,-6.3139,-6.2241,-6.2241,-6.029,-5.8251,-5.616,-5.6708,-5.9164,-6.3599,-6.6279,-6.969,-7.3821,-7.4749,-7.5527,-7.6155,-7.6574,-7.5916,-7.424,-7.0679,-6.8465,-6.7178,-6.5144,-6.3797,0.0,0.0,0.0,0.0,0.0,0.0,0.0,0.0,0.0,0.0,0.0,0.0,0.0,0.0,0.0,0.0,0.0,0.0,0.0,0.0,0.0,0.0,0.0,0.0,0.0,0.0,0.0,0.0,0.0,0.0,0.0,0.0,0.0,0.0,0.0,0.0,0.0,-6.5383,-6.8016,0.0,-6.5144,-6.4814,-6.4844,-6.4904,-6.6131,-6.7926,-7.032,-7.1068,-7.2325,-7.43,-7.4809,-7.5407,-7.6125,-7.5736,-7.5647,-7.5886,-7.5198,-7.3812,-7.1927,-7.1927,-6.9681,-6.5765,-6.5765,-6.3959,-6.0738,-5.8805,-5.6846,-5.4863,-5.3181,-5.2327,-5.2076,-5.2402,-5.2201,-5.1774,0.0,0.0,0.0,0.0,-4.6638,-4.7199,-4.8731,-4.9494,-4.9821,-4.9672,-5.269,-5.5407,-5.6787,-6.0999,-6.4516,-6.6489,-6.7687,-6.7747,-6.643,-6.4276,-6.3109,-6.3348,-5.9739,-5.745,-5.69,-5.7899,-6.075,-6.5581,-6.8548,-7.1772,-7.5258,-7.6125,-7.6754,-7.7173,-7.7622,-7.7352,-7.6395,-7.3941,-7.1248,-6.8495,-6.6729,-6.6011,-6.5652,0.0,0.0,0.0,0.0,0.0,0.0,0.0,0.0,0.0,0.0,0.0,0.0,0.0,0.0,0.0,0.0,0.0,0.0,0.0,0.0,0.0,0.0,0.0,0.0,0.0,0.0,0.0,0.0,0.0,0.0,0.0,0.0,0.0,0.0,-6.3617,-6.7358,-6.9093,-7.2415,-7.3343,-7.026,-7.038,-7.047,-7.0021,-7.1218,-7.2834,-7.4809,-7.5318,-7.6125,-7.7442,-7.7502,-7.7502,-7.7502,-7.6634,-7.6215,-7.6215,-7.5318,-7.4189,-7.2911,-7.2911,-7.0918,-6.7501,-6.6842,-6.4765,-6.1784,-6.017,-5.8529,-5.6897,-5.5214,-5.4336,-5.4084,-5.4411,-5.421,-5.3758,0.0,0.0,0.0,-4.5434,-4.5434,-4.6101,-4.803,-4.891,-4.9275,-4.9066,-5.1099,-5.4178,-5.8437,-6.1573,-6.5169,-6.9688,-6.8166,-6.6999,-6.7059,-6.3318,-6.1317,-6.2005,-5.9375,-5.8649,-6.0144,-6.0773,-6.3821,-6.9464,-7.1204,-7.3362,-7.5976,-7.7233,-7.7861,-7.7861,-7.7921,-7.7921,-7.7861,-7.7233,-7.5108,-7.1906,-6.9213,-6.8854,-6.9602,0.0,0.0,0.0,0.0,0.0,0.0,0.0,0.0,0.0,0.0,0.0,0.0,0.0,0.0,0.0,0.0,0.0,0.0,0.0,0.0,0.0,0.0,0.0,0.0,0.0,0.0,0.0,0.0,0.0,0.0,0.0,0.0,0.0,-6.0057,-6.5951,-7.059,-7.1996,-7.5587,-7.6963,-7.442,-7.5318,-7.6096,-7.6066,-7.7203,-7.816,-7.8789,-7.8819,-7.8819,-7.8789,-7.8789,-7.8789,-7.8759,-7.7472,-7.6814,-7.6784,-7.5497,-7.4869,-7.4869,-7.4869,-7.3458,-7.0763,-6.8832,-6.6223,-6.308,-6.0507,-5.9156,-5.8605,-5.6897,-5.6244,-5.6244,-5.6219,-5.5842,-5.5189,0.0,0.0,-4.677,-4.677,-4.677,-4.7317,-4.8761,-4.9553,-4.988,-4.9729,-5.4521,-5.8372,-5.9538,-6.4705,-6.9015,-7.1188,-6.8675,-6.7418,-6.8375,-6.3378,-6.033,-6.0209,-6.0474,-6.1274,-6.26,-6.3664,-6.634,-7.0556,-7.1899,-7.3933,-7.6604,-7.7921,-7.8789,-7.9297,-8.0255,-8.0434,-7.9986,-8.0285,-7.9357,-7.7293,-7.3193,-7.0649,-6.9004,0.0,0.0,0.0,0.0,0.0,0.0,0.0,0.0,0.0,0.0,0.0,0.0,0.0,0.0,0.0,0.0,0.0,0.0,0.0,0.0,0.0,0.0,0.0,0.0,0.0,0.0,0.0,0.0,0.0,0.0,0.0,-6.1283,-6.3528,-6.5533,-6.9453,-7.3492,-7.7203,-7.9866,-8.1123,-8.0405,-8.0225,-7.9956,-7.9477,-7.9776,-7.9836,-7.9567,-7.9537,-7.9297,-7.8819,-7.8789,-7.8549,-7.8071,-7.7263,-7.6604,-7.6155,-7.5288,-7.4869,-7.4869,-7.439,-7.2946,-7.0735,-6.8356,-6.6551,-6.498,-6.0682,-5.9387,-6.0007,-5.8171,-5.7173,-5.6771,-5.6369,-5.534,-5.411,0.0,-4.7309,-4.7309,-4.7309,-4.7549,-4.8057,-4.9149,-4.9823,-5.0364,-5.0886,-5.6295,-6.0406,-6.1145,-6.627,-6.9871,-7.062,-6.7926,-6.6281,-6.649,-6.3258,-6.0694,-5.9214,-6.1784,-6.3844,-6.525,-6.6747,-6.9149,-7.2665,-7.3855,-7.5306,-7.6874,-7.8759,-7.9986,-8.0674,-8.1721,-8.214,-8.202,-8.214,-8.1751,-8.0794,-7.7831,-7.5198,-7.2804,-6.9961,-6.8944,-6.8794,-6.7298,-6.7627,-6.8435,-6.6041,0.0,0.0,0.0,0.0,0.0,0.0,0.0,0.0,0.0,0.0,0.0,0.0,0.0,0.0,0.0,0.0,0.0,0.0,0.0,0.0,0.0,0.0,0.0,0.0,-6.5323,-6.8675,-7.2026,-7.3941,-7.6485,-8.0554,-8.2798,-8.3995,-8.3995,-8.3636,-8.3038,-8.211,-8.202,-8.1512,-8.0285,-8.0225,-7.9776,-7.8819,-7.8519,-7.834,-7.822,-7.7023,-7.6395,-7.6275,-7.5318,-7.4869,-7.4869,-7.418,-7.3091,-7.1579,-6.9038,-6.7537,-6.6608,-6.2424,-6.1152,-6.1541,0.0,0.0,0.0,0.0,-5.4536,-5.3658,0.0,-4.7309,-4.7309,-4.7309,-4.7848,-4.8506,-4.9209,-4.9823,-5.0644,-5.1917,-5.6705,-6.0595,-6.2241,-6.6071,-6.8555,-6.8555,-6.6131,-6.4096,-6.2929,-6.2929,-6.1964,-5.9712,-6.368,-6.6643,-6.8148,-6.9931,-7.2196,-7.4988,-7.6365,-7.7053,-7.7113,-7.9686,-8.1272,-8.1931,-8.2589,-8.3217,-8.3816,-8.3217,-8.3038,-8.3038,-8.2469,-8.0883,-7.8519,-7.4869,-7.442,-7.5467,-7.3013,-7.1547,-7.05,-6.8465,0.0,0.0,0.0,0.0,0.0,0.0,0.0,0.0,0.0,0.0,0.0,0.0,0.0,0.0,0.0,0.0,0.0,0.0,0.0,0.0,0.0,0.0,0.0,0.0,-6.9363,-7.3253,-7.84,-7.8759,-7.9627,-8.2739,-8.4773,-8.5881,-8.5821,-8.5731,-8.5192,-8.3936,-8.3636,-8.2709,-8.0883,-8.0734,0.0,0.0,0.0,-7.813,-7.8579,-7.6874,-7.6215,-7.6604,-7.5437,-7.4869,-7.4869,-7.418,-7.3582,-7.285,-7.0205,-6.8825,-6.8132,-6.4816,-6.328,-6.266,-5.8134,-5.6006,-5.5349,-5.413,-5.3658,-5.3557,0.0,-4.7309,-4.7309,-4.7309,-4.7848,-4.8506,-4.9209,-4.9823,-5.0465,-5.1319,-5.6017,-5.9039,-5.8321,-6.278,-6.5802,-6.5802,-6.3378,-6.1762,-6.1493,-6.2002,-6.3232,-6.5289,-6.8233,-7.0462,-7.18,-7.3792,-7.5091,-7.5707,-7.7532,-7.84,-7.846,-8.0584,-8.1931,-8.2589,-8.3247,-8.3906,-8.4504,-8.4384,-8.4654,-8.5132,-8.4983,-8.2798,-7.9417,-7.7562,-7.6125,-7.4929,-7.3881,-7.4689,-7.5886,-7.3402,-7.3462,-7.4001,-7.0949,-6.8256,0.0,0.0,0.0,0.0,0.0,0.0,0.0,0.0,0.0,0.0,0.0,0.0,0.0,0.0,0.0,0.0,0.0,0.0,0.0,-7.0021,-7.3103,-7.6395,-8.0614,-8.1991,-8.3217,-8.4923,-8.6419,-8.7107,-8.6539,-8.6,-8.5372,-8.4594,-8.3038,-8.1751,-8.0853,-8.0285,-7.9627,-7.8819,-7.8669,-7.816,-7.7233,-7.6844,-7.6185,-7.5258,-7.4988,0.0,-7.4869,-7.418,-7.3821,-7.3574,-7.0409,-6.9602,-7.0022,-6.5295,-6.2535,-6.0941,-5.8642,-5.7059,-5.5914,-5.4315,-5.3432,-5.3055,0.0,-4.7309,-4.7309,-4.7309,-4.8117,-4.894,-4.9269,-5.0092,-5.096,-5.1618,-5.564,-5.8101,-5.7176,-6.0271,-6.2193,-6.1639,-6.0057,-5.9398,-6.0057,-6.2271,-6.4725,-6.7358,-7.0649,-7.2864,-7.3881,-7.5527,-7.6514,-7.6844,-7.7831,-7.8639,-7.9327,-8.0674,-8.1991,-8.3277,-8.3936,-8.4983,-8.621,-8.621,-8.6599,-8.7197,-8.7197,-8.6,-8.4025,-8.202,-8.0464,-7.9238,-7.8579,-7.8549,-7.8549,-7.6904,-7.6544,-7.6365,-7.3732,-7.1547,-6.9572,0.0,0.0,0.0,0.0,0.0,0.0,0.0,0.0,0.0,0.0,0.0,0.0,0.0,0.0,-6.2181,-6.4186,0.0,-6.9782,-7.3732,-7.6604,-7.9507,-8.2798,-8.4085,-8.4953,-8.5611,-8.6569,-8.6928,-8.624,-8.5581,-8.4923,-8.4265,-8.2709,-8.1512,-8.0823,-8.0165,-7.9507,-7.8819,-7.846,-7.7981,-7.7322,-7.6694,-7.6036,-7.5377,-7.5048,-7.4869,-7.4869,-7.418,-7.3881,-7.3754,-7.1479,-7.0844,-7.1117,-6.7604,-6.4886,-6.2618,-6.0961,-5.8666,-5.6156,-5.5018,-5.3835,-5.2929,0.0,-4.7309,-4.7309,-4.7309,-4.8297,-4.9179,-4.9299,-5.0272,-5.1259,-5.1917,-5.4891,-5.6739,-5.6304,-5.7809,-5.8419,-5.754,-5.7198,-5.7902,-5.9757,-6.3468,-6.667,-6.9034,-7.2565,-7.4719,-7.5258,-7.6544,-7.7472,-7.8011,-7.84,-7.9148,-8.0225,-8.1003,-8.235,-8.4145,-8.4803,-8.612,-8.7885,-8.7885,-8.8274,-8.8873,-8.8873,-8.8963,-8.8813,-8.6539,-8.5192,-8.4384,-8.3457,-8.1721,-7.9746,-7.9327,-7.822,-7.6844,-7.5766,-7.4719,-7.3253,-7.0051,-6.8974,0.0,0.0,0.0,0.0,0.0,0.0,0.0,0.0,-6.2271,-6.2899,-6.4455,-6.5084,-6.6221,-6.9034,-7.1278,-7.3791,-7.7053,-7.9627,-8.205,-8.4564,-8.5252,-8.5551,-8.5671,-8.6389,-8.6569,-8.5761,-8.5222,-8.4564,-8.3786,-8.2529,-8.1512,-8.0823,-8.0165,-7.9507,-7.8819,-7.828,-7.7891,-7.7622,-7.6604,-7.5946,-7.5707,-7.5138,-7.4869,-7.4869,-7.433,-7.4091,-7.4001,-7.2535,-7.1757,-7.1368,-6.9542,-6.7448,-6.5263,-6.3605,-6.066,-5.7168,-5.5895,-5.4541,-5.3359,0.0,-4.7309,-4.7309,-4.7309,-4.7908,-4.8596,-4.9209,-4.9883,-5.0524,-5.1229,-5.272,-5.3633,-5.3284,-5.4453,-5.5193,-5.5083,-5.6325,-5.868,-6.2391,-6.5772,-6.9303,-7.3073,-7.5347,-7.6544,-7.6604,-7.7891,-7.8609,-7.8669,-8.0464,-8.1422,-8.1572,-8.2828,-8.4145,-8.5492,-8.615,-8.7257,-8.8574,-8.8574,-8.8963,-8.9561,-8.9561,-8.989,-9.0309,-8.9441,-8.8334,-8.7018,-8.5162,-8.2499,-7.9896,-8.0405,-7.9297,-7.8071,-8.0225,-7.9238,-7.6724,-7.4031,-7.0799,-6.7328,-6.3797,-6.1224,-5.9757,-6.0655,-6.0954,-6.1792,0.0,-6.637,-6.7268,-6.7478,-6.8914,-7.041,-7.1398,-7.3702,-7.6544,-7.9836,-8.1572,-8.3247,-8.5312,-8.5132,-8.5043,-8.5611,-8.6808,-8.7077,-8.5821,-8.5641,-8.5073,-8.3846,-8.2529,-8.1512,-8.0823,-8.0165,-7.9507,-7.8819,-7.8729,-7.813,-7.6933,-7.6784,-7.6125,-7.4988,-7.4929,-7.4869,-7.4869,-7.4809,-7.4779,-7.4659,-7.2714,-7.1248,-7.0081,-6.8675,-6.7567,-6.664,-6.5293,-6.3137,-6.0506,-5.6785,-5.5287,-5.4916,0.0,0.0,-4.7309,-4.7309,-4.8352,-4.9205,-4.9299,-5.035,-5.1269,-5.1558,-5.2108,-5.2411,-5.2317,-5.1831,-5.1819,-5.2383,-5.4637,-5.7842,-6.2211,-6.6311,-7.032,-7.43,-7.6335,-7.7562,-7.7951,-7.8908,-7.9776,-8.0524,-8.1362,-8.217,-8.2918,-8.3487,-8.4624,-8.627,-8.6539,-8.7646,-8.9262,-8.9262,-8.986,-9.0818,-9.0818,-9.0968,-9.1057,-8.9621,-8.7556,-8.5192,-8.3576,-8.0883,0.0,-7.7981,-7.7622,-7.7562,-7.9447,-7.8519,-7.6185,-7.3492,-7.0739,-6.7687,-6.3617,-6.1702,-6.0984,-6.1553,-6.3408,-6.5682,-6.7837,-6.9034,-7.0111,-7.1667,-7.2654,-7.4001,-7.6604,-7.7981,-7.9716,-8.2619,-8.3547,-8.4444,-8.603,-8.5372,-8.4384,-8.3517,-8.3906,-8.4325,-8.4534,-8.4564,-8.4025,-8.2679,-8.1721,-8.0913,-8.0255,-7.9597,-7.9088,-7.8789,-7.8789,-7.816,-7.6844,-7.6814,-7.6185,-7.4869,-7.4869,-7.4869,-7.4869,-7.4869,-7.445,-7.3672,-7.2415,-7.1158,-6.9901,-6.8944,-6.7956,-6.6849,-6.5533,-6.4159,-6.2583,-5.9516,-5.7122,-5.5287,0.0,0.0,0.0,-4.7832,-4.9273,-5.0061,-4.9177,-5.0445,-5.1518,-5.144,-5.1691,-5.1981,-5.2167,-5.0646,-5.0143,-5.1549,-5.3592,-5.6949,-6.1936,-6.6132,-7.038,-7.4689,-7.6933,-7.84,-7.9058,-8.0105,-8.1183,-8.232,-8.2679,-8.3427,-8.4564,-8.4743,-8.5701,-8.7227,-8.7407,-8.8424,-8.995,-9.013,-9.0758,-9.1626,-9.1626,-9.1297,-9.0549,-8.8215,-8.5043,-8.1691,-8.0764,-7.7951,-7.4599,-7.4151,-7.4061,-7.445,-7.6305,-7.6066,-7.4599,-7.2086,-6.9572,-6.6879,-6.3528,-6.263,-6.2839,-6.3767,-6.6281,-6.9064,-7.1158,-7.2235,-7.3462,-7.5766,-7.6245,-7.7233,-8.0464,-8.1063,-8.1871,-8.4325,-8.4863,-8.5252,-8.603,-8.4833,-8.3098,-8.0943,-8.0195,-8.0315,-8.1452,-8.2409,-8.2619,-8.1841,-8.1183,-8.0584,-8.0105,-7.9447,-7.8998,-7.8789,-7.8789,-7.816,-7.6844,-7.6814,-7.6185,-7.4869,-7.4869,-7.4869,-7.4869,-7.4689,-7.3971,-7.2864,-7.2176,-7.1248,-7.0201,-6.9542,-6.8585,-6.7418,-6.6101,-6.5054,-6.4068,-6.2202,-5.9493,-5.6736,0.0,0.0,0.0,0.0,-5.069,-5.1037,-4.8702,-4.9743,-5.069,-5.0305,-5.1236,-5.2198,-5.2875,-5.1415,-5.1315,-5.3705,-5.3872,-5.6365,-6.2417,-6.549,-6.9393,-7.4659,-7.7382,-7.9088,-7.9776,-8.1691,-8.3008,-8.3666,-8.4953,-8.591,-8.6599,-8.7257,-8.7945,-8.8663,-8.9292,-8.995,-9.0668,-9.1297,-9.1566,-9.1626,-9.1626,-9.0489,-8.8424,-8.5132,-8.1033,-7.7023,-7.6993,-7.3642,-6.9243,-6.9213,-6.8345,-6.7837,-7.1068,-7.2505,-7.2624,-7.062,-6.7238,-6.4126,-6.3977,-6.3947,-6.4725,-6.7986,-6.9363,-7.0949,-7.4839,-7.6694,-7.7981,-7.9387,-7.9656,-8.0105,-8.1512,-8.1751,-8.2409,-8.4384,-8.5252,-8.5462,-8.4863,-8.3098,-8.0883,-7.825,-7.6245,-7.5377,-7.6066,-7.9028,-8.1123,-8.1721,-8.1183,-8.0794,-8.0764,-8.0135,-7.9477,-7.8819,-7.8789,-7.816,-7.6844,-7.6814,-7.6185,-7.4869,-7.4869,-7.4869,-7.4869,-7.421,-7.3552,-7.2864,-7.2176,-7.1517,-7.0829,-7.0201,-6.9542,-6.8824,-6.7448,-6.6131,-6.4845,-6.4157,-6.241,-6.0116,0.0,0.0,0.0,0.0,0.0,-5.0384,-4.8861,-5.0445,-5.1518,-5.0734,-5.0981,0.0,0.0,0.0,0.0,0.0,-5.4521,-5.6874,-6.1712,-6.6354,-7.0131,-7.2754,-7.6818,-7.8907,-7.846,-8.0434,-8.1991,-8.3098,-8.4414,-8.5372,-8.606,-8.7167,-8.8065,-8.8723,-8.9382,-9.0279,-9.1267,-9.1057,-9.0728,-9.0249,-8.9382,-8.8095,-8.6329,-8.3038,-7.837,-7.3283,0.0,-6.8046,-6.4934,-6.4066,-6.3767,-6.4156,-6.658,-6.7508,-6.7388,-6.5862,-6.5054,-6.4695,-6.4695,-6.658,-6.9064,-7.1098,-7.3732,-7.6305,-7.81,-7.9178,-7.9806,-7.9806,-7.843,-7.7622,-7.8908,-7.8789,-7.9297,-8.1721,-8.3038,-8.3666,-8.3457,-8.2469,-7.9986,-7.5138,-7.5138,-7.4599,-7.2206,-7.5347,-7.819,-7.9686,-8.0016,-7.9956,-7.9477,-7.9686,-7.9507,-7.8819,-7.837,-7.7711,-7.6844,-7.6425,-7.5766,-7.4869,-7.4869,-7.4869,-7.4869,-7.418,-7.3522,-7.2864,-7.2176,-7.1517,-7.0829,-6.9782,-6.9183,-6.8794,-6.655,-6.5413,-6.4904,-6.3797,-6.2908,-6.1969,0.0,0.0,0.0,0.0,0.0,0.0,0.0,0.0,0.0,0.0,0.0,0.0,0.0,0.0,0.0,0.0,0.0,-5.654,-6.0431,-6.4665,-6.803,-7.0206,-7.4281,-7.6289,-7.5715,-7.74,-7.8719,-7.9597,-8.1153,-8.2469,-8.3636,-8.4953,-8.606,-8.6958,-8.7616,-8.8484,-8.9471,-8.9052,-8.8364,-8.7377,-8.5611,-8.3666,-8.1422,-7.7652,-7.3103,0.0,-6.5024,-6.257,-6.0835,-6.0236,-6.0326,-6.0924,-6.245,-6.3228,-6.3707,-6.4036,-6.4904,-6.6041,-6.7448,-7.0231,-7.3133,-7.4929,-7.7652,-7.9956,-8.0434,-8.0674,-8.0405,-7.9028,-7.6664,-7.4929,-7.5288,-7.442,-7.4779,-7.813,-7.9387,-8.0345,-8.1542,-8.0524,-7.8071,-7.3762,-7.3582,-7.2954,-7.0859,-7.2744,-7.5318,-7.822,-7.8849,-7.9118,-7.9148,-7.9357,-7.9238,-7.8789,-7.816,-7.7502,-7.6844,-7.6215,-7.5557,-7.4869,-7.4869,-7.4869,-7.4869,-7.418,-7.3522,-7.2864,-7.2176,-7.1398,-7.05,-6.9692,-6.9064,-6.8435,-6.649,-6.5443,-6.4904,-6.3797,-6.3258,-6.2933,0.0,0.0,0.0,0.0,0.0,0.0,0.0,0.0,0.0,0.0,0.0,0.0,0.0,0.0,0.0,0.0,0.0,0.0,-5.8888,-6.0741,-6.3481,-6.7271,-7.0203,-7.1766,-7.1811,-7.3108,-7.3733,-7.3806,-7.5695,-7.7614,-7.952,-8.0925,-8.2215,-8.3399,-8.4106,-8.4796,-8.5396,-8.5366,-8.4509,-8.3024,-8.0448,-7.7513,-7.4091,-6.9572,-6.5862,-6.26,-5.9428,-5.7752,-5.7154,-5.7842,-5.8141,-5.8351,-5.9009,-6.0116,-6.1852,-6.5144,-6.667,-6.8136,-7.2056,-7.4659,-7.6844,-7.9357,-8.0943,-8.1841,-8.1751,-8.1153,-7.9836,-7.7143,-7.442,-7.2086,-7.0739,-6.9064,-6.9363,-7.3971,-7.4929,-7.6185,-7.9387,-7.7741,-7.5647,-7.4091,-7.1816,-7.0799,-7.1846,-7.1457,-7.2984,-7.7442,-7.7771,-7.834,-7.9686,-7.9178,-7.8819,-7.8789,-7.813,-7.7442,-7.6844,-7.6185,-7.5527,-7.4869,-7.4869,-7.4869,-7.4869,-7.418,-7.3522,-7.2864,-7.2176,-7.1188,-7.0021,-6.9961,-6.9153,-6.7897,-6.7178,-6.6101,-6.4904,-6.4216,-6.3588,-6.3079,0.0,0.0,0.0,0.0,0.0,0.0,0.0,0.0,0.0,0.0,0.0,0.0,0.0,0.0,0.0,0.0,0.0,0.0,-5.8878,-6.2055,-6.4277,-6.5233,-6.957,-7.1725,-7.1181,-7.2364,-7.2815,-7.2393,-7.3757,-7.4747,-7.5418,-7.7098,-7.839,-7.9265,-7.9915,-8.06,-8.1191,-8.0693,-7.9166,-7.691,-7.5326,-7.3005,-7.0201,-6.7537,-6.4784,-6.2181,-6.0835,-5.865,-5.6496,-5.7154,-5.8351,-5.9697,-6.0386,-6.1523,-6.3228,-6.652,-6.9333,-7.2056,-7.5018,-7.837,-8.1183,-8.1841,-8.2619,-8.2858,-8.1392,-7.9387,-7.6963,-7.3791,-6.9901,-6.664,-6.5323,-6.5862,-6.7867,-7.1966,-7.5557,-7.828,-7.9627,-8.0075,-7.8699,-7.442,-7.5018,-7.4988,-7.2864,-7.3851,-7.5318,-7.6963,-7.7083,-7.7652,-7.8968,-7.9387,-7.9327,-7.8819,-7.7682,-7.6993,-7.6814,-7.5707,-7.5048,-7.4869,-7.4869,-7.4869,-7.4869,-7.418,-7.3522,-7.2864,-7.2176,-7.1427,-7.059,-6.9632,-6.8734,-6.7807,-6.6161,-6.5024,-6.4186,-6.3558,-6.3199,-6.3079,0.0,0.0,0.0,0.0,0.0,0.0,0.0,0.0,0.0,0.0,0.0,0.0,0.0,0.0,0.0,0.0,0.0,0.0,0.0,-6.0926,-6.2805,-6.3088,-6.6766,-6.8331,-6.7286,-6.8248,-6.8362,-6.7522,-6.8697,-6.9622,-7.0394,-7.1943,-7.3375,-7.464,-7.5336,-7.5827,-7.6245,-7.5557,-7.3788,0.0,0.0,-6.7366,-6.5353,-6.3647,-6.1882,-6.0296,-5.9937,-5.88,-5.7693,-5.9219,-6.0475,-6.1702,-6.3558,-6.5233,-6.7268,-7.1158,-7.3821,-7.6185,-7.9417,-8.214,-8.3965,-8.3696,-8.3457,-8.2499,-7.9357,-7.6574,-7.3462,-6.9273,-6.5473,-6.2361,-6.0745,-6.1822,-6.4366,-6.8615,-7.2684,-7.6275,-7.8998,-7.9746,-7.9148,-7.6784,-7.7263,-7.7203,-7.5647,-7.6006,-7.6814,-7.8041,-7.7322,-7.7412,-7.8729,-7.9148,-7.9178,-7.8789,-7.7502,-7.6544,-7.5976,-7.5258,-7.4869,-7.4869,-7.4869,-7.4869,-7.4869,-7.448,-7.3821,-7.2894,-7.2505,-7.1457,-7.0021,-6.9303,-6.8435,-6.7358,-6.5682,-6.4784,-6.4336,-6.3408,-6.3079,-6.3079,0.0,0.0,0.0,0.0,0.0,0.0,0.0,0.0,0.0,0.0,-5.4952,0.0,0.0,0.0,0.0,0.0,0.0,0.0,0.0,0.0,-6.0452,-6.1264,-6.3328,-6.3993,-6.2967,-6.3562,-6.3288,-6.203,-6.3073,-6.4172,-6.5328,-6.6554,-6.8044,-6.9727,-7.0658,-7.0947,-7.072,-7.0276,-6.859,-6.6012,-6.3727,-6.2021,-6.0715,0.0,-5.862,-5.8112,-5.8112,-5.8501,-5.9428,-6.245,-6.3647,-6.4425,-6.7627,-7.0111,-7.2684,-7.7053,-7.8849,-8.0255,-8.3965,-8.5521,-8.5881,-8.4953,-8.3517,-8.1153,-7.6544,-7.3163,-6.9542,-6.4515,-6.1403,-5.8979,-5.7064,-5.7962,-6.0535,-6.5353,-6.8974,-7.3043,-7.843,-7.8699,-7.8759,-7.9926,-7.8968,-7.843,-7.8998,-7.7951,-7.7981,-7.9806,-7.816,-7.7622,-7.8878,-7.8849,-7.8699,-7.8519,-7.7352,-7.6125,-7.4899,-7.4869,-7.4869,-7.4869,-7.4869,-7.4869,-7.4869,-7.4779,-7.4061,-7.2924,-7.2834,-7.1398,-6.9123,-6.9034,-6.8196,-6.6849,-6.5533,-6.4964,-6.4755,-6.3528,-6.3079,-6.3079,0.0,0.0,0.0,0.0,0.0,0.0,0.0,0.0,0.0,0.0,-5.5974,-5.6181,0.0,0.0,0.0,0.0,0.0,0.0,0.0,0.0,0.0,-6.1264,-6.2854,-6.385,-6.4259,-6.4394,-6.3857,-6.2664,-6.2799,-6.2807,-6.2697,-6.3891,-6.441,-6.4444,-6.6687,-6.6481,-6.4588,-6.5514,-6.4438,-6.1994,-6.1554,-6.0624,-5.9368,-5.859,0.0,0.0,-5.8112,-5.8201,-5.9039,-6.3857,-6.661,-6.8465,-7.1188,-7.4151,-7.7203,-8.0195,-8.1931,-8.3367,-8.5701,-8.7227,-8.7616,-8.5282,-8.2499,-7.9118,-7.448,-6.9692,-6.5173,-6.1523,-5.868,-5.6406,-5.497,-5.6675,-6.0176,-6.5892,-7.0051,-7.4599,-8.0434,-8.1153,-8.1183,-8.1422,-8.0764,-8.0315,-8.0434,-7.9746,-7.9656,-8.0554,-7.9267,-7.8789,-7.9597,-7.9088,-7.828,-7.7203,-7.6455,-7.5677,-7.4899,-7.4869,-7.4869,-7.4869,-7.4869,-7.4869,-7.4869,-7.43,-7.3642,-7.2894,-7.2295,-7.1218,-6.9782,-6.9213,-6.8196,-6.6849,-6.5533,-6.4695,-6.4096,-6.3348,-6.3079,-6.3079,0.0,0.0,0.0,0.0,0.0,0.0,0.0,-5.528,-5.5994,-5.7292,-5.8216,-5.8125,-5.6611,-5.5492,-5.5247,0.0,0.0,0.0,0.0,0.0,0.0,0.0,-6.2719,-6.3666,-6.4038,-6.441,-6.4338,-6.3836,0.0,-6.2619,-6.2412,-6.2285,-6.2271,-6.2476,-6.3721,-6.3376,-6.2045,-6.3355,-6.239,-6.0075,-6.1113,-6.056,-5.9159,0.0,0.0,0.0,-5.877,-5.886,-5.9727,-6.3647,-6.7418,-7.1158,-7.4809,-7.825,-8.1422,-8.4085,-8.5312,-8.624,-8.8185,-8.8963,-8.8574,-8.5881,-8.1961,-7.7382,-7.2086,-6.652,-6.1523,-5.8231,-5.5987,-5.4431,-5.3803,-5.6107,-5.9279,-6.281,-6.6729,-7.1398,-7.7352,-7.8489,-7.9597,-8.1991,-8.202,-8.1811,-8.1811,-8.1212,-8.0973,-8.1302,-8.0075,-7.9477,-7.9806,-7.9178,-7.834,-7.7382,-7.6724,-7.6066,-7.5407,-7.5048,-7.4869,-7.4869,-7.4869,-7.4869,-7.4869,-7.454,-7.3851,-7.2894,-7.2565,-7.1487,-6.9931,-6.9273,-6.8405,-6.7328,-6.5682,-6.4814,-6.4425,-6.3438,-6.3079,-6.3079,0.0,0.0,0.0,0.0,0.0,0.0,-5.6019,-5.649,-5.7279,-5.9473,-6.0313,-5.9894,-5.7916,-5.665,-5.615,0.0,0.0,0.0,0.0,0.0,0.0,0.0,0.0,0.0,-6.3531,0.0,0.0,-6.4984,-6.376,0.0,0.0,0.0,0.0,0.0,-6.1997,-6.1736,-6.104,-6.2144,-6.1469,0.0,0.0,-6.0761,-5.9638,0.0,0.0,0.0,0.0,-5.9219,-6.0057,-6.272,-6.652,-7.0949,-7.5318,-8.0135,-8.4504,-8.6329,-8.7467,-8.8484,-9.019,-9.0249,-8.9172,-8.621,-8.1302,-7.5617,-6.9722,-6.3647,-5.8381,-5.5388,-5.3803,-5.2965,-5.2965,-5.5089,-5.7513,-5.9548,-6.2869,-6.7448,-7.3971,-7.5587,-7.7771,-8.223,-8.2649,-8.2589,-8.2814,-8.217,-8.1781,-8.1781,-8.0554,-7.9746,-7.9597,-7.8938,-7.834,-7.7831,-7.7053,-7.6395,-7.5916,-7.5228,-7.4869,-7.4869,-7.4869,-7.4869,-7.4869,-7.4869,-7.4151,-7.2924,-7.2924,-7.1727,-6.9722,-6.9213,-6.8525,-6.7597,-6.5892,-6.5144,-6.4874,-6.3707,-6.3199,-6.3079,0.0,0.0,0.0,0.0,0.0,0.0,-5.5195,-5.6969,-5.8809,-6.0795,-6.1088,-6.0774,-5.9722,-5.908,-5.821,0.0,0.0,0.0,0.0,0.0,0.0,0.0,0.0,0.0,0.0,0.0,0.0,-6.5597,-6.5005,0.0,0.0,0.0,0.0,0.0,0.0,-6.2179,-6.0989,-6.1142,0.0,0.0,0.0,0.0,0.0,0.0,0.0,0.0,0.0,-5.8261,-5.871,-6.1373,-6.3348,-6.5323,-6.8794,-7.7083,-8.5342,-8.4384,-8.6659,-8.9651,-9.0429,-9.0608,-8.9621,-8.5761,-7.9926,-7.3582,-6.7627,-6.1224,-5.5927,-5.3803,-5.2785,-5.2276,-5.2276,-5.2546,-5.4162,-5.8501,-6.1044,-6.5353,-7.3702,-7.5946,-7.825,-8.229,-8.223,-8.211,-8.2784,-8.217,-8.1781,-8.1781,-8.0554,-7.9537,-7.8908,-7.825,-7.7861,-7.7801,-7.6634,-7.5976,-7.5916,-7.5228,-7.4869,-7.4869,-7.4869,-7.4869,-7.4869,-7.4869,-7.4151,-7.2924,-7.2924,-7.1457,-6.9093,-6.9034,-6.8256,-6.6999,-6.6221,-6.5562,-6.4934,-6.4186,-6.3558,-6.3079,0.0,0.0,0.0,0.0,0.0,0.0,-5.6555,-5.729,-5.8808,-6.2309,-6.3982,-6.4661,-6.4254,-6.3576,-6.1301,-5.6811,0.0,0.0,0.0,0.0,0.0,0.0,0.0,0.0,0.0,0.0,-6.5189,-6.6373,-6.4601,0.0,0.0,0.0,0.0,0.0,0.0,-6.0794,-6.104,-6.1846,0.0,0.0,0.0,0.0,0.0,0.0,0.0,0.0,0.0,0.0,-5.8231,-5.886,-6.0505,-6.2271,-6.2421,-6.8226,-7.5856,-8.0135,-8.3068,-8.5671,-8.9112,-9.0339,-8.9681,-8.5701,-7.9447,-7.2954,-6.7777,-6.0565,-5.464,-5.3443,-5.2336,-5.1618,-5.1618,-5.1618,-5.2336,-5.4581,-5.5957,-5.9189,-6.6191,-6.7986,-7.1338,-7.8878,-7.9208,-7.9986,-8.3038,-8.2769,-8.205,-8.1242,-7.9956,-7.9088,-7.8789,-7.8549,-7.84,-7.84,-7.7532,-7.6874,-7.6455,-7.5826,-7.5288,-7.4869,-7.4869,-7.4869,-7.4869,-7.448,-7.3791,-7.2864,-7.2056,-7.0889,-6.9542,-6.8704,-6.7837,-6.6879,-6.5832,-6.4994,-6.4336,-6.3677,-6.3288,-6.3079,0.0,0.0,0.0,0.0,0.0,-5.4686,-5.7329,-5.8056,-5.9646,-6.3303,-6.5303,-6.6518,-6.6812,-6.5239,-6.2464,-5.8221,-5.8768,0.0,0.0,0.0,0.0,0.0,0.0,0.0,0.0,0.0,-6.5662,-6.7151,-6.5321,-6.4561,0.0,0.0,-6.1236,-6.1827,0.0,0.0,0.0,0.0,0.0,0.0,0.0,0.0,0.0,0.0,0.0,0.0,0.0,0.0,0.0,0.0,0.0,-5.9683,-5.8644,-6.1436,-6.6552,-7.4106,-7.8639,-8.217,-8.6689,-8.8963,-8.9142,-8.5372,-7.8819,-7.2026,-6.7208,-5.9787,-5.3653,-5.2785,-5.1858,-5.1229,-5.1229,-5.1229,-5.1439,-5.2097,-5.2935,-5.5418,-6.1014,-6.269,-6.643,-7.4779,-7.5527,-7.7113,-8.1542,-8.211,-8.1721,-8.0584,-7.9447,-7.8789,-7.8789,-7.8789,-7.8699,-7.8519,-7.7861,-7.7203,-7.6574,-7.5916,-7.5347,-7.4869,-7.4869,-7.4869,-7.4869,-7.418,-7.3522,-7.2834,-7.1487,-7.044,-6.9602,-6.8435,-6.7478,-6.661,-6.5682,-6.4784,-6.3947,-6.3498,-6.3228,-6.3079,0.0,0.0,0.0,0.0,0.0,0.0,-5.6777,-5.9443,-6.1837,-6.3485,-6.4248,-6.5062,-6.6184,-6.2706,-6.0637,-6.1636,-6.0751,0.0,0.0,0.0,0.0,0.0,0.0,0.0,0.0,0.0,-6.6406,-6.7895,-6.7852,-6.8258,-6.8992,-6.6287,-6.47,-6.3947,0.0,0.0,0.0,0.0,0.0,0.0,0.0,0.0,-6.2032,0.0,0.0,0.0,0.0,0.0,0.0,0.0,0.0,0.0,0.0,-5.8467,-5.9428,-6.6161,-7.3672,-8.0405,-8.3068,-8.621,-8.7915,-8.4564,-7.7771,-7.053,-6.5233,-5.8411,-5.2815,-5.1498,-5.1229,-5.1229,-5.1229,-5.1229,-5.1439,-5.2097,-5.3324,-5.5807,-6.0475,-6.278,-6.5742,-7.041,-7.1547,-7.3492,-7.7502,-7.9656,-8.0554,-7.9866,-7.9178,-7.8789,-7.8789,-7.8789,-7.8489,-7.7831,-7.7173,-7.6544,-7.5916,-7.5228,-7.4899,-7.4869,-7.4869,-7.4869,-7.4869,-7.418,-7.3522,-7.2834,-7.1487,-7.0171,-6.8944,-6.8256,-6.7208,-6.6011,-6.6011,-6.5173,-6.4006,-6.3977,-6.3588,-6.3079,0.0,0.0,0.0,0.0,0.0,0.0,-5.6057,-5.7726,-5.949,-6.1059,-6.319,-6.4908,-6.5807,-6.4279,-6.3332,-6.365,-6.1514,0.0,0.0,0.0,0.0,0.0,0.0,0.0,0.0,-6.5324,-6.6406,-6.7895,-6.7045,-6.6489,-6.6368,-6.4583,-6.3588,-6.3246,-6.151,-6.1092,0.0,0.0,0.0,0.0,0.0,-6.3617,-6.1403,0.0,0.0,0.0,0.0,0.0,0.0,0.0,0.0,0.0,0.0,0.0,0.0,-6.1894,-6.6827,-7.1727,-7.4809,-7.7412,-7.846,-7.5168,-7.038,-6.5592,-6.2121,-5.7094,-5.2935,-5.2067,-5.1528,-5.1229,-5.1229,-5.1229,-5.1738,-5.3324,-5.4311,-5.5688,-5.8052,-6.1613,-6.5892,-7.1009,-7.6963,-8.0794,-8.1153,-8.0943,-8.0524,-7.9866,-7.9178,-7.8789,-7.8789,-7.837,-7.8041,-7.7831,-7.7592,-7.6993,-7.5916,-7.5677,-7.5347,-7.4869,-7.4869,-7.4629,-7.418,-7.3522,-7.2864,-7.2116,-7.035,-6.9363,-6.8914,-6.7777,-6.652,-6.5353,-6.5353,-6.4545,-6.3378,-6.3378,-6.3258,-6.3079,0.0,0.0,0.0,0.0,0.0,0.0,-5.5683,-5.6934,-5.822,-5.9133,-6.1163,-6.3193,-6.5087,-6.3599,-6.3159,-6.485,-6.2279,0.0,0.0,0.0,0.0,0.0,0.0,0.0,-6.4986,-6.573,-6.7252,-6.9586,-6.8414,-6.8045,-6.828,-6.6529,-6.4994,-6.3764,-6.2466,-6.1785,0.0,0.0,0.0,0.0,-6.4929,-6.3098,-6.0715,0.0,0.0,0.0,0.0,0.0,0.0,0.0,0.0,0.0,0.0,0.0,0.0,0.0,-6.1194,-6.4303,-6.9057,-7.2206,-7.3375,-7.0359,-6.661,-6.2899,-5.9997,-5.6137,-5.2935,-5.2007,-5.1498,-5.1229,-5.1229,-5.1229,-5.1618,-5.2875,-5.3414,-5.4401,-5.6466,-6.0086,-6.4784,-7.0829,-7.7592,-8.1332,-8.0285,-8.0315,-8.0165,-7.9477,-7.9028,-7.8669,-7.843,-7.8041,-7.7592,-7.7113,-7.7083,-7.6574,-7.5527,-7.5527,-7.5288,-7.4869,-7.4869,-7.454,-7.3881,-7.3223,-7.2415,-7.1427,-6.9722,-6.8854,0.0,-6.7448,-6.6221,-6.5024,-6.5024,-6.4216,-6.3079,-6.3079,-6.3079,-6.3079,0.0,0.0,0.0,0.0,0.0,0.0,0.0,-5.6934,-5.7881,-5.7814,-5.8457,-6.025,-6.3734,-6.1095,-6.0791,-6.5019,-6.2922,0.0,0.0,0.0,0.0,0.0,0.0,0.0,-6.5595,-6.6406,-6.8571,-7.2157,-7.1304,-7.1751,-7.3229,-7.1105,-6.8307,-6.5077,-6.377,-6.2538,-6.1477,-6.3224,-6.4034,-6.4173,-6.4034,-6.2432,0.0,0.0,0.0,0.0,0.0,0.0,0.0,0.0,0.0,0.0,0.0,0.0,0.0,0.0,0.0,0.0,0.0,-6.9261,-7.1015,-6.8627,-6.5233,-6.1672,-5.8501,-5.5388,0.0,-5.1498,-5.1229,-5.1229,-5.1229,-5.1229,-5.1289,-5.1468,-5.1498,-5.2606,-5.5777,-5.886,-6.3468,-7.0679,-7.4929,-7.6963,-7.6245,-7.837,-7.9537,-7.8849,-7.8789,-7.8519,-7.7861,-7.7771,-7.7173,-7.5946,-7.5856,-7.5527,-7.4899,-7.4869,-7.4869,-7.4869,-7.4839,-7.445,-7.3791,-7.3133,-7.2116,-7.0769,-6.9542,-6.8615,-6.7926,-6.7268,-6.6221,-6.5024,-6.5024,-6.4216,-6.3079,-6.3079,-6.3079,-6.3079,0.0,0.0,0.0,0.0,0.0,0.0,0.0,0.0,0.0,0.0,-5.7679,-5.849,-5.937,-5.9674,-6.052,0.0,0.0,0.0,0.0,0.0,0.0,0.0,0.0,0.0,-6.485,-6.6136,-6.7827,-6.9891,-7.0781,-7.0843,-7.0159,-7.0763,-6.8882,-6.4985,-6.4663,-6.4405,-6.4101,-6.3052,-6.3451,-6.4723,-6.3194,-6.1889,0.0,0.0,0.0,0.0,-5.8919,-5.856,0.0,0.0,0.0,0.0,0.0,0.0,0.0,0.0,-5.9126,-5.8546,-5.9321,0.0,-6.0379,-5.8847,-5.7723,-5.6555,0.0,-5.3743,-5.2815,-5.1498,-5.1229,-5.1229,-5.1229,-5.1229,-5.1887,-5.3922,-5.4251,-5.488,-5.6645,-6.3079,-7.0111,-7.6904,-7.9896,-8.0734,-7.9058,-7.9447,-7.9537,-7.8849,-7.8789,-7.8519,-7.7861,-7.7322,-7.6694,-7.5916,-7.5377,-7.5048,-7.4869,-7.4869,-7.4869,-7.4869,-7.436,-7.3791,-7.3133,-7.2445,-7.1427,-7.0141,-6.9363,-6.8615,-6.7926,-6.7268,-6.6221,-6.5024,-6.5024,-6.4216,-6.3079,-6.3079,-6.3079,-6.3079,0.0,0.0,0.0,0.0,0.0,0.0,0.0,0.0,0.0,0.0,-5.7949,-5.8524,-5.8863,-5.9607,-6.0689,0.0,0.0,0.0,0.0,0.0,0.0,0.0,0.0,-6.4749,-6.5087,-6.6542,-6.8109,-6.9654,-7.1017,-7.1007,-6.9706,-7.0406,-6.871,-6.4934,-6.4395,-6.4141,-6.4122,-6.3003,-6.2996,-6.3609,-6.2551,0.0,0.0,0.0,0.0,0.0,-5.997,-6.0114,0.0,-6.2618,-6.1966,-6.0637,0.0,0.0,0.0,0.0,-5.8496,-5.7714,-5.6493,-5.6602,-5.6748,-5.551,-5.5179,-5.491,-5.3892,-5.3653,-5.3264,-5.1947,-5.1678,-5.1558,-5.1289,-5.1229,-5.1798,-5.3533,-5.4072,-5.5777,-6.0116,-6.6311,-7.2505,-7.822,-8.0105,-8.0644,-7.9896,-7.9537,-7.9178,-7.8819,-7.8519,-7.8041,-7.7382,-7.6754,-7.6096,-7.5437,-7.5078,-7.4869,-7.4869,-7.4869,-7.4719,-7.442,-7.4061,-7.3373,-7.2445,-7.2056,-7.1038,-6.9512,-6.9153,-6.8435,-6.7478,-6.7148,-6.6221,-6.5024,-6.5024,-6.4216,-6.3079,-6.3079,-6.3079,-6.3079,0.0,0.0,0.0,0.0,0.0,0.0,0.0,0.0,0.0,0.0,0.0,0.0,0.0,0.0,0.0,0.0,0.0,0.0,0.0,0.0,0.0,0.0,-6.414,-6.4952,-6.5662,-6.7151,-6.8696,-7.028,-7.1986,-7.2099,-7.066,-7.1108,-6.9265,-6.5413,-6.4126,-6.3348,-6.3079,-6.3079,-6.275,-6.2241,-6.2121,0.0,0.0,0.0,0.0,0.0,0.0,0.0,0.0,-6.4414,-6.3206,-6.14,-6.264,0.0,0.0,0.0,0.0,0.0,-5.6111,-5.6702,-5.7239,-5.5611,-5.5179,-5.5029,-5.4371,-5.4221,-5.3862,-5.2606,-5.2336,-5.2187,-5.1618,-5.1678,-5.2037,-5.2695,-5.3773,-5.7244,-6.4994,-6.9123,-7.2954,-7.7293,-7.8579,-7.9208,-7.9477,-7.9058,-7.8789,-7.8789,-7.819,-7.7532,-7.6874,-7.6245,-7.5587,-7.4899,-7.4869,-7.4839,-7.4719,-7.4719,-7.445,-7.3881,-7.3672,-7.2954,-7.1727,-7.1637,-7.059,-6.8854,-6.8854,-6.8136,-6.6969,-6.6879,-6.6131,-6.5024,-6.4904,-6.4126,-6.3079,-6.3079,-6.3079,-6.3079,0.0,0.0,0.0,0.0,0.0,0.0,0.0,0.0,0.0,0.0,0.0,0.0,0.0,0.0,0.0,0.0,0.0,0.0,0.0,0.0,0.0,-6.255,-6.3869,-6.4952,-6.5662,-6.7151,-6.8654,-7.0198,-7.4195,-7.4662,-7.1893,-7.5682,-7.3932,-6.7448,-6.6161,-6.4635,-6.3079,-6.3079,-6.3019,-6.2869,-6.2331,0.0,0.0,0.0,0.0,0.0,0.0,0.0,0.0,-6.4105,-6.3812,-6.2629,-6.3894,0.0,0.0,0.0,0.0,0.0,-5.884,-5.9489,-5.9554,-5.6042,-5.5179,-5.5029,-5.4371,-5.4221,-5.3982,-5.3204,-5.3025,-5.2995,-5.2905,-5.3803,-5.479,-5.5448,-5.8471,-6.3079,-6.9871,-7.2325,-7.451,-7.7472,-7.9387,-7.9866,-7.828,-7.8519,-7.8789,-7.8789,-7.819,-7.7532,-7.6874,-7.6245,-7.5587,-7.4899,-7.4869,-7.4599,-7.4061,-7.4031,-7.4001,-7.3881,-7.2744,-7.1787,-7.1038,-7.05,-6.9482,-6.8136,-6.8136,-6.7687,-6.6939,-6.64,-6.5712,-6.4964,-6.4395,-6.3707,-6.3079,-6.3079,-6.3079,-6.3079,0.0,0.0,0.0,0.0,0.0,0.0,0.0,0.0,0.0,0.0,0.0,0.0,0.0,0.0,0.0,0.0,0.0,0.0,0.0,0.0,-6.2922,-6.4106,-6.4444,-6.4749,-6.5087,-6.8166,-7.0322,-7.1485,-7.6736,-7.7457,-7.4005,-7.3286,-7.0802,-6.691,-6.591,-6.5006,-6.4209,-6.4209,-6.4209,-6.4036,0.0,0.0,0.0,0.0,0.0,0.0,0.0,0.0,0.0,0.0,-6.4595,-6.3743,-6.3978,0.0,0.0,0.0,0.0,0.0,-5.926,-5.8908,-5.8561,-5.7438,-5.7301,-5.6907,-5.514,-5.473,-5.4551,-5.3862,-5.3743,-5.3743,-5.3743,-5.5388,-5.7812,-6.0984,-6.3917,-6.7388,-7.1816,-7.3283,-7.4869,-7.7502,-7.8639,-7.8968,-7.84,-7.8609,-7.8639,-7.828,-7.7652,-7.6993,-7.6365,-7.5707,-7.5198,-7.4899,-7.454,-7.421,-7.3881,-7.3163,-7.2804,-7.2804,-7.2176,-7.1368,-7.038,-7.0111,-6.9243,-6.7956,-6.7956,-6.7597,-6.6969,-6.667,-6.5951,-6.4994,-6.4665,-6.3947,-6.3079,-6.3079,-6.3079,-6.3079,0.0,0.0,0.0,0.0,0.0,0.0,0.0,0.0,0.0,0.0,0.0,0.0,0.0,0.0,0.0,0.0,0.0,0.0,0.0,-6.255,-6.2888,-6.458,-6.4783,-6.5425,-6.6643,-7.0229,-7.2909,-7.4638,-8.0374,-8.1335,-7.7779,-7.2486,-6.8873,-6.6671,-6.5738,-6.5053,-6.4592,-6.4439,-6.4377,-6.4261,0.0,0.0,0.0,0.0,0.0,0.0,0.0,0.0,0.0,0.0,0.0,0.0,0.0,0.0,0.0,-6.0953,-6.0828,-6.0853,-5.9987,-5.9292,-5.8951,-5.9616,-5.9176,-5.8101,-5.6663,-5.6226,-5.6017,-5.5658,-5.5598,-5.5508,-5.5179,-5.7513,-6.1134,-6.6131,-6.8734,-7.1068,-7.3702,-7.4629,-7.5796,-7.7801,-7.819,-7.84,-7.8759,-7.8639,-7.8555,-7.8368,-7.7264,-7.6534,-7.6477,-7.5502,-7.4869,-7.4869,-7.424,-7.3821,-7.3672,-7.2475,-7.1876,-7.1876,-7.1577,-7.0859,-6.9752,-6.9572,-6.8854,-6.7747,-6.7747,-6.7448,-6.6969,-6.667,-6.5951,-6.4994,-6.4695,-6.3947,-6.3079,-6.3079,-6.3079,-6.3079,0.0,0.0,0.0,0.0,0.0,0.0,0.0,0.0,0.0,0.0,0.0,0.0,0.0,0.0,0.0,0.0,0.0,0.0,0.0,-6.1772,-6.1467,-6.1603,-6.4174,-6.7895,-7.2732,-7.3849,-7.6439,-8.0682,-8.5993,-8.7186,-8.4443,-7.8658,-7.3439,-6.8704,-6.6792,-6.4932,-6.3192,-6.2592,-6.2322,-6.2262,-6.1489,0.0,0.0,0.0,0.0,0.0,0.0,0.0,0.0,0.0,0.0,0.0,0.0,0.0,-6.215,-6.0953,-6.1399,-6.2333,-6.2448,-6.3273,-6.3802,-6.2771,-5.9428,-5.6981,-5.9243,-5.9249,-5.8979,-5.9548,-5.9668,-5.9279,-5.8082,-6.0984,-6.4904,-6.9034,-7.1876,-7.445,-7.7083,-7.8011,-7.8519,-7.8699,-7.9297,-7.9447,-7.8849,-7.825,-7.8509,-8.0014,-7.7547,-7.6645,-7.8045,-7.6122,-7.4869,-7.4869,-7.424,-7.3612,-7.2984,-7.2265,-7.1876,-7.1876,-7.0679,-6.9752,-6.9064,-6.8405,-6.7717,-6.7059,-6.7059,-6.7029,-6.6879,-6.5682,-6.5114,-6.4904,-6.3707,-6.3169,-6.3079,-6.3079,-6.3079,-6.3079,0.0,0.0,0.0,0.0,0.0,0.0,0.0,0.0,0.0,0.0,0.0,0.0,0.0,0.0,0.0,0.0,0.0,0.0,0.0,-6.1163,-6.1704,-6.2651,-6.4613,-6.7726,-7.2056,-7.6048,-8.0513,-8.5452,-8.8261,-8.8162,-8.5299,-7.8491,-7.2836,-6.8356,-6.6809,-6.5451,-6.434,-6.4071,-6.4193,-6.4474,-6.3381,-6.2238,0.0,0.0,0.0,0.0,0.0,0.0,0.0,0.0,-6.3933,-6.4715,-6.3802,-6.3328,-6.291,-6.2005,-6.203,-6.2403,-6.2542,-6.3024,-6.3454,-6.3364,-6.1895,-6.0628,-6.1116,-6.111,-6.1253,-6.2301,-6.3199,-6.3998,-6.4819,-6.7683,-7.0707,-7.3247,-7.6024,-7.8163,-7.8933,-7.8908,-7.8938,-7.9387,-7.9297,-7.9088,-7.8819,-7.819,-7.7905,-7.8122,-7.7691,-7.7057,-7.619,-7.6288,-7.5717,-7.4338,-7.3642,-7.2954,-7.2265,-7.1607,-7.1098,-7.0679,-7.0201,-6.9423,-6.8345,-6.8076,-6.7597,-6.6999,-6.6999,-6.6999,-6.6909,-6.6011,-6.5413,-6.4904,-6.3588,-6.3079,-6.3079,-6.3079,-6.3079,-6.3139,0.0,0.0,0.0,0.0,0.0,0.0,0.0,0.0,0.0,0.0,0.0,0.0,0.0,0.0,0.0,0.0,0.0,0.0,-5.9742,-6.0283,-6.1028,-6.2042,-6.4174,-6.7117,-7.0872,-7.7266,-8.2881,-8.7651,-9.0386,-8.9498,-8.5024,-7.9097,-7.4043,-6.9728,-6.7737,-6.6826,-6.6712,-6.5416,-6.5193,-6.5591,-6.3758,-6.2486,0.0,0.0,0.0,0.0,0.0,0.0,0.0,0.0,-6.3311,-6.3843,-6.287,-6.2676,-6.264,-6.1749,-6.1571,-6.167,-6.167,-6.183,-6.2149,-6.3027,-6.2978,-6.2986,-6.41,-6.4169,-6.438,-6.6162,-6.64,-6.6793,-6.848,-7.1026,-7.3394,-7.5182,-7.8608,-8.1097,-8.11,-8.0284,-7.9749,-7.992,-7.9809,-7.9476,-7.8982,-7.8528,-7.8437,-7.8755,-7.8274,-7.7751,-7.7222,-7.7522,-7.7019,-7.5391,-7.4534,-7.3605,-7.2664,-7.1998,-7.1138,-6.9991,-6.9991,-6.9393,-6.8286,-6.7867,-6.7537,-6.7298,-6.7089,-6.6999,-6.6939,-6.6071,-6.5203,-6.4336,-6.3438,-6.3079,-6.3079,-6.3079,-6.3079,-6.3169,0.0,0.0,0.0,0.0,0.0,0.0,0.0,0.0,0.0,0.0,0.0,0.0,0.0,0.0,0.0,0.0,0.0,0.0,-5.8964,-5.9032,-5.9032,-5.8998,-6.2584,-6.6305,-7.0026,-7.7401,-8.3084,-8.6941,-9.2827,-9.1849,-8.4291,-8.1622,-7.7915,-7.3299,-6.9841,-6.9125,-7.0215,-6.6045,-6.4632,-6.4889,-6.216,-6.1029,-6.1035,0.0,0.0,0.0,0.0,0.0,0.0,0.0,-6.1643,-6.0426,-6.0544,-6.0932,-6.1065,-5.986,-5.9804,-6.0148,-6.0114,-6.0148,-6.052,-6.2042,-6.2103,-6.3177,-6.8552,-6.8826,-6.8713,-7.1423,-6.9396,-6.73,-6.7959,-6.9975,-7.2169,-7.419,-7.9226,-8.3035,-8.3867,-8.2493,-8.1133,-8.0518,-8.0978,-8.0885,-7.9454,-7.9402,-8.0426,-8.2968,-7.9538,-7.8753,-8.2026,-7.9936,-7.8623,-7.8591,-7.7248,-7.5744,-7.4222,-7.3602,-7.2181,-7.0055,-6.9991,-6.9632,-6.8944,-6.7627,-6.7358,-6.7989,-6.733,-6.706,-6.694,-6.5562,-6.4246,-6.3079,-6.3079,-6.3079,-6.3079,-6.3079,-6.3079,-6.3169,0.0,0.0,0.0,0.0,0.0,0.0,0.0,0.0,0.0,0.0,0.0,0.0,0.0,0.0,0.0,0.0,0.0,0.0,-5.822,-5.8727,-5.8795,-5.8254,-6.1839,-6.3869,-6.3937,-7.1718,-7.9938,-8.8429,-9.0222,-8.7227,-7.9864,-7.8572,-7.5255,-7.0496,-7.0564,-6.97,-6.81,-6.6822,-6.6354,-6.638,-6.5989,-6.5021,-6.3681,0.0,0.0,0.0,0.0,0.0,0.0,0.0,0.0,0.0,-6.075,-6.1077,-6.1417,-6.0242,-6.1166,-6.2279,-6.1231,-6.2076,-6.3768,-6.5764,-6.7376,-6.9343,-7.2787,-7.1907,-7.1777,-7.6823,-7.6364,-7.5144,-7.5302,-7.6518,-7.765,-7.824,-8.0006,-8.1756,-8.2971,-8.1704,-8.0978,-8.1946,-8.1248,-8.0729,-8.0933,-8.0587,-8.0646,-8.1379,-8.1003,-8.0674,-8.0528,-8.0926,-8.0133,-7.8011,-7.6482,-7.5485,-7.5197,-7.2829,-7.1585,-7.1568,-7.0504,-6.9632,-6.9004,-6.8585,-6.8816,-6.9543,-6.9329,-6.896,-6.838,-6.601,-6.4246,-6.3079,-6.3079,-6.3079,-6.3079,-6.3079,-6.3079,-6.3228,0.0,0.0,0.0,0.0,0.0,0.0,0.0,0.0,0.0,0.0,-6.1028,-6.0655,0.0,0.0,0.0,0.0,0.0,0.0,-5.8355,-5.8761,-5.893,-5.8761,-6.1264,-6.3193,-6.4377,-7.1244,-7.7198,-8.2035,-8.4674,-8.278,-7.6657,-7.7705,-7.6402,-7.3223,-7.5389,-7.467,-7.1847,-7.0963,-6.9732,-6.8244,-6.8082,-6.7068,-6.568,0.0,0.0,0.0,0.0,0.0,0.0,0.0,0.0,0.0,-5.8744,-5.9359,-6.0192,-5.8727,-6.0136,-6.1907,-6.0723,-6.2009,-6.441,-6.7184,-6.8918,-7.1061,-7.5296,-7.6016,-7.6927,-8.0977,-8.0233,-7.8941,-7.9016,-7.9075,-7.9447,-8.0339,-8.1747,-8.312,-8.4266,-8.2992,-8.2206,-8.2882,-8.2362,-8.1918,-8.1912,-8.1807,-8.1853,-8.2243,-8.2198,-8.1894,-8.1312,-8.1933,-8.1293,-7.9182,-7.7916,-7.699,-7.6524,-7.4644,-7.368,-7.3572,-7.2333,-7.1537,-7.1137,-6.9692,-6.9297,-6.9701,-6.9497,-6.8958,-6.8245,-6.6853,-6.5325,-6.3902,-6.3902,-6.3592,-6.3079,-6.3079,-6.3228,-6.3588,0.0,0.0,-5.7881,-5.7881,0.0,0.0,0.0,0.0,0.0,0.0,-6.0588,-6.0182,0.0,0.0,0.0,0.0,0.0,0.0,0.0,-5.9099,-5.9404,-6.008,-6.0994,-6.3835,-6.8774,-7.3477,-7.4221,-7.0804,-7.7435,-7.8416,-7.4187,-7.8145,-7.96,-7.9025,-8.19,-8.1596,-7.8722,-7.6489,-7.3502,-7.0073,-6.8851,-6.7814,-6.7049,-6.847,0.0,0.0,0.0,0.0,0.0,0.0,0.0,0.0,-5.5451,-5.6451,-5.7978,-5.625,-5.7837,-6.0034,-5.9535,-6.1061,-6.37,-6.7557,-6.8858,-7.0866,-7.7281,-8.0808,-8.305,-8.4027,-8.2042,-8.0168,-8.0376,-7.9267,-7.9024,-8.1223,-8.3808,-8.5763,-8.6704,-8.5264,-8.4009,-8.3581,-8.3903,-8.3713,-8.2534,-8.302,-8.3753,-8.4567,-8.3188,-8.2655,-8.3471,-8.2813,-8.2069,-8.1291,-8.0513,-7.9425,-7.8031,-7.7729,-7.6952,-7.5617,-7.4747,-7.4403,-7.4257,-7.0923,-6.9416,-6.9483,-6.8756,-6.8084,-6.7541,-6.8012,-6.705,-6.5274,-6.5274,-6.4457,-6.3279,-6.3279,-6.367,-6.43,0.0,0.0,-5.7881,-5.7881,0.0,0.0,0.0,0.0,0.0,0.0,0.0,0.0,0.0,0.0,0.0,0.0,0.0,0.0,0.0,-5.9877,-5.9945,-6.008,-6.1975,-6.4377,-6.7252,-6.7827,-6.7692,-6.688,-7.3037,-7.4086,-7.0398,-7.5879,-7.8077,-7.7468,-7.9837,-7.96,-7.7164,-7.3737,-7.1491,-7.0195,-6.9895,-6.8928,-6.7692,-6.803,-6.7117,0.0,0.0,0.0,0.0,0.0,0.0,0.0,-5.4733,-5.5263,-5.667,-5.6913,-5.8675,-6.0795,-6.2177,-6.4174,-6.7049,-7.1954,-7.6118,-8.0063,-8.4033,-8.4852,-8.5017,-8.5748,-8.5368,-8.4789,-8.4244,-8.3022,-8.2485,-8.3725,-8.3399,-8.3698,-8.5729,-8.4531,-8.3886,-8.5123,-8.4171,-8.3588,-8.4048,-8.4224,-8.4366,-8.4587,-8.3712,-8.3308,-8.349,-8.2813,-8.2069,-8.1291,-7.9947,-7.9102,-7.8842,-7.6431,-7.539,-7.5689,-7.4259,-7.3547,-7.3547,-7.2737,-7.2698,-7.3285,-7.2019,-7.1154,-7.042,-6.8852,-6.7628,-6.6783,-6.6783,-6.5888,-6.4648,-6.4648,-6.5134,-6.5775,0.0,0.0,0.0,0.0,0.0,0.0,0.0,0.0,0.0,0.0,0.0,0.0,0.0,0.0,0.0,0.0,0.0,0.0,0.0,0.0,-6.0994,-6.1704,-6.3531,-6.4783,-6.5222,-6.4623,-6.4254,-6.4106,-6.7342,-6.8987,-6.9214,-7.4458,-7.7266,-7.8077,-8.0648,-8.0141,-7.7266,-7.4965,-7.2732,-7.0737,-7.0737,-6.9823,-6.847,-6.847,-6.732,-6.5628,-6.529,0.0,0.0,0.0,0.0,0.0,0.0,0.0,-5.5898,-5.5998,-5.7978,-6.0548,-6.2441,-6.5628,-6.9748,-7.5271,-8.0295,-8.4099,-8.4979,-8.5658,-8.6178,-8.6578,-8.6295,-8.563,-8.4544,-8.3721,-8.3546,-8.444,-8.3893,-8.3808,-8.504,-8.4442,-8.4243,-8.5108,-8.4408,-8.4076,-8.4533,-8.464,-8.4471,-8.4099,-8.3727,-8.3186,-8.2475,-8.2069,-8.1528,-8.0784,-7.9678,-7.9056,-7.9126,-7.7163,-7.6399,-7.6791,-7.5223,-7.4051,-7.3342,-7.2616,-7.2526,-7.2863,-7.1796,-7.1144,-7.0832,-7.0009,-6.9059,-6.8139,-6.7805,-6.6596,-6.5063,-6.4682,-6.5243,-6.6133,0.0,0.0,0.0,0.0,0.0,0.0,0.0,0.0,0.0,0.0,0.0,0.0,0.0,0.0,0.0,0.0,0.0,0.0,0.0,0.0,0.0,-6.3964,-6.4715,-6.4732,-6.399,-6.3007,-6.2382,-6.2166,-6.2382,-6.4597,-6.8864,-7.3662,-7.713,-7.9397,-8.1596,-8.0784,-7.7705,-7.6183,-7.3781,-7.0939,-7.0939,-7.0128,-6.8876,-6.8876,-6.7557,-6.5595,-6.485,-6.3342,-6.1215,-5.8055,0.0,0.0,0.0,0.0,-5.5495,-5.4931,-5.6871,-5.9687,-6.1969,-6.6779,-7.2456,-7.794,-8.2502,-8.5229,-8.4005,-8.5147,-8.6425,-8.6307,-8.5606,-8.4701,-8.3482,-8.3186,-8.3266,-8.4048,-8.4446,-8.464,-8.464,-8.464,-8.464,-8.464,-8.464,-8.464,-8.464,-8.4505,-8.4167,-8.3558,-8.3253,-8.2577,-8.1359,-8.1156,-8.075,-8.004,-7.9431,-7.8991,-7.872,-7.7976,-7.7536,-7.7401,-7.598,-7.4661,-7.3464,-7.2073,-7.1498,-7.1552,-7.088,-7.0596,-7.0611,-7.1094,-7.062,-6.9508,-6.9119,-6.7648,-6.5768,-6.5274,-6.5856,-6.6784,0.0,0.0,0.0,0.0,0.0,0.0,0.0,0.0,0.0,0.0,-6.0757,-6.14,0.0,0.0,0.0,0.0,0.0,0.0,0.0,0.0,0.0,-6.6263,-6.3866,-6.3505,-6.5712,-6.2776,-6.1225,-6.1168,-6.1133,-6.3275,-6.7397,-7.3787,-7.7942,-8.0006,-7.9126,-7.8111,-7.6758,-7.2124,-6.9857,-6.9383,-6.9383,-6.8876,-6.8064,-6.8064,-6.7083,-6.5595,-6.485,-6.3342,-6.1281,-5.856,-5.6974,0.0,0.0,0.0,-5.5107,-5.5452,-5.6464,-5.8375,-6.2266,-6.9045,-7.5932,-7.9972,-8.2859,-8.4891,-8.5371,-8.5155,-8.4669,-8.3925,-8.3689,-8.3482,-8.3343,-8.2758,-8.2386,-8.2491,-8.3674,-8.464,-8.464,-8.464,-8.464,-8.464,-8.464,-8.464,-8.464,-8.4031,-8.3625,-8.349,-8.2306,-8.1494,-8.1291,-8.0682,-8.0006,-7.9295,-7.916,-7.8483,-7.7198,-7.6386,-7.5676,-7.5067,-7.4187,-7.368,-7.3477,-7.2632,-7.2593,-7.313,-7.2443,-7.2131,-7.2064,-7.1526,-7.1222,-7.1074,-7.1598,-7.0534,-6.8716,-6.9286,-6.9597,-6.9648,0.0,0.0,0.0,0.0,0.0,0.0,0.0,0.0,0.0,0.0,0.0,-6.1028,0.0,0.0,0.0,-6.0148,0.0,0.0,0.0,0.0,0.0,-6.4063,-6.3395,-6.3069,-6.3205,-6.066,-5.9578,-6.0152,-6.0264,-6.3356,-6.9205,-7.2958,-7.5724,-7.7424,-7.516,-7.3835,-7.3036,-6.9443,-6.7969,-6.8025,-6.8311,-6.8233,-6.7861,-6.7455,-6.6609,-6.5595,-6.485,-6.2931,-6.0376,-5.847,-5.6997,-5.5673,-5.425,0.0,0.0,0.0,-5.6963,-5.8786,-6.5438,-7.0466,-7.5134,-8.0581,-8.234,-8.3186,-8.4776,-8.4877,-8.446,-8.4131,-8.3295,-8.2428,-8.1517,-8.1818,-8.223,-8.223,-8.3531,-8.464,-8.464,-8.464,-8.464,-8.464,-8.4268,-8.3998,-8.3998,-8.3321,-8.2712,-8.2272,-8.1663,-8.1088,-8.0716,-8.0378,-7.987,-7.9126,-7.8686,-7.7773,-7.6251,-7.5473,-7.4525,-7.3375,-7.3037,-7.2665,-7.2259,-7.1921,-7.2191,-7.2834,-7.209,-7.1785,-7.1751,-7.1447,-7.1312,-7.1289,-7.1205,-7.0358,-6.9187,-6.9169,-6.9368,-6.9613,0.0,0.0,0.0,0.0,0.0,0.0,0.0,0.0,0.0,0.0,0.0,0.0,0.0,0.0,0.0,0.0,-6.0419,0.0,0.0,0.0,0.0,-6.2633,-6.2729,-6.21,-6.0683,-5.9034,-5.8321,-5.8582,-5.964,-6.3756,-7.0713,-7.1916,-7.3964,-7.656,-7.3709,-7.1862,-7.0674,-6.8405,-6.7805,-6.8276,-6.7621,-6.7455,-6.7557,-6.7015,-6.6237,-6.5358,-6.5019,-6.2732,-5.969,-5.8473,-5.7052,-5.5586,-5.5005,-5.5218,0.0,0.0,0.0,-5.9183,-6.6148,-6.9435,-7.2229,-7.79,-8.0073,-8.1206,-8.2831,-8.3819,-8.4336,-8.4336,-8.301,-8.1525,-8.0103,-8.0964,-8.1868,-8.1703,-8.2996,-8.4065,-8.4065,-8.4065,-8.4065,-8.4065,-8.3558,-8.3219,-8.3219,-8.2543,-8.19,-8.1325,-8.1122,-8.0784,-8.0242,-8.0209,-7.9769,-7.8855,-7.828,-7.7164,-7.5439,-7.4492,-7.3409,-7.2124,-7.2124,-7.1853,-7.1312,-7.1312,-7.1616,-7.209,-7.1548,-7.1312,-7.1312,-7.1312,-7.1312,-7.1289,-7.089,-7.031,-6.9684,-6.9401,-6.9452,-6.976,0.0,0.0,0.0,0.0,0.0,0.0,0.0,0.0,0.0,0.0,0.0,0.0,-6.025,-6.0114,-5.9539,-5.8118,-5.9336,-6.1091,-6.3282,-6.3064,0.0,-6.4409,-6.1611,0.0,-5.9946,-5.9183,-5.786,-5.6093,-5.9283,-6.4109,-7.0407,-7.0829,-7.4284,-8.0098,-7.7174,-7.4473,-7.1871,-6.9621,-6.9845,-7.1305,-6.7389,-6.6237,-6.688,-6.6812,-6.5933,-6.4749,-6.5392,-6.3163,-5.9754,-5.9004,-5.7167,-5.513,-5.4441,-5.497,-5.5984,0.0,0.0,0.0,-6.1471,-6.4344,-6.7301,-7.0202,-7.5104,-7.9297,-7.9521,-8.1632,-8.3558,-8.3558,-8.2297,-8.0922,-8.0119,-8.0603,-8.0946,-8.0231,-8.1458,-8.2509,-8.2509,-8.2509,-8.2509,-8.2509,-8.2509,-8.2475,-8.2475,-8.1799,-8.1325,-8.1291,-8.0648,-8.0242,-8.0209,-8.0209,-7.9532,-7.8077,-7.801,-7.6927,-7.4695,-7.324,-7.2124,-7.1379,-7.1379,-7.1345,-7.1312,-7.1312,-7.1345,-7.1379,-7.1345,-7.1312,-7.1312,-7.1312,-7.1312,-7.1379,-7.1999,-7.1864,-7.1244,-7.1941,-7.1784,-7.1323,0.0,0.0,0.0,0.0,0.0,0.0,0.0,0.0,0.0,0.0,0.0,0.0,0.0,-5.9404,-5.9201,-5.866,-5.9734,-6.0605,-6.1099,-6.1418,0.0,-6.0953,-5.9918,-5.9174,-5.8687,-5.7651,-5.7115,-5.7042,-5.8268,-6.2438,-6.9274,-7.0331,-7.2584,-7.5613,-7.3688,-7.1782,-7.0002,-6.7906,-6.7239,-6.7504,-6.7235,-6.7286,-6.7387,-6.644,-6.5764,-6.5222,-6.4546,-6.269,-6.055,-6.065,-5.9359,-5.7857,-5.8776,-5.8959,-5.8777,-5.7962,-5.7878,-5.8604,-6.1567,-6.321,-6.5149,-6.9787,-7.2881,-7.5161,-7.6658,-7.9264,-8.1393,-8.1393,-8.1686,-8.1551,-8.0345,-8.0297,-8.0297,-8.0033,-8.1357,-8.2238,-8.1765,-8.2103,-8.2069,-8.1088,-8.1393,-8.1494,-8.1021,-8.031,-8.0073,-8.0547,-7.9904,-7.9701,-8.0175,-7.9769,-7.9025,-7.801,-7.7029,-7.5439,-7.3206,-7.2191,-7.1582,-7.1312,-7.1312,-7.1312,-7.1312,-7.1312,-7.1312,-7.1312,-7.1312,-7.1312,-7.1312,-7.1312,-7.1312,-7.1345,-7.1616,-7.1819,-7.2056,-7.2293,-7.2529,-7.2732,0.0,0.0,0.0,-5.5344,0.0,-5.7171,-5.7171,-5.778,-5.8355,-5.8592,0.0,0.0,0.0,0.0,-5.8849,-5.8475,-5.9311,-5.9595,-5.8838,-5.9287,-5.9274,-5.8545,-5.8624,-5.8371,-5.7704,-5.7266,-5.7306,-5.7712,-5.8602,-6.2358,-6.8796,-6.9911,-7.1918,-7.4375,-7.1475,-7.0421,-7.0641,-6.9649,-6.8711,-6.7799,-6.7623,-6.7285,-6.6877,-6.6801,-6.5867,-6.4696,-6.4685,-6.2874,-6.0598,-6.0734,-5.9728,-5.8646,-5.9805,-6.0251,-6.012,-5.9141,-5.8292,-5.8285,-6.0803,-6.148,-6.2682,-6.7637,-6.9681,-7.1255,-7.4004,-7.6365,-7.8179,-7.8923,-8.0073,-8.0615,-7.9634,-7.9206,-7.9023,-7.9289,-8.0233,-8.0682,-7.9904,-8.0242,-8.0209,-7.9194,-7.9498,-7.9735,-7.9498,-7.9025,-7.8923,-7.9431,-7.9025,-7.8957,-7.9431,-7.8991,-7.828,-7.7232,-7.5743,-7.4119,-7.2428,-7.1684,-7.1312,-7.1312,-7.1312,-7.1312,-7.1312,-7.1312,-7.1312,-7.1312,-7.1312,-7.1312,-7.1312,-7.1312,-7.1312,-7.1312,-7.1312,-7.1751,-7.2394,-7.2394,-7.3003,-7.3883,-5.3518,-5.4093,-5.46,-5.46,-5.5243,-5.5715,-5.5715,-5.6359,-5.7103,-5.7814,0.0,0.0,0.0,0.0,0.0,-5.7648,-5.8195,-5.8076,-5.6884,-5.6755,-5.7032,-5.7737,0.0,0.0,-5.7008,-5.8131,-5.8371,-5.7744,-6.0326,-6.4095,-6.8968,-6.9391,-7.2317,-7.6965,-7.1528,-7.0908,-7.4066,-7.4868,-7.4464,-7.2787,-6.8552,-6.613,-6.5294,-6.7753,-6.6242,-6.3226,-6.5886,-6.3999,-6.014,-5.9377,-5.839,-5.7401,-5.7311,-5.8424,-5.9777,-5.9836,-5.8876,-5.7904,0.0,0.0,0.0,-6.3228,-6.5375,-6.7651,-7.1488,-7.2864,-7.3984,-7.6251,-7.7333,-7.7874,-7.7874,-7.7299,-7.7063,-7.7739,-7.7874,-7.7671,-7.6927,-7.686,-7.686,-7.6792,-7.6826,-7.713,-7.7807,-7.7908,-7.7942,-7.7942,-7.7942,-7.7942,-7.7976,-7.7942,-7.7198,-7.5642,-7.4187,-7.3105,-7.236,-7.1684,-7.1312,-7.1345,-7.1345,-7.1345,-7.1345,-7.1345,-7.1345,-7.1312,-7.1312,-7.1312,-7.1312,-7.1312,-7.1312,-7.1312,-7.1345,-7.1785,-7.2428,-7.2462,-7.3409,-7.4796,-5.3518,-5.4093,-5.46,-5.46,-5.5649,-5.6494,-5.6494,-5.7137,-5.7645,0.0,0.0,0.0,-5.9032,-6.096,-6.1925,-6.1077,-6.0886,-5.9638,-5.6926,-5.591,-5.576,-5.6463,-5.567,-5.577,-5.696,-5.6445,-5.6946,-5.848,-5.8707,-6.1238,-6.5865,-6.6479,-6.8107,-7.0518,-7.2232,-7.2302,-7.1079,-6.995,-7.0474,-7.1691,-6.8913,-6.8144,-6.8569,-6.6095,-6.5789,-6.6483,-6.5614,-6.6263,-6.7329,-6.5902,-6.4988,-6.4094,-6.1909,-5.9955,-5.8496,-5.8544,-5.7621,-5.7082,-5.9058,0.0,0.0,0.0,0.0,0.0,-6.6249,-6.8186,-7.0094,-7.2394,-7.3849,-7.4897,-7.5439,-7.5371,-7.5134,-7.4796,-7.5642,-7.6082,-7.5337,-7.5709,-7.5642,-7.4559,-7.5371,-7.5912,-7.5574,-7.6014,-7.6589,-7.7164,-7.6657,-7.6826,-7.7942,-7.6927,-7.5405,-7.3375,-7.2902,-7.236,-7.1616,-7.1413,-7.1582,-7.209,-7.209,-7.209,-7.209,-7.209,-7.1819,-7.1312,-7.1312,-7.1312,-7.1312,-7.1312,-7.1312,-7.1379,-7.1887,-7.2563,-7.324,-7.3781,-7.4965,-7.6284,-5.3518,-5.3856,-5.4228,-5.4532,-5.5818,-5.6799,-5.6799,-5.7949,-5.8592,0.0,0.0,0.0,-5.9945,-6.2922,-6.391,-6.1448,-6.1235,-5.9876,-5.6467,-5.5632,-5.5448,-5.5937,-5.5319,-5.5488,-5.6629,-5.5702,-5.6378,-5.8812,-5.8352,-6.0075,-6.37,-6.4444,-6.5337,-6.6522,-6.9294,-6.9983,-6.9031,-6.7439,-6.8201,-7.0485,-6.968,-6.9349,-6.9262,-6.8039,-6.7949,-6.8441,-6.8382,-6.8829,-6.9305,-6.8432,-6.7007,-6.5214,-6.3123,-6.0983,-5.9272,-5.9548,-5.8517,-5.7637,-5.9111,-5.8919,-5.9283,-6.2867,0.0,0.0,-6.484,-6.5561,-6.617,-6.8098,-6.9417,-7.0567,-7.1616,-7.1819,-7.1887,-7.209,-7.2834,-7.3477,-7.368,-7.4052,-7.3984,-7.3138,-7.3781,-7.4289,-7.4153,-7.4525,-7.4965,-7.5439,-7.5033,-7.5168,-7.6048,-7.527,-7.4052,-7.2462,-7.2394,-7.2191,-7.1751,-7.1751,-7.2124,-7.2868,-7.2868,-7.2868,-7.2868,-7.2868,-7.2631,-7.2225,-7.2225,-7.2225,-7.2225,-7.2225,-7.2056,-7.1819,-7.2225,-7.3037,-7.4052,-7.4796,-7.6048,-7.7401,0.0,-5.3518,-5.3754,-5.4566,-5.5953,-5.7002,-5.7273,-5.8964,-5.9844,0.0,-5.9844,-6.1129,-6.2178,-6.5053,-6.5152,-6.0796,-6.0846,-5.9694,-5.624,-5.6027,-5.6022,-5.6014,-5.6092,-5.6138,-5.6188,-5.5598,-5.6409,-5.8684,-5.878,-5.9967,-6.2279,-6.3024,-6.3734,-6.437,-6.4617,-6.5824,-6.7496,-6.6739,-6.7492,-6.9262,-7.0352,-6.9905,-6.8851,-7.1474,-7.1193,-6.9838,-7.2244,-7.1383,-6.9031,-6.8873,-6.6476,-6.3357,-6.2426,-6.1483,-6.0825,-6.1417,-6.0268,-5.8831,-5.9043,-5.9024,-5.9806,-6.35,-6.2444,0.0,-6.564,-6.4478,-6.2888,-6.4208,-6.4986,-6.5865,-6.7286,-6.7523,-6.7996,-6.9451,-6.9755,-7.0398,-7.2056,-7.2293,-7.2293,-7.2293,-7.2293,-7.2529,-7.3172,-7.3308,-7.3375,-7.3375,-7.3443,-7.3409,-7.324,-7.3308,-7.3037,-7.2293,-7.236,-7.2394,-7.2394,-7.2462,-7.2868,-7.3612,-7.3612,-7.3612,-7.3612,-7.3612,-7.3578,-7.3477,-7.3477,-7.3477,-7.3477,-7.3477,-7.3105,-7.2529,-7.2597,-7.3443,-7.4695,-7.5439,-7.6623,-7.7976,-5.3518,-5.3518,-5.3923,-5.5277,-5.6697,-5.8287,-6.0148,-6.0791,-6.1603,-6.3091,-6.4038,-6.5561,-6.8166,-6.7996,-6.7066,-6.5505,-6.4428,-6.213,-5.8216,-5.7937,-5.7592,-5.6807,-5.6774,-5.6629,-5.6218,-5.6047,-5.6654,-5.7904,-5.8524,-5.9738,-6.1535,-6.2279,-6.2685,-6.2888,-6.4098,-6.4881,-6.5384,-6.7577,-6.8741,-6.9099,-6.8807,-6.9863,-7.1464,-7.0221,-7.0855,-7.2398,-7.1637,-7.3229,-7.516,-7.188,-6.8749,-6.5919,-6.3611,-6.1283,-5.9469,-5.9637,-5.8964,-5.8624,-6.0188,-5.9857,-6.0102,-6.4479,-6.358,0.0,-6.4531,-6.414,-6.3396,-6.3666,-6.3835,-6.4208,-6.5087,-6.5256,-6.5527,-6.6406,-6.7083,-6.8436,-7.1142,-7.1515,-7.1515,-7.1515,-7.1515,-7.1582,-7.1718,-7.2259,-7.2597,-7.2597,-7.3138,-7.2969,-7.1785,-7.2293,-7.2293,-7.1548,-7.209,-7.2394,-7.2394,-7.2969,-7.3646,-7.439,-7.439,-7.439,-7.439,-7.439,-7.4052,-7.3477,-7.3477,-7.3477,-7.3477,-7.3477,-7.3409,-7.3341,-7.395,-7.4356,-7.4695,-7.5439,-7.6284,-7.7232,-5.3518,-5.3518,-5.4194,-5.6427,-5.8017,-5.9776,-6.2042,-6.3328,-6.4309,-6.5053,-6.7083,-6.8774,-6.9553,-6.962,-6.8707,-6.644,-6.4918,-6.2892,-6.009,-6.0217,-6.0117,-5.9306,-5.8776,-5.8338,-5.8166,-5.6545,-5.6482,-5.8147,-5.8224,-5.9314,-6.1298,-6.167,-6.1839,-6.1941,-6.3768,-6.4016,-6.3233,-6.5556,-6.6779,-6.7316,-6.9645,-7.1452,-7.268,-7.2167,-7.2822,-7.4089,-7.4058,-7.5302,-7.621,-7.1722,-6.9215,-6.7483,-6.4178,-6.2151,-6.1014,-6.0685,-6.0116,-5.9831,-6.0805,-6.0572,-6.0772,-6.3729,-6.3182,0.0,0.0,-6.3266,-6.2423,-6.2431,-6.1806,-6.1501,-6.2212,-6.2347,-6.2854,-6.4377,-6.4918,-6.6068,-6.8707,-6.9722,-7.0195,-7.0195,-7.0195,-7.0364,-7.0737,-7.1075,-7.1447,-7.1819,-7.2191,-7.209,-7.1345,-7.165,-7.1853,-7.1853,-7.2225,-7.2766,-7.351,-7.3849,-7.4424,-7.5168,-7.5168,-7.5168,-7.5168,-7.5168,-7.4965,-7.4627,-7.4999,-7.5202,-7.5202,-7.5202,-7.5202,-7.5168,-7.4762,-7.5067,-7.5845,-7.6589,-7.7333,-7.8111,-5.3484,-5.3518,-5.4397,-5.7205,-5.9032,-6.0926,-6.3362,-6.5358,-6.6542,-6.6373,-6.9113,-7.0804,-7.0026,-7.05,-6.9891,-6.7421,-6.4952,-6.3328,-6.2821,-6.255,-6.2173,-6.164,-6.076,-6.0044,-5.9489,-5.7131,-5.6726,-5.8467,-5.8318,-5.9296,-6.1298,-6.1467,-6.1501,-6.1603,-6.3531,-6.3458,-6.1938,-6.362,-6.4801,-6.5879,-7.0719,-7.2452,-7.2291,-7.3738,-7.43,-7.4534,-7.6248,-7.6461,-7.5314,-7.0893,-6.9213,-6.8345,-6.4635,-6.3378,-6.3109,-6.2331,-6.1822,-6.1463,-6.1343,-6.1583,-6.21,-6.3133,-6.3269,-6.3256,0.0,0.0,0.0,-6.1656,-6.0632,-5.9979,-6.0283,-6.0216,-6.0757,-6.2753,-6.3193,-6.3903,-6.5696,-6.7151,-6.8199,-6.8605,-6.8538,-6.8774,-6.9654,-6.9891,-7.0297,-7.1041,-7.1109,-7.1142,-7.1312,-7.1312,-7.1582,-7.2157,-7.2462,-7.3172,-7.439,-7.4695,-7.51,-7.5709,-7.5709,-7.5709,-7.5709,-7.5709,-7.5777,-7.598,-7.6623,-7.6893,-7.6927,-7.7063,-7.7029,-7.6758,-7.5371,-7.5574,-7.6758,-7.7502,-7.8179,-7.8822,-5.3382,-5.3518,-5.4228,-5.6528,-5.8693,-6.1095,-6.4038,-6.5222,-6.6508,-6.847,-6.9654,-7.1007,-7.28,-7.0804,-7.0229,-7.2394,-6.7049,-6.485,-6.7996,-6.4546,-6.2173,-6.164,-6.1652,-6.0266,-5.7236,-5.8017,-5.8244,-5.7808,-5.9479,-6.0646,-6.1332,-6.1975,-6.2279,-6.2313,-6.3226,-6.3216,-6.2706,-6.4806,-6.6112,-6.7034,-7.0026,-7.019,-6.8958,-7.1322,-7.2235,-7.2511,-7.4481,-7.512,-7.4571,-7.1673,-6.9931,-6.8525,-6.5712,-6.4395,-6.3647,-6.245,-6.245,-6.272,-6.2151,-6.3258,-6.4627,-6.482,-6.6171,-6.6938,-6.5185,0.0,-6.5614,-6.2892,0.0,-6.2618,-6.14,0.0,0.0,-6.14,-6.211,-6.2618,-6.2854,-6.3632,-6.4884,-6.6846,-6.6474,-6.6609,-6.803,-6.8808,-6.9519,-7.0263,-7.0297,-7.0601,-7.1278,-7.1312,-7.1345,-7.1447,-7.2699,-7.3443,-7.3612,-7.4931,-7.5608,-7.5709,-7.5709,-7.5709,-7.5709,-7.5709,-7.6082,-7.6758,-7.686,-7.6893,-7.6961,-7.7604,-7.7468,-7.6826,-7.5912,-7.5676,-7.5946,-7.6724,-7.7063,-7.7367,-5.345,-5.3518,-5.4194,-5.6427,-5.7915,-5.9979,-6.3429,-6.6812,-6.9282,-7.0263,-7.1751,-7.3274,-7.4627,-7.1734,-7.0543,-7.2687,-6.8261,-6.5855,-6.7041,-6.5764,-6.4481,-6.3507,-6.3191,-6.2026,-5.9854,-5.9596,-5.9283,-5.8805,-5.9598,-6.0436,-6.1298,-6.1603,-6.1587,-6.1317,-6.2805,-6.3006,-6.234,-6.3588,-6.4555,-6.5458,-6.6912,-6.7272,-6.7394,-7.1929,-7.3612,-7.3732,-7.4569,-7.4869,-7.454,-7.2235,-7.062,-6.9303,-6.7807,-6.5802,-6.4036,-6.4306,-6.3767,-6.3019,-6.275,-6.4792,-6.6549,-6.444,-6.6716,-6.8617,-6.5156,-6.509,-6.5287,-6.3623,0.0,0.0,0.0,0.0,0.0,0.0,-6.0371,-6.0757,-6.1637,-6.1264,-6.1738,-6.3971,-6.4343,-6.5189,-6.7083,-6.7963,-6.891,-7.0094,-7.0195,-7.05,-7.1278,-7.1312,-7.1515,-7.1921,-7.2935,-7.3713,-7.4119,-7.5168,-7.5709,-7.5709,-7.6183,-7.6386,-7.642,-7.6826,-7.7198,-7.7536,-7.801,-7.8179,-7.8213,-7.8517,-7.845,-7.8111,-7.7333,-7.7299,-7.7705,-7.8044,-7.845,-7.8957,-5.345,-5.3518,-5.4126,-5.6156,-5.7273,-5.9167,-6.2956,-6.6914,-6.9755,-7.0601,-7.2124,-7.3849,-7.5811,-7.3384,-7.2589,-7.4938,-7.1465,-6.8944,-6.8494,-6.7627,-6.6454,-6.4818,-6.4008,-6.2956,-6.1433,-6.0725,-6.0174,-5.9653,-6.0092,-6.0752,-6.1603,-6.1603,-6.1373,-6.1069,-6.3168,-6.3729,-6.3063,-6.406,-6.5092,-6.6115,-6.6642,-6.7508,-6.8854,-7.2624,-7.439,-7.4869,-7.4869,-7.4869,-7.4599,-7.2774,-7.1427,-7.035,-6.9542,-6.7597,-6.5682,-6.5951,-6.5383,-6.4455,-6.3378,-6.569,-6.7635,-6.4452,-6.6772,-6.8961,-6.5625,-6.5353,-6.556,-6.4615,-6.262,0.0,0.0,0.0,-5.9738,-6.0506,0.0,-6.0486,-6.1197,-6.0351,-6.025,-6.1907,-6.2922,-6.414,-6.5764,-6.6576,-6.7624,-6.9147,-6.9451,-6.9992,-7.0973,-7.121,-7.1548,-7.209,-7.28,-7.3544,-7.4289,-7.5033,-7.5608,-7.6048,-7.6623,-7.6995,-7.7198,-7.7739,-7.8111,-7.8314,-7.8889,-7.9126,-7.9126,-7.9329,-7.9295,-7.9092,-7.872,-7.8923,-7.9397,-7.9194,-7.9566,-8.031,-5.3348,-5.3518,-5.3991,-5.548,-5.6934,-5.9167,-6.2956,-6.4241,-6.5865,-6.8808,-6.9248,-7.121,-7.6318,-7.6034,-7.7284,-8.1697,-7.7994,-7.5391,-7.5371,-7.0809,-6.7019,-6.4694,-6.3565,-6.2034,-5.9922,-6.104,-6.104,-5.9823,-6.1451,-6.2347,-6.2347,-6.2347,-6.2347,-6.2443,-6.4647,-6.5737,-6.5982,-6.7971,-6.9674,-7.1065,-7.1507,-7.2834,-7.439,-7.2654,-7.3193,-7.4869,-7.4869,-7.4869,-7.4659,-7.3343,-7.2415,-7.1607,-7.035,-6.9871,-6.9303,-6.6759,-6.7328,-6.7986,-6.4126,-6.5503,-6.7516,-6.5534,-6.6635,-6.799,-6.728,-6.7624,-6.772,-6.6313,-6.5336,-6.4689,-6.4669,-6.3528,0.0,0.0,0.0,0.0,0.0,-6.1264,-6.1264,-6.1332,-6.2618,-6.3531,-6.3632,-6.4275,-6.5324,-6.6812,-6.7557,-6.8639,-7.0128,-7.0906,-7.1312,-7.1345,-7.2056,-7.28,-7.351,-7.4289,-7.5405,-7.686,-7.6893,-7.7266,-7.7942,-7.7976,-7.8382,-7.9092,-7.9092,-7.9126,-7.916,-7.987,-7.9735,-7.9194,-7.987,-8.0141,-8.0073,-7.9363,-7.9566,-8.031,-5.4059,-5.4228,-5.4397,-5.4871,-5.5784,-5.7881,-6.211,-6.4647,-6.7861,-7.2834,-7.4356,-7.7536,-8.4234,-8.2958,-8.2356,-8.4148,-8.072,-7.7773,-7.6239,-7.189,-6.9278,-6.9121,-6.5993,-6.3537,-6.199,-6.2273,-6.1774,-6.0416,-6.1382,-6.2063,-6.2381,-6.2381,-6.2186,-6.1958,-6.405,-6.5904,-6.7537,-6.919,-7.0683,-7.2033,-7.1919,-7.3373,-7.5437,-7.43,-7.43,-7.4869,-7.4869,-7.4869,-7.4809,-7.436,-7.3193,-7.1966,-7.2415,-7.1098,-6.9243,-6.8764,-6.8794,-6.8615,-6.6819,-6.9213,-7.12,-6.6816,-6.8674,-7.0406,-6.5615,-6.7197,-6.8691,-6.493,-6.5806,-6.6173,-6.2364,-6.2667,0.0,0.0,0.0,0.0,0.0,-6.1298,-6.167,-6.2651,-6.2347,-6.2448,-6.3429,-6.3734,-6.4478,-6.5967,-6.6779,-6.7861,-6.9383,-7.0161,-7.0804,-7.1312,-7.2022,-7.2732,-7.3477,-7.4221,-7.5371,-7.6893,-7.7401,-7.801,-7.8754,-7.9228,-7.96,-7.9837,-7.9837,-7.9837,-7.987,-8.0107,-8.004,-7.9904,-8.0648,-8.0919,-8.0885,-8.0648,-8.0716,-8.1088,-5.416,-5.4397,-5.4769,-5.5277,-5.6224,-5.7949,-6.1095,-6.5256,-6.9789,-7.4661,-7.801,-8.2374,-8.8767,-8.7974,-8.7229,-8.7785,-8.5056,-8.1517,-7.727,-7.4221,-7.2133,-7.1055,-6.7809,-6.5584,-6.4678,-6.3704,-6.2531,-6.1119,-6.1629,-6.2215,-6.2787,-6.2516,-6.2226,-6.2,-6.4319,-6.669,-6.9018,-7.1259,-7.3129,-7.4678,-7.4033,-7.4886,-7.6297,-7.5292,-7.5018,-7.5198,-7.4958,-7.4869,-7.4869,-7.4869,-7.4031,-7.3103,-7.3971,-7.2624,-7.0739,-7.0679,-7.053,-7.0081,-6.8704,-7.0728,-7.2301,-6.8698,-7.0224,-7.1452,-6.6971,-6.804,-6.9011,-6.5612,-6.5788,-6.5808,-6.3349,-6.344,0.0,0.0,0.0,0.0,0.0,-6.2313,-6.2719,-6.3429,-6.2448,-6.2178,-6.3396,-6.326,-6.3632,-6.4816,-6.5831,-6.7083,-6.8605,-6.962,-7.0534,-7.1312,-7.1751,-7.2496,-7.3477,-7.395,-7.5236,-7.7299,-7.7773,-7.8517,-7.9532,-7.9972,-8.0209,-8.0209,-8.0209,-8.0209,-8.0209,-8.0479,-8.0581,-8.0648,-8.1393,-8.1697,-8.1697,-8.1697,-8.1866,-8.2238,-5.3687,-5.416,-5.5141,-5.6562,-5.8017,-5.9268,-6.008,-6.5933,-7.1379,-7.4525,-8.0141,-8.5554,-9.0154,-9.1237,-9.1856,-9.2507,-9.081,-8.6552,-7.9046,-7.7765,-7.5415,-7.1061,-6.9219,-6.8045,-6.7663,-6.5258,-6.3402,-6.2093,-6.2288,-6.2828,-6.3565,-6.2753,-6.2381,-6.2516,-6.5493,-6.8064,-7.0377,-7.404,-7.6906,-7.89,-7.7777,-7.7321,-7.7157,-7.5489,-7.5288,-7.5766,-7.5108,-7.4869,-7.4839,-7.4869,-7.4869,-7.4869,-7.4869,-7.445,-7.3672,-7.2355,-7.2475,-7.2445,-6.9931,-7.0141,-7.1062,-7.1077,-7.1071,-7.1027,-7.0996,-7.013,-6.9147,-6.8259,-6.5742,-6.4527,-6.7281,-6.581,-6.4704,0.0,0.0,0.0,0.0,-6.4174,-6.4343,-6.37,-6.2922,-6.2719,-6.3463,-6.2821,-6.2685,-6.3396,-6.4816,-6.6271,-6.776,-6.9316,-7.05,-7.1278,-7.1312,-7.2022,-7.3477,-7.351,-7.5033,-7.7976,-7.801,-7.8788,-8.0209,-8.0209,-8.0209,-8.0242,-8.0242,-8.0276,-8.0344,-8.1054,-8.1325,-8.1426,-8.2171,-8.2475,-8.2509,-8.2475,-8.2915,-8.3659,-5.4329,-5.5344,-5.6359,-5.6731,-5.8017,-5.9641,-6.1501,-6.7049,-7.3071,-7.8822,-8.4776,-9.0628,-9.621,-9.6514,-9.5789,-9.4665,-9.1893,-8.8663,-8.4923,-8.0296,-7.8067,-7.8876,-7.4458,-7.1775,-7.1195,-6.7665,-6.5543,-6.4903,-6.2346,-6.2245,-6.4309,-6.299,-6.2381,-6.2516,-6.5493,-6.776,-6.9722,-7.4517,-7.8088,-8.0368,-7.8155,-7.76,-7.7772,-7.567,-7.4988,-7.5108,-7.4929,-7.4569,-7.421,-7.4719,-7.4869,-7.4869,-7.4869,-7.4749,-7.445,-7.3612,-7.3851,-7.4121,-7.2954,-7.3223,-7.3537,-7.2068,-7.165,-7.1295,-6.9853,-7.1322,-7.2089,-6.8698,-6.9924,-7.0203,-6.5845,-6.5674,-6.5696,0.0,0.0,0.0,0.0,-6.4478,-6.4715,-6.5087,-6.4005,-6.3294,-6.3497,-6.2821,-6.2482,-6.2651,-6.4038,-6.5527,-6.7015,-6.8538,-6.9992,-7.1278,-7.1312,-7.2022,-7.3477,-7.4052,-7.5574,-7.801,-7.8551,-7.9295,-8.0209,-8.0209,-8.0479,-8.1021,-8.1021,-8.1325,-8.1866,-8.2035,-8.2137,-8.2205,-8.2915,-8.3558,-8.3998,-8.3422,-8.3693,-8.437,-5.5141,-5.6799,-5.8355,-5.8727,-6.1603,-6.4106,-6.4715,-6.8774,-7.4187,-8.0885,-8.6974,-9.2083,-9.577,-9.7563,-9.7934,-9.6612,-9.3795,-9.0942,-8.8149,-8.4492,-8.2454,-8.2669,-7.9176,-7.6627,-7.5541,-7.106,-6.8288,-6.7441,-6.3782,-6.2892,-6.458,-6.3091,-6.2381,-6.2516,-6.5155,-6.7151,-6.8977,-7.4864,-7.9044,-8.1414,-7.8882,-7.8125,0.0,-7.5826,-7.433,-7.3672,-7.4569,-7.445,-7.4001,-7.4659,-7.4869,-7.4869,-7.4869,-7.4869,-7.4809,-7.442,-7.4569,-7.4809,-7.442,-7.4599,-7.4599,-7.3462,-7.3193,-7.2744,-7.1098,-7.2055,-7.2533,-6.9856,-7.0312,-7.0224,-6.6866,-6.6164,-6.5586,0.0,0.0,0.0,-6.511,-6.543,-6.5914,-6.6601,-6.5662,-6.4952,-6.4952,-6.37,-6.3024,-6.3328,-6.441,-6.573,-6.7218,-6.8436,-6.9789,-7.1278,-7.2259,-7.3003,-7.3477,-7.5202,-7.6724,-7.801,-7.8754,-7.9498,-8.0209,-8.0209,-8.0412,-8.0818,-8.0818,-8.1054,-8.1494,-8.2137,-8.2408,-8.2509,-8.3592,-8.4234,-8.4573,-8.4133,-8.4268,-8.464,-5.6021,-5.8152,-6.0283,-6.0892,-6.5933,-6.9688,-6.9147,-7.1954,-7.6284,-8.2205,-8.8192,-9.215,-9.2793,-9.6413,-9.8544,-9.7901,-9.5589,-9.2933,-8.9977,-8.8667,-8.6953,-8.4606,-8.3188,-8.1705,-8.0124,-7.4843,-7.137,-6.9907,-6.5745,-6.4075,-6.4715,-6.3125,-6.2381,-6.2482,-6.4613,-6.6542,-6.8605,-7.4762,-7.9126,-8.1641,-7.9347,-7.8619,-7.8477,-7.5922,-7.3732,-7.2385,-7.421,-7.439,-7.3881,-7.4629,-7.4869,-7.4869,-7.4869,-7.4869,-7.4869,-7.4869,-7.4869,-7.4869,-7.4869,-7.4869,-7.4869,-7.4869,-7.4869,-7.4569,-7.3432,-7.2624,-7.1966,-7.1308,-6.9213,-6.7788,-6.8682,-6.6658,-6.4853,0.0,-6.4984,-6.5368,-6.5988,-6.6773,-6.7476,-6.7969,-6.7421,0.0,-6.6948,-6.4952,-6.3903,-6.4546,-6.5256,-6.6305,-6.7692,-6.8605,-6.9789,-7.1278,-7.3274,-7.4187,-7.395,-7.6521,-7.7976,-7.828,-7.9058,-7.9667,-8.0209,-8.031,-8.0344,-8.0344,-8.0445,-8.0547,-8.075,-8.2137,-8.2712,-8.2847,-8.4133,-8.464,-8.464,-8.464,-8.464,-8.464,-5.6765,-5.849,-5.9945,-5.9505,-6.4343,-6.9891,-7.4593,-7.9938,-8.4065,-8.5892,-9.1305,-9.506,-9.5195,-9.6447,-9.7225,-9.7089,-9.5289,-9.3661,-9.2506,-8.8869,-8.7276,-8.8626,-8.5886,-8.4144,-8.3689,-7.8112,-7.4385,-7.2725,-6.67,-6.4351,-6.5459,-6.3362,-6.2381,-6.2448,-6.4072,-6.6643,-6.9992,-7.3003,-7.6014,-7.8707,-7.7958,-7.8052,-7.8324,-7.5825,-7.433,-7.3672,-7.4569,-7.4091,-7.3283,-7.448,-7.4869,-7.4869,-7.4869,-7.4869,-7.4869,-7.4869,-7.4869,-7.4869,-7.4869,-7.4869,-7.4869,-7.4869,-7.4869,-7.4809,-7.4569,-7.4031,-7.3343,-7.2684,-7.1308,-6.9606,-6.7726,-6.5609,-6.4181,-6.4146,-6.5536,-6.6649,-6.6785,-6.7902,-6.8793,-6.8866,-6.8199,-6.7692,-6.7692,-6.5696,-6.4478,-6.458,-6.5256,-6.6068,-6.6948,-6.8335,-6.9789,-7.1278,-7.2293,-7.3916,-7.6284,-7.6826,-7.801,-7.9803,-8.0547,-8.0648,-8.0209,-8.0818,-8.1088,-8.1122,-8.1765,-8.2374,-8.2983,-8.3862,-8.4234,-8.4268,-8.4539,-8.464,-8.464,-8.464,-8.464,-8.464,-5.9776,-6.1163,-6.2956,-6.4546,-6.9417,-7.4762,-7.96,-8.4742,-8.7955,-8.7516,-9.029,-9.2319,-9.2319,-9.4721,-9.6311,-9.6311,-9.5508,-9.4871,-9.4503,-9.1239,-8.9837,-9.1074,-8.8316,-8.6455,-8.5781,-8.0775,-7.6689,-7.3584,-6.8452,-6.532,-6.4109,-6.3316,-6.2753,-6.2448,-6.3937,-6.6474,-6.9755,-7.1988,-7.4661,-7.7392,-7.7082,-7.7189,-7.7429,-7.5582,-7.3821,-7.2565,-7.427,-7.3791,-7.2624,-7.43,-7.4869,-7.4869,-7.4869,-7.4869,-7.4869,-7.4869,-7.4869,-7.4869,-7.4869,-7.4869,-7.4869,-7.4869,-7.4869,-7.4779,-7.445,-7.4121,-7.3612,-7.2595,-7.1607,-7.0111,-6.7478,-6.5374,-6.3984,-6.3984,-6.5142,-6.6273,-6.702,-6.8291,-6.941,-7.014,-6.9553,-6.8944,-6.8571,-6.7557,-6.6609,-6.5797,-6.6406,-6.6981,-6.7354,-6.847,-6.9789,-7.1278,-7.3138,-7.4796,-7.6251,-7.7841,-7.8957,-7.9634,-8.0378,-8.075,-8.0784,-8.1122,-8.1494,-8.19,-8.2272,-8.2611,-8.2983,-8.3727,-8.4268,-8.464,-8.464,-8.464,-8.464,-8.464,-8.464,-8.464,-6.3497,-6.4749,-6.6914,-7.05,-7.5337,-7.9769,-8.3016,-8.7313,-8.985,-8.8835,-8.9207,-8.9613,-8.9782,-9.3098,-9.533,-9.533,-9.5466,-9.5499,-9.533,-9.3062,-9.1944,-9.2372,-8.9973,-8.8197,-8.7359,-8.2983,-7.8607,-7.4439,-7.0354,-6.658,-6.314,-6.3241,-6.2932,-6.2333,-6.3883,-6.6,-6.8538,-7.1109,-7.3815,-7.6414,-7.6215,-7.6358,-7.6505,-7.5186,-7.3283,-7.1607,-7.3851,-7.3552,-7.2355,-7.4091,-7.4659,-7.4659,-7.4659,-7.4779,-7.4869,-7.4869,-7.4869,-7.4869,-7.4869,-7.4869,-7.5006,-7.5286,-7.5422,-7.524,-7.4577,-7.4335,-7.375,-7.2182,-7.1158,-6.9812,-6.7597,-6.5682,-6.4483,-6.4654,-6.5417,-6.6425,-6.7676,-6.9026,-7.0209,-7.1176,-7.0804,-7.006,-6.918,-6.9383,-6.8876,-6.7184,-6.7557,-6.7963,-6.8132,-6.8774,-6.9789,-7.1278,-7.3849,-7.554,-7.6183,-7.8551,-7.9769,-7.9837,-8.0378,-8.0953,-8.1528,-8.1697,-8.2002,-8.2408,-8.2577,-8.2746,-8.2915,-8.349,-8.4099,-8.464,-8.464,-8.464,-8.464,-8.464,-8.464,-8.464,-6.7117,-6.8605,-7.0635,-7.368,-7.7942,-8.1562,-8.3219,-8.7313,-9.0391,-9.0932,-9.1034,-9.1338,-9.2049,-9.3131,-9.3808,-9.3808,-9.4417,-9.4518,-9.3842,-9.203,-9.1413,-9.2338,-8.9973,-8.8722,-8.8903,-8.4505,-8.0361,-7.6613,-7.2146,-6.8089,-6.4416,-6.3287,-6.2385,-6.1735,-6.3725,-6.5121,-6.6237,-6.9891,-7.2732,-7.4863,-7.5329,-7.5911,-7.6442,-7.4668,-7.3462,-7.2834,-7.3702,-7.3492,-7.2924,-7.3732,-7.3971,-7.3971,-7.3971,-7.439,-7.4869,-7.4869,-7.4869,-7.4869,-7.4869,-7.4869,-7.5248,-7.67,-7.7061,-7.6876,-7.6261,-7.5642,-7.4549,-7.2324,-7.044,-6.8914,-6.8046,-6.6759,-6.604,-6.6761,-6.7989,-6.9174,-6.9895,-7.1231,-7.1886,-7.1334,-7.1244,-7.0635,-6.9248,-7.0331,-7.0195,-6.7963,-6.7861,-6.8233,-6.8944,-6.9079,-6.9789,-7.1278,-7.2868,-7.4999,-7.7739,-7.8044,-7.9498,-8.2103,-8.2171,-8.2238,-8.234,-8.2983,-8.2983,-8.2441,-8.3118,-8.3795,-8.4437,-8.4505,-8.4573,-8.464,-8.464,-8.464,-8.464,-8.464,-8.464,-8.464,-7.1142,-7.2124,-7.4052,-7.7942,-7.9735,-8.19,-8.5621,-8.7347,-8.8632,-8.9816,-9.0729,-9.1406,-9.1711,-9.2015,-9.2387,-9.2861,-9.3165,-9.3402,-9.3571,-9.1897,-9.1147,-9.172,-8.974,-8.8589,-8.8463,-8.5384,-8.1301,-7.6357,-7.3205,-6.8918,-6.3609,-6.3029,-6.2809,-6.2947,-6.3766,-6.5469,-6.7929,-7.077,-7.324,-7.5349,-7.6404,-7.7339,-7.7836,-7.5961,-7.4863,-7.434,-7.4466,-7.3552,-7.2385,-7.3073,-7.3313,-7.3432,-7.424,-7.439,-7.436,-7.4749,-7.4869,-7.4869,-7.4869,-7.4869,-7.5044,-7.5728,-7.6568,-7.6876,-7.5246,-7.5099,-7.4647,-7.239,-7.0649,-6.9512,-6.9213,-6.8076,-6.7578,-6.8842,-6.9533,-7.0349,-7.1522,-7.2122,-7.2293,-7.1988,-7.1176,-7.0229,-6.9214,-7.0026,-7.0094,-6.8707,-6.9011,-6.9214,-6.9113,-6.9519,-7.0432,-7.1921,-7.3409,-7.5405,-7.7942,-7.8855,-8.0141,-8.1731,-8.2205,-8.2644,-8.3084,-8.3355,-8.3592,-8.3761,-8.4031,-8.4336,-8.464,-8.464,-8.464,-8.464,-8.464,-8.464,-8.464,-8.464,-8.464,-8.464,-7.5303,-7.5879,-7.7604,-8.1866,-8.2171,-8.3152,-8.7076,-8.7245,-8.7279,-8.8294,-8.9342,-9.0256,-9.0899,-9.0966,-9.1271,-9.2015,-9.2286,-9.2658,-9.3199,-9.2024,-9.1335,-9.1281,-8.9858,-8.8864,-8.8361,-8.6163,-8.2715,-7.7903,-7.4782,-7.0337,-6.4803,-6.3677,-6.3468,-6.4224,-6.5016,-6.7134,-7.0229,-7.2699,-7.4864,-7.6748,-7.7788,-7.8639,-7.912,-7.6991,-7.5864,-7.521,-7.4583,-7.3253,-7.1966,-7.2445,-7.2475,-7.2505,-7.3642,-7.3821,-7.3702,-7.4151,-7.442,-7.4599,-7.4599,-7.4719,-7.5006,-7.5489,-7.6436,-7.6811,-7.5013,-7.5,-7.4586,-7.2119,-7.0889,-7.0201,-7.0021,-6.9213,-6.9181,-7.0972,-7.1076,-7.1519,-7.3243,-7.3063,-7.2631,-7.2428,-7.1278,-7.0229,-6.9485,-7.0094,-7.0229,-6.9485,-7.0094,-7.0297,-6.9789,-7.0026,-7.0872,-7.236,-7.3849,-7.5608,-7.7638,-7.9363,-8.0682,-8.1629,-8.2374,-8.3118,-8.3828,-8.3828,-8.4133,-8.464,-8.464,-8.464,-8.464,-8.464,-8.464,-8.464,-8.464,-8.464,-8.464,-8.464,-8.464,-8.464,-7.9532,-8.0141,-8.1325,-8.508,-8.5723,-8.5993,-8.6805,-8.6907,-8.6907,-8.6941,-8.6941,-8.7786,-8.9985,-9.0222,-9.0527,-9.1237,-9.1981,-9.2421,-9.2421,-9.2363,-9.2025,-9.1338,-9.0594,-8.985,-8.9072,-8.6907,-8.464,-8.2288,-7.72,-7.2742,-6.907,-6.5448,-6.4232,-6.5166,-6.7915,-7.0329,-7.2563,-7.5574,-7.7705,-7.9044,-7.9003,-7.9419,-7.981,-7.7272,-7.5864,-7.5086,-7.3526,-7.2475,-7.1876,-7.1906,-7.1457,-7.1038,-7.1697,-7.2385,-7.2924,-7.2924,-7.3402,-7.3911,-7.3911,-7.439,-7.5316,-7.6865,-7.729,-7.7104,-7.6422,-7.574,-7.4462,-7.1547,-7.0889,-7.0709,-7.0081,-6.9961,-7.0766,-7.3054,-7.286,-7.3166,-7.5359,-7.4424,-7.3206,-7.2496,-7.1751,-7.1007,-7.0263,-7.0872,-7.0973,-7.0229,-7.0872,-7.1312,-7.1278,-7.0601,-7.0872,-7.236,-7.3849,-7.5337,-7.6893,-7.9092,-8.0953,-8.2408,-8.3118,-8.3862,-8.4606,-8.4606,-8.4606,-8.464,-8.464,-8.464,-8.464,-8.464,-8.464,-8.464,-8.464,-8.464,-8.464,-8.464,-8.464,-8.464,-8.2171,-8.2847,-8.3592,-8.4776,-8.4979,-8.5249,-8.6027,-8.5689,-8.5723,-8.6771,-8.6467,-8.6602,-8.782,-8.8395,-8.9207,-9.0459,-9.0763,-9.1135,-9.1609,-9.1643,-9.1338,-9.0594,-9.0324,-8.9613,-8.8361,-8.7177,-8.5182,-8.2408,-7.9335,-7.4908,-6.9278,-6.6091,-6.6105,-6.8773,-6.964,-7.2066,-7.5574,-7.7029,-7.8213,-7.9144,-7.9616,-8.0267,-8.0761,-7.9325,-7.8998,-7.8963,-7.6739,-7.5188,-7.4045,-7.2931,-7.2146,-7.1607,-7.1816,-7.2355,-7.3103,-7.4001,-7.439,-7.4569,-7.4569,-7.4719,-7.5006,-7.5557,-7.6502,-7.6934,-7.5626,-7.448,-7.3255,-7.1888,-7.1218,-7.0829,-7.0649,-7.062,-7.1587,-7.4479,-7.3443,-7.3275,-7.6099,-7.4356,-7.2665,-7.2428,-7.1312,-7.0669,-7.0939,-7.0703,-7.0669,-7.0939,-7.1176,-7.1312,-7.1312,-7.1548,-7.2394,-7.3849,-7.5371,-7.6893,-7.8416,-8.0615,-8.1934,-8.2408,-8.3659,-8.4403,-8.464,-8.464,-8.464,-8.464,-8.464,-8.464,-8.464,-8.464,-8.464,-8.464,-8.464,-8.464,-8.464,-8.464,-8.464,-8.464,-8.3828,-8.4302,-8.464,-8.464,-8.464,-8.4776,-8.5283,-8.4945,-8.4979,-8.5926,-8.5655,-8.5621,-8.6399,-8.7144,-8.8192,-8.9647,-9.0053,-9.0527,-9.1237,-9.1034,-9.0696,-9.0222,-8.9918,-8.9342,-8.8429,-8.7414,-8.5993,-8.4099,-8.0223,-7.5684,-7.0462,-6.7789,-6.8436,-7.2009,-7.2266,-7.4727,-7.8585,-7.9025,-7.9667,-8.0293,-7.9916,-8.0524,-8.1524,-7.978,-7.9813,-8.0263,-7.7243,-7.5771,-7.4992,-7.3129,-7.2415,-7.2325,-7.2565,-7.2924,-7.3402,-7.3971,-7.43,-7.451,-7.451,-7.4689,-7.4869,-7.4869,-7.5661,-7.6075,-7.4812,-7.3881,-7.3013,-7.2086,-7.1547,-7.1278,-7.1278,-7.1556,-7.2517,-7.4694,-7.4203,-7.4224,-7.6174,-7.4565,-7.324,-7.324,-7.2157,-7.1718,-7.2496,-7.1853,-7.1616,-7.209,-7.1887,-7.1718,-7.1718,-7.2428,-7.3477,-7.4965,-7.6792,-7.8314,-7.9498,-8.1731,-8.2813,-8.2847,-8.4065,-8.464,-8.464,-8.464,-8.464,-8.464,-8.464,-8.464,-8.464,-8.464,-8.464,-8.464,-8.464,-8.464,-8.464,-8.464,-8.464,-8.4674,-8.464,-8.464,-8.464,-8.464,-8.464,-8.464,-8.464,-8.464,-8.464,-8.464,-8.464,-8.4911,-8.5621,-8.6433,-8.7448,-8.8734,-8.9647,-9.0425,-9.1102,-9.0493,-9.0121,-9.0121,-8.9444,-8.9072,-8.9004,-8.7617,-8.6873,-8.6738,-8.0272,-7.5682,-7.2969,-7.0491,-7.1383,-7.5007,-7.5528,-7.7872,-8.1359,-8.1359,-8.1679,-8.1978,-7.9974,-8.0322,-8.1787,-7.9024,-7.8852,-7.9613,-7.5883,-7.4874,-7.5024,-7.2802,-7.2445,-7.3103,-7.3702,-7.3941,-7.3851,-7.3223,-7.3492,-7.3971,-7.3971,-7.442,-7.4869,-7.4869,-7.4869,-7.4719,-7.4091,-7.3941,-7.3552,-7.2295,-7.1996,-7.2002,-7.2133,-7.2786,-7.357,-7.4376,-7.5121,-7.5641,-7.5713,-7.4986,-7.4559,-7.4593,-7.3984,-7.3883,-7.4695,-7.4086,-7.368,-7.3713,-7.3003,-7.2597,-7.2699,-7.3409,-7.4424,-7.5811,-7.801,-7.9566,-8.0344,-8.2441,-8.3524,-8.3592,-8.4302,-8.464,-8.464,-8.464,-8.464,-8.464,-8.464,-8.464,-8.464,-8.464,-8.464,-8.464,-8.464,-8.464,-8.464,-8.4674,-8.4708,-8.4809,-8.464,-8.464,-8.464,-8.464,-8.464,-8.464,-8.464,-8.464,-8.464,-8.464,-8.464,-8.4708,-8.4877,-8.6095,-8.6805,-8.6569,-8.826,-8.941,-8.9579,-8.9444,-8.9342,-8.9342,-8.9173,-8.8835,-8.826,-8.738,-8.6332,-8.5148,-8.1813,-7.9822,-7.9032,-7.5018,-7.516,-7.8733,-7.7119,-7.8602,-8.2137,-8.2137,-8.126,-7.9886,-8.0531,-8.0072,-7.9102,-8.0042,-8.068,-8.0675,-7.8383,-7.7379,-7.6732,-7.4284,-7.3522,-7.3702,-7.3851,-7.424,-7.4599,-7.445,-7.451,-7.4629,-7.4629,-7.4749,-7.4869,-7.4869,-7.4869,-7.4839,-7.4689,-7.424,-7.3791,-7.3492,-7.3013,-7.3022,-7.4265,-7.422,-7.4646,-7.667,-7.5733,-7.5029,-7.5619,-7.4573,-7.395,-7.4559,-7.4458,-7.4864,-7.6217,-7.5642,-7.5439,-7.6048,-7.483,-7.4593,-7.5777,-7.6521,-7.7063,-7.7435,-7.9058,-8.0547,-8.1866,-8.2949,-8.3795,-8.437,-8.4539,-8.464,-8.464,-8.464,-8.464,-8.464,-8.464,-8.464,-8.464,-8.464,-8.464,-8.464,-8.464,-8.464,-8.4708,-8.5283,-8.552,-8.5621,-8.464,-8.464,-8.464,-8.464,-8.464,-8.464,-8.464,-8.464,-8.464,-8.464,-8.464,-8.464,-8.464,-8.5689,-8.623,-8.5824,-8.7786,-8.8937,-8.8598,-8.8903,-8.9072,-8.9072,-8.8767,-8.8395,-8.7989,-8.6941,-8.5824,-8.464,-8.2655,-8.1661,-8.1605,-7.8367,-7.8359,-8.1012,-7.979,-8.0794,-8.3389,-8.2712,-8.1283,-7.9452,-7.8902,-7.7938,-7.6893,-7.7451,-7.8255,-7.8892,-7.7198,-7.6768,-7.6712,-7.4637,-7.4091,-7.436,-7.436,-7.4599,-7.4869,-7.4869,-7.4869,-7.4869,-7.4869,-7.4869,-7.4869,-7.4869,-7.4869,-7.4869,-7.4869,-7.4599,-7.427,-7.3941,-7.3612,-7.349,-7.4085,-7.4182,-7.4528,-7.556,-7.5331,-7.5091,-7.5156,-7.5089,-7.5202,-7.5608,-7.6251,-7.713,-7.828,-7.801,-7.7807,-7.7908,-7.6826,-7.6521,-7.7367,-7.8111,-7.8653,-7.8991,-8.075,-8.2103,-8.2915,-8.3625,-8.42,-8.464,-8.464,-8.464,-8.464,-8.464,-8.464,-8.464,-8.464,-8.464,-8.464,-8.464,-8.464,-8.464,-8.464,-8.464,-8.4708,-8.5486,-8.579,-8.5926,-8.464,-8.464,-8.464,-8.464,-8.464,-8.464,-8.464,-8.464,-8.464,-8.464,-8.464,-8.464,-8.464,-8.5317,-8.5723,-8.5621,-8.755,-8.8497,-8.7854,-8.8395,-8.8767,-8.8767,-8.8158,-8.782,-8.782,-8.6501,-8.5418,-8.464,-8.3254,-8.2572,-8.2515,-8.0847,-8.0906,-8.2572,-8.2213,-8.301,-8.4539,-8.3152,-8.1618,-7.9869,-7.7172,-7.5906,-7.5464,-7.414,-7.4848,-7.6369,-7.4871,-7.515,-7.5944,-7.4547,-7.442,-7.4869,-7.4869,-7.4869,-7.4869,-7.4869,-7.4869,-7.4869,-7.4869,-7.4869,-7.4869,-7.4869,-7.4869,-7.4869,-7.4869,-7.4869,-7.4719,-7.4151,-7.4031,-7.3919,-7.3617,-7.3981,-7.416,-7.3662,-7.4799,-7.5457,-7.4779,-7.594,-7.6995,-7.7198,-7.845,-7.9566,-8.0276,-8.0479,-8.0276,-7.9667,-7.8889,-7.8551,-7.8653,-7.9261,-7.9938,-8.0682,-8.2509,-8.3558,-8.3659,-8.4302,-8.464,-8.464,-8.464,-8.464,-8.464,-8.464,-8.464,-8.464,-8.464,-8.464,-8.464,-8.464,-8.464,-8.464,-8.464,-8.4708,-8.4911,-8.5655,-8.6027,-8.6332,-8.464,-8.464,-8.464,-8.464,-8.464,-8.464,-8.464,-8.464,-8.464,-8.464,-8.464,-8.464,-8.464,-8.5317,-8.552,-8.4877,-8.6298,-8.7211,-8.7076,-8.7177,-8.7245,-8.7245,-8.7144,-8.7076,-8.7076,-8.623,-8.5418,-8.464,-8.4339,-8.4197,-8.4197,-8.1966,-8.2144,-8.411,-8.2189,-8.2566,-8.4573,-8.3693,-8.2087,-8.0013,-7.8935,-7.7324,-7.5579,-7.5348,-7.5794,-7.6464,-7.5402,-7.552,-7.6037,-7.509,-7.4779,-7.4869,-7.4869,-7.4869,-7.4869,-7.4869,-7.4869,-7.4869,-7.4869,-7.4869,-7.4869,-7.4869,-7.4869,-7.4869,-7.4869,-7.4869,-7.4839,-7.4749,-7.4719,-7.5105,-7.6392,-7.5797,-7.5247,-7.5891,-7.5793,-7.5655,-7.5523,-7.6325,-7.7367,-7.8619,-7.9532,-8.031,-8.1054,-8.1697,-8.2035,-8.19,-8.119,-8.1054,-8.1697,-8.1832,-8.2238,-8.2949,-8.3321,-8.3795,-8.4437,-8.4573,-8.464,-8.464,-8.464,-8.464,-8.464,-8.464,-8.464,-8.464,-8.464,-8.464,-8.464,-8.464,-8.464,-8.464,-8.464,-8.5046,-8.5689,-8.6467,-8.711,-8.7786,-8.464,-8.464,-8.464,-8.464,-8.464,-8.464,-8.464,-8.464,-8.464,-8.464,-8.464,-8.464,-8.464,-8.4945,-8.5012,-8.464,-8.5283,-8.5689,-8.5689,-8.6467,-8.6907,-8.6907,-8.6535,-8.6095,-8.5689,-8.5351,-8.4979,-8.464,-8.464,-8.464,-8.4553,-8.3523,-8.3557,-8.4553,-8.3469,-8.3645,-8.4539,-8.3389,-8.1819,-8.0013,-7.8859,-7.6783,-7.441,-7.4697,-7.4746,-7.462,-7.4524,-7.4963,-7.5438,-7.5022,-7.4869,-7.4869,-7.4869,-7.4869,-7.4869,-7.4869,-7.4869,-7.4869,-7.4869,-7.4869,-7.4869,-7.4869,-7.4869,-7.4869,-7.4869,-7.4869,-7.4869,-7.4869,-7.4869,-7.5022,-7.5377,-7.4932,-7.466,-7.5117,-7.4726,-7.4459,-7.4891,-7.6366,-7.7674,-7.8341,-8.0524,-8.2103,-8.2441,-8.3152,-8.3422,-8.3016,-8.2678,-8.2611,-8.2983,-8.2983,-8.3321,-8.4065,-8.4099,-8.4268,-8.464,-8.464,-8.464,-8.464,-8.5046,-8.5249,-8.5249,-8.5249,-8.5249,-8.5249,-8.5249,-8.5249,-8.5249,-8.5249,-8.5486,-8.5824,-8.5418,-8.5723,-8.6467,-8.7211,-8.7719,-8.8091,-8.464,-8.464,-8.464,-8.464,-8.464,-8.464,-8.464,-8.464,-8.464,-8.464,-8.464,-8.464,-8.464,-8.464,-8.464,-8.464,-8.464,-8.464,-8.464,-8.5723,-8.6399,-8.6399,-8.5824,-8.5249,-8.464,-8.464,-8.464,-8.464,-8.464,-8.464,-8.464,-8.464,-8.464,-8.464,-8.464,-8.464,-8.4539,-8.3219,-8.1845,-8.0508,-7.8803,-7.6653,-7.4322,-7.4221,-7.3897,-7.3485,-7.3776,-7.43,-7.4869,-7.4869,-7.4869,-7.4869,-7.4869,-7.4869,-7.4869,-7.4869,-7.4869,-7.4869,-7.4869,-7.4869,-7.4869,-7.4869,-7.4869,-7.4869,-7.4869,-7.4869,-7.4869,-7.4869,-7.4869,-7.4719,-7.421,-7.4001,-7.3924,-7.4014,-7.3662,-7.3751,-7.4918,-7.686,-7.832,-7.8895,-8.1643,-8.349,-8.349,-8.4167,-8.4403,-8.3795,-8.3761,-8.3761,-8.3761,-8.3761,-8.4031,-8.4606,-8.464,-8.4708,-8.4911,-8.4911,-8.4979,-8.5148,-8.5757,-8.6061,-8.6027,-8.5858,-8.5892,-8.6027,-8.5858,-8.5892,-8.6061,-8.6061,-8.6399,-8.6839,-8.6264,-8.6501,-8.7245,-8.7786,-8.8091,-8.8328,-8.464,-8.464,-8.464,-8.464,-8.464,-8.464,-8.464,-8.464,-8.464,-8.464,-8.464,-8.464,-8.464,-8.464,-8.464,-8.464,-8.464,-8.464,-8.464,-8.4742,-8.4809,-8.4809,-8.4742,-8.4674,-8.464,-8.464,-8.464,-8.464,-8.464,-8.464,-8.464,-8.464,-8.464,-8.464,-8.464,-8.464,-8.4573,-8.3761,-8.2964,-8.2046,-7.9832,-7.8366,-7.7313,-7.5043,-7.4561,-7.4892,-7.4215,-7.43,-7.4869,-7.4869,-7.4869,-7.4869,-7.4869,-7.4869,-7.4869,-7.4869,-7.4869,-7.4869,-7.4869,-7.4869,-7.4869,-7.4869,-7.4869,-7.4869,-7.4869,-7.4869,-7.4869,-7.4869,-7.4869,-7.4869,-7.4809,-7.43,-7.3919,-7.3866,-7.3974,-7.481,-7.7134,-7.8226,-7.9604,-8.1825,-8.293,-8.349,-8.349,-8.4167,-8.4606,-8.4539,-8.4539,-8.4539,-8.4539,-8.4539,-8.4573,-8.464,-8.464,-8.4979,-8.5689,-8.5689,-8.6061,-8.6738,-8.6805,-8.6839,-8.6805,-8.6095,-8.6163,-8.6771,-8.6095,-8.6196,-8.6839,-8.6839,-8.6873,-8.6907,-8.6839,-8.7279,-8.7922,-8.7989,-8.8429,-8.9004,-8.4539,-8.464,-8.464,-8.464,-8.464,-8.464,-8.464,-8.464,-8.464,-8.464,-8.464,-8.464,-8.464,-8.464,-8.464,-8.464,-8.464,-8.464,-8.464,-8.464,-8.464,-8.464,-8.464,-8.464,-8.464,-8.464,-8.464,-8.464,-8.464,-8.464,-8.464,-8.464,-8.464,-8.464,-8.464,-8.464,-8.4539,-8.3321,-8.2678,-8.2288,-8.0924,-7.9702,-7.8475,-7.7317,-7.6494,-7.5764,-7.4885,-7.4659,-7.4869,-7.4869,-7.4869,-7.4869,-7.4869,-7.4869,-7.4869,-7.4869,-7.4869,-7.4869,-7.4869,-7.4869,-7.4869,-7.4869,-7.4869,-7.4869,-7.4869,-7.4869,-7.4869,-7.4869,-7.4869,-7.4869,-7.4869,-7.4659,-7.451,-7.451,-7.4208,-7.4324,-7.5222,-7.7385,-7.9159,-8.0084,-8.2552,-8.42,-8.42,-8.4471,-8.464,-8.464,-8.464,-8.464,-8.464,-8.464,-8.4843,-8.5317,-8.5351,-8.5486,-8.579,-8.579,-8.6163,-8.6907,-8.738,-8.7583,-8.7583,-8.7279,-8.7313,-8.7583,-8.7279,-8.7313,-8.7583,-8.7583,-8.7854,-8.8226,-8.7753,-8.8023,-8.8666,-8.8666,-8.8835,-8.914,-8.4471,-8.464,-8.464,-8.464,-8.464,-8.464,-8.464,-8.464,-8.464,-8.464,-8.464,-8.464,-8.464,-8.464,-8.464,-8.464,-8.464,-8.464,-8.464,-8.464,-8.464,-8.464,-8.464,-8.464,-8.464,-8.464,-8.464,-8.464,-8.464,-8.464,-8.464,-8.464,-8.464,-8.464,-8.464,-8.464,-8.4539,-8.3524,-8.2983,-8.2712,-8.2171,-8.1245,-7.9956,-7.8946,-7.7955,-7.6837,-7.5419,-7.4869,-7.4869,-7.4869,-7.4869,-7.5006,-7.5489,-7.5966,-7.6365,-7.5796,-7.5661,-7.5557,-7.5074,-7.4869,-7.4869,-7.4869,-7.4869,-7.4869,-7.4869,-7.4869,-7.4869,-7.4869,-7.4869,-7.4869,-7.4869,-7.4869,-7.4869,-7.4869,-7.448,-7.4384,-7.4928,-7.7371,-7.9308,-7.9844,-8.2666,-8.464,-8.464,-8.464,-8.464,-8.464,-8.464,-8.4742,-8.4979,-8.4979,-8.5351,-8.6129,-8.6129,-8.6264,-8.6467,-8.6467,-8.6839,-8.7617,-8.8091,-8.8328,-8.8328,-8.8091,-8.8125,-8.8328,-8.8091,-8.8125,-8.8328,-8.8328,-8.8632,-8.9038,-8.8531,-8.8632,-8.9072,-8.9072,-8.9072,-8.914,-8.4471,-8.4606,-8.4606,-8.464,-8.464,-8.4553,-8.464,-8.464,-8.464,-8.464,-8.464,-8.464,-8.464,-8.464,-8.464,-8.464,-8.464,-8.464,-8.464,-8.464,-8.464,-8.464,-8.464,-8.464,-8.464,-8.464,-8.464,-8.464,-8.464,-8.464,-8.464,-8.464,-8.464,-8.464,-8.464,-8.464,-8.464,-8.4553,-8.42,-8.349,-8.349,-8.305,-8.2128,-7.9581,-7.8623,-7.8295,-7.5789,-7.4869,-7.4869,-7.4869,-7.4869,-7.518,-7.68,-7.8502,-7.9497,-7.7804,-7.729,-7.6931,-7.5354,-7.4869,-7.4899,-7.4869,-7.4869,-7.4899,-7.4869,-7.4899,-7.4899,-7.4899,-7.4899,-7.4899,-7.4899,-7.4899,-7.4899,-7.4899,-7.4899,-7.5489,-7.7061,-7.8753,-8.0408,-8.2026,-8.3619,-8.464,-8.464,-8.464,-8.464,-8.464,-8.464,-8.4979,-8.5757,-8.579,-8.6129,-8.6907,-8.6907,-8.7279,-8.7989,-8.7989,-8.8361,-8.9072,-8.9072,-8.9072,-8.9072,-8.8328,-8.8395,-8.9038,-8.8328,-8.8395,-8.9072,-8.9072,-8.9072,-8.9072,-8.9072,-8.9072,-8.9072,-8.9072,-8.9072,-8.9106,-8.3592,-8.3422,-8.3389,-8.4437,-8.42,-8.3998,-8.4539,-8.464,-8.464,-8.464,-8.464,-8.464,-8.464,-8.464,-8.464,-8.464,-8.464,-8.464,-8.464,-8.464,-8.464,-8.464,-8.464,-8.464,-8.464,-8.464,-8.464,-8.464,-8.464,-8.464,-8.464,-8.464,-8.464,-8.464,-8.464,-8.464,-8.4606,-8.4065,-8.3693,-8.349,-8.349,-8.3355,-8.2903,-8.0386,-7.9451,-7.9056,-7.5972,-7.4869,-7.4869,-7.4869,-7.5661,-7.6865,-7.8565,-7.9436,-7.971,-7.9189,-7.825,-7.716,-7.67,-7.6092,-7.5497,-7.4988,-7.5228,-7.5467,-7.4988,-7.5587,-7.6125,-7.5677,-7.5946,-7.6245,-7.6245,-7.6245,-7.6245,-7.6245,-7.6245,-7.6658,-7.7864,-7.9385,-8.0863,-8.2034,-8.3619,-8.464,-8.464,-8.464,-8.464,-8.464,-8.5114,-8.5757,-8.6535,-8.6569,-8.6907,-8.7651,-8.7685,-8.8023,-8.8734,-8.826,-8.8361,-8.9072,-8.9072,-8.9072,-8.9072,-8.8869,-8.8869,-8.9072,-8.8869,-8.8869,-8.9072,-8.9072,-8.9072,-8.9072,-8.9072,-8.9072,-8.9072,-8.9072,-8.941,-8.9951,-8.3219,-8.2915,-8.2881,-8.437,-8.3998,-8.3761,-8.4505,-8.464,-8.464,-8.464,-8.464,-8.464,-8.464,-8.464,-8.464,-8.464,-8.464,-8.464,-8.464,-8.464,-8.464,-8.464,-8.464,-8.464,-8.464,-8.464,-8.464,-8.464,-8.464,-8.464,-8.464,-8.464,-8.464,-8.464,-8.464,-8.464,-8.4606,-8.4133,-8.3964,-8.3964,-8.3964,-8.3964,-8.3698,-8.1574,-8.0348,-7.9527,-7.7515,-7.5996,-7.5006,-7.5594,-7.6962,-7.8596,-8.0227,-8.118,-8.1589,-8.0944,-8.0207,-7.935,-7.7739,-7.7274,-7.6971,-7.5644,-7.5766,-7.6155,-7.5736,-7.6275,-7.6724,-7.6335,-7.6574,-7.6814,-7.6814,-7.6814,-7.7024,-7.7698,-7.7836,-7.7996,-7.8676,-8.0712,-8.1908,-8.1157,-8.3693,-8.5216,-8.4511,-8.5107,-8.552,-8.552,-8.596,-8.6569,-8.7313,-8.7347,-8.7685,-8.8395,-8.8429,-8.8632,-8.9072,-8.8937,-8.8937,-8.9072,-8.9072,-8.9072,-8.9072,-8.9072,-8.9072,-8.9072,-8.9072,-8.9072,-8.9072,-8.9072,-8.9072,-8.9072,-8.9072,-8.9072,-8.9072,-8.9072,-8.9376,-8.9816,-8.3016,-8.2712,-8.2712,-8.4268,-8.3896,-8.3659,-8.4505,-8.464,-8.464,-8.464,-8.464,-8.464,-8.464,-8.464,-8.464,-8.464,-8.464,-8.464,-8.464,-8.464,-8.464,-8.464,-8.464,-8.464,-8.464,-8.464,-8.464,-8.464,-8.464,-8.464,-8.464,-8.464,-8.464,-8.464,-8.464,-8.464,-8.464,-8.464,-8.464,-8.464,-8.464,-8.464,-8.4446,-8.283,-8.133,-7.9986,-7.9864,-7.7772,-7.5354,-7.6996,-7.8596,-8.0288,-8.1911,-8.3421,-8.4339,-8.283,-8.2839,-8.2446,-7.8659,-7.8505,-7.8904,-7.6641,-7.6544,-7.6963,-7.6844,-7.6904,-7.6993,-7.6933,-7.6963,-7.6993,-7.6993,-7.6993,-7.7563,-7.9285,-7.9454,-7.9454,-7.9693,-8.2351,-8.3147,-8.0125,-8.3959,-8.6287,-8.4664,-8.594,-8.6941,-8.7008,-8.7008,-8.7313,-8.8057,-8.8158,-8.8497,-8.9173,-8.9241,-8.9275,-8.9275,-8.9951,-8.9918,-8.9173,-8.9241,-8.9241,-8.9173,-8.9173,-8.914,-8.9072,-8.9072,-8.9072,-8.9106,-8.914,-8.914,-8.9106,-8.914,-8.914,-8.9072,-8.9072,-8.914,-8.9207,-8.1596,-8.119,-8.1325,-8.3389,-8.3152,-8.3084,-8.4437,-8.464,-8.464,-8.464,-8.464,-8.464,-8.464,-8.464,-8.464,-8.464,-8.464,-8.464,-8.464,-8.464,-8.464,-8.464,-8.464,-8.464,-8.464,-8.464,-8.464,-8.464,-8.464,-8.464,-8.464,-8.464,-8.464,-8.464,-8.464,-8.464,-8.464,-8.464,-8.464,-8.464,-8.464,-8.464,-8.4446,-8.283,-8.1968,-8.1505,-8.0227,-7.8502,-7.7061,-7.8691,-8.0348,-8.1968,-8.3586,-8.4339,-8.45,-8.4197,-8.3698,-8.2812,-8.0541,-8.0103,-7.9706,-7.7876,-7.7891,-7.81,-7.7053,-7.7622,-7.822,-7.7711,-7.8011,-7.837,-7.837,-7.837,-7.8951,-8.0706,-7.9803,-7.9659,-8.1788,-8.2682,-8.3146,-8.324,-8.5397,-8.6742,-8.6398,-8.6653,-8.7144,-8.7719,-8.7753,-8.8091,-8.8801,-8.941,-8.9816,-8.9951,-9.0527,-9.0797,-9.0797,-9.0966,-9.0696,-8.9985,-9.056,-9.0527,-8.9951,-8.9951,-8.9647,-8.9072,-8.9072,-8.9072,-8.914,-8.9715,-8.9613,-8.914,-8.9748,-8.9613,-8.9072,-8.9072,-8.9444,-9.0121,-8.1156,-8.0716,-8.0885,-8.3118,-8.2881,-8.2915,-8.4403,-8.464,-8.464,-8.464,-8.464,-8.464,-8.464,-8.464,-8.464,-8.464,-8.464,-8.464,-8.464,-8.464,-8.464,-8.464,-8.464,-8.4809,-8.5182,-8.4809,-8.464,-8.464,-8.464,-8.464,-8.464,-8.464,-8.464,-8.464,-8.464,-8.464,-8.464,-8.464,-8.464,-8.464,-8.464,-8.464,-8.45,-8.3674,-8.2886,-8.2198,-8.2083,-8.1062,-7.9771,-8.0647,-8.1505,-8.2581,-8.4526,-8.5182,-8.5249,-8.5621,-8.5615,-8.4911,-8.202,-8.1729,-8.1432,-7.8539,-7.8962,-7.9657,-7.8104,-7.831,-7.8699,-7.834,-7.8549,-7.8789,-7.8789,-7.8789,-7.9627,-8.2258,-8.1855,-8.2034,-8.4271,-8.4579,-8.4449,-8.4186,-8.5663,-8.7069,-8.7866,-8.7955,-8.8091,-8.8497,-8.8497,-8.8666,-8.9072,-8.9816,-9.0222,-9.0222,-9.0932,-9.1305,-9.1305,-9.1643,-9.1643,-9.1271,-9.1271,-9.1102,-9.0729,-9.0729,-9.0493,-9.0154,-9.0154,-9.0154,-9.0154,-9.056,-9.0493,-9.0154,-9.0188,-8.9951,-8.9579,-8.9207,-8.9579,-9.0357,-8.0987,-8.0615,-8.0818,-8.278,-8.2712,-8.2881,-8.4234,-8.4539,-8.464,-8.464,-8.464,-8.464,-8.464,-8.464,-8.464,-8.464,-8.464,-8.464,-8.464,-8.464,-8.464,-8.464,-8.4742,-8.5046,-8.5587,-8.508,-8.4809,-8.4809,-8.4674,-8.464,-8.464,-8.464,-8.464,-8.464,-8.464,-8.464,-8.464,-8.464,-8.464,-8.464,-8.464,-8.464,-8.464,-8.464,-8.3784,-8.2741,-8.4143,-8.3729,-8.2572,-8.2288,-8.2467,-8.3185,-8.514,-8.5892,-8.6095,-8.6738,-8.7414,-8.7172,-8.3134,-8.3003,-8.3059,-7.9351,-7.9903,-8.11,-7.998,-7.9445,-7.919,-7.8861,-7.8789,-7.8789,-7.8789,-7.8789,-7.9839,-8.3021,-8.3283,-8.377,-8.5813,-8.6057,-8.569,-8.4568,-8.5935,-8.7529,-8.8959,-8.9072,-8.9072,-8.9072,-8.9072,-8.9072,-8.9072,-8.9918,-9.0391,-9.0391,-9.1237,-9.1677,-9.1677,-9.2319,-9.2624,-9.2624,-9.1981,-9.1609,-9.1474,-9.1474,-9.1406,-9.1305,-9.1305,-9.1305,-9.1305,-9.144,-9.1406,-9.1237,-9.0763,-9.0493,-9.0324,-8.9681,-8.9782,-9.0324,-8.031,-8.0276,-8.0479,-8.1426,-8.2035,-8.2678,-8.3524,-8.42,-8.464,-8.464,-8.464,-8.464,-8.464,-8.464,-8.464,-8.464,-8.464,-8.464,-8.464,-8.464,-8.464,-8.464,-8.5283,-8.5351,-8.4809,-8.5351,-8.5621,-8.5621,-8.4945,-8.464,-8.464,-8.464,-8.464,-8.464,-8.464,-8.464,-8.464,-8.464,-8.464,-8.464,-8.464,-8.464,-8.464,-8.464,-8.4446,-8.4305,-8.45,-8.4446,-8.4089,-8.2684,-8.3599,-8.535,-8.5703,-8.623,-8.6771,-8.6873,-8.7414,-8.7216,-8.3654,-8.3355,-8.3512,-8.1423,-8.1145,-8.172,-8.3021,-8.2124,-8.0618,-7.9118,-7.8789,-7.8789,-7.8789,-7.8789,-7.9445,-8.1411,-8.0509,-8.0618,-8.3834,-8.4378,-8.482,-8.5996,-8.7645,-8.8813,-8.9072,-8.9072,-8.9072,-8.9072,-8.9072,-8.9072,-8.9072,-9.0391,-9.1135,-9.1135,-9.2522,-9.3267,-9.3267,-9.3368,-9.3436,-9.3436,-9.3334,-9.2928,-9.2286,-9.2286,-9.1913,-9.1305,-9.1305,-9.1305,-9.1338,-9.2015,-9.188,-9.1338,-9.1913,-9.1711,-9.1135,-9.1034,-9.0662,-9.0425,-8.0209,-8.0209,-8.0547,-8.1697,-8.2171,-8.2813,-8.3964,-8.4403,-8.464,-8.464,-8.464,-8.464,-8.464,-8.464,-8.464,-8.464,-8.464,-8.464,-8.464,-8.464,-8.4809,-8.5249,-8.5182,-8.5384,-8.5892,-8.5384,-8.5351,-8.579,-8.5012,-8.464,-8.464,-8.464,-8.464,-8.464,-8.464,-8.464,-8.464,-8.464,-8.464,-8.464,-8.464,-8.464,-8.464,-8.464,-8.464,-8.464,-8.464,-8.464,-8.4567,-8.4286,-8.4909,-8.5926,-8.6771,-8.7245,-8.7617,-8.7989,-8.8361,-8.8081,-8.5565,-8.5122,-8.4976,-8.3283,-8.3576,-8.4219,-8.4059,-8.3699,-8.2732,-8.071,-7.9445,-7.8789,-7.8789,-7.8789,-7.9374,-8.11,-8.0756,-8.1449,-8.4914,-8.377,-8.3152,-8.4914,-8.747,-8.9241,-8.9681,-8.9715,-8.9884,-9.029,-9.0324,-9.0324,-9.0324,-9.1338,-9.1913,-9.1913,-9.2996,-9.3571,-9.3571,-9.3571,-9.3571,-9.3571,-9.4011,-9.3808,-9.3064,-9.3064,-9.2895,-9.2556,-9.2556,-9.2556,-9.259,-9.2928,-9.2861,-9.2556,-9.2455,-9.1947,-9.1305,-9.1305,-9.1338,-9.1541]},{"header":{"parameterUnit":"m.s-1","parameterCategory":1,"la1":30.6,"la2":28.766,"lo1":-90.7593,"lo2":-88.6598,"dy":0.0162,"dx":0.0183,"nx":116,"ny":114,"refTime":"2024-04-08T06:00:00:Z","depth":0,"parameterNumber":3,"parameterNumberName":"V-component_of_WINDS"},"data":[0.0,0.0,0.0,0.0,0.0,0.0,0.0,0.0,0.0,0.0,0.0,0.0,0.0,0.0,0.0,0.0,0.0,0.0,0.0,0.0,0.0,0.0,0.0,0.0,0.0,0.0,0.0,0.0,0.0,0.0,0.0,0.0,0.0,0.0,0.0,0.0,0.0,0.0,0.0,0.0,0.0,0.0,0.0,0.0,0.0,0.0,0.0,0.0,0.0,0.0,0.0,0.0,0.0,0.0,0.0,0.0,0.0,0.0,0.0,0.0,0.0,0.0,0.0,0.0,0.0,0.0,0.0,0.0,0.0,0.0,0.0,0.0,0.0,0.0,0.0,0.0,0.0,0.0,0.0,0.0,0.0,0.0,0.0,0.0,0.0,0.0,0.0,0.0,0.0,0.0,0.0,0.0,0.0,0.0,0.0,0.0,0.0,0.0,0.0,0.0,0.0,0.0,0.0,0.0,0.0,0.0,0.0,0.0,0.0,0.0,0.0,0.0,0.0,0.0,0.0,0.0,0.0,0.0,0.0,0.0,0.0,0.0,0.0,0.0,0.0,0.0,0.0,0.0,0.0,0.0,0.0,0.0,0.0,0.0,0.0,0.0,0.0,0.0,0.0,0.0,0.0,0.0,0.0,0.0,0.0,0.0,0.0,0.0,0.0,0.0,0.0,0.0,0.0,0.0,0.0,0.0,0.0,0.0,0.0,0.0,0.0,0.0,0.0,0.0,0.0,0.0,0.0,0.0,0.0,0.0,0.0,0.0,0.0,0.0,0.0,0.0,0.0,0.0,0.0,0.0,0.0,0.0,0.0,0.0,0.0,0.0,0.0,0.0,0.0,0.0,0.0,0.0,0.0,0.0,0.0,0.0,0.0,0.0,0.0,0.0,0.0,0.0,0.0,0.0,0.0,0.0,0.0,0.0,0.0,0.0,0.0,0.0,0.0,0.0,0.0,0.0,0.0,0.0,0.0,0.0,0.0,0.0,0.0,0.0,0.0,0.0,0.0,0.0,0.0,0.0,0.0,0.0,0.0,0.0,0.0,0.0,0.0,0.0,0.0,0.0,0.0,0.0,0.0,0.0,0.0,0.0,0.0,0.0,0.0,0.0,0.0,0.0,0.0,0.0,0.0,0.0,0.0,0.0,0.0,0.0,0.0,0.0,0.0,0.0,0.0,0.0,0.0,0.0,0.0,0.0,0.0,0.0,0.0,0.0,0.0,0.0,0.0,0.0,0.0,0.0,0.0,0.0,0.0,0.0,0.0,0.0,0.0,0.0,0.0,0.0,0.0,0.0,0.0,0.0,0.0,0.0,0.0,0.0,0.0,0.0,0.0,0.0,0.0,0.0,0.0,0.0,0.0,0.0,0.0,0.0,0.0,0.0,0.0,0.0,0.0,0.0,0.0,0.0,0.0,0.0,0.0,0.0,0.0,0.0,0.0,0.0,0.0,0.0,0.0,0.0,0.0,0.0,0.0,0.0,0.0,0.0,0.0,0.0,0.0,0.0,0.0,0.0,0.0,0.0,0.0,0.0,0.0,0.0,0.0,0.0,0.0,0.0,0.0,0.0,0.0,0.0,0.0,0.0,0.0,0.0,0.0,0.0,0.0,0.0,0.0,0.0,0.0,0.0,0.0,0.0,0.0,0.0,0.0,0.0,0.0,0.0,0.0,0.0,0.0,0.0,0.0,0.0,0.0,0.0,0.0,0.0,0.0,0.0,0.0,0.0,0.0,0.0,0.0,0.0,0.0,0.0,0.0,0.0,0.0,0.0,0.0,0.0,0.0,0.0,0.0,0.0,0.0,0.0,0.0,0.0,0.0,0.0,0.0,0.0,0.0,0.0,0.0,0.0,0.0,0.0,0.0,0.0,0.0,0.0,0.0,0.0,0.0,0.0,0.0,0.0,0.0,0.0,0.0,0.0,0.0,0.0,0.0,0.0,0.0,0.0,0.0,0.0,0.0,0.0,0.0,0.0,0.0,0.0,0.0,0.0,0.0,0.0,0.0,0.0,0.0,0.0,0.0,0.0,0.0,0.0,0.0,0.0,0.0,0.0,0.0,0.0,0.0,0.0,0.0,0.0,0.0,0.0,0.0,0.0,0.0,0.0,0.0,0.0,0.0,0.0,0.0,0.0,0.0,0.0,0.0,0.0,0.0,0.0,0.0,0.0,0.0,0.0,0.0,0.0,0.0,0.0,0.0,0.0,0.0,0.0,0.0,0.0,0.0,0.0,0.0,0.0,0.0,0.0,0.0,0.0,0.0,0.0,0.0,0.0,0.0,0.0,0.0,0.0,0.0,0.0,0.0,0.0,0.0,0.0,0.0,0.0,0.0,0.0,0.0,0.0,0.0,0.0,0.0,0.0,0.0,0.0,0.0,0.0,0.0,0.0,0.0,0.0,0.0,0.0,0.0,0.0,0.0,0.0,0.0,0.0,0.0,0.0,0.0,0.0,0.0,0.0,0.0,0.0,0.0,0.0,0.0,0.0,0.0,0.0,0.0,0.0,0.0,0.0,0.0,0.0,0.0,0.0,0.0,0.0,0.0,0.0,0.0,0.0,0.0,0.0,0.0,0.0,0.0,0.0,0.0,0.0,0.0,0.0,0.0,0.0,0.0,0.0,0.0,0.0,0.0,0.0,0.0,0.0,0.0,0.0,0.0,0.0,0.0,0.0,0.0,0.0,0.0,0.0,0.0,0.0,0.0,0.0,0.0,0.0,0.0,0.0,0.0,0.0,0.0,0.0,0.0,0.0,0.0,0.0,0.0,0.0,0.0,0.0,0.0,0.0,0.0,0.0,0.0,0.0,0.0,0.0,0.0,0.0,0.0,0.0,0.0,0.0,0.0,0.0,0.0,0.0,0.0,0.0,0.0,0.0,0.0,0.0,0.0,0.0,0.0,0.0,0.0,0.0,0.0,0.0,0.0,0.0,0.0,0.0,0.0,0.0,0.0,0.0,0.0,0.0,0.0,0.0,0.0,0.0,0.0,0.0,0.0,0.0,0.0,0.0,0.0,0.0,0.0,0.0,0.0,0.0,0.0,0.0,0.0,0.0,0.0,0.0,0.0,0.0,0.0,0.0,0.0,0.0,0.0,0.0,0.0,0.0,0.0,0.0,0.0,0.0,0.0,0.0,0.0,0.0,0.0,0.0,0.0,0.0,0.0,0.0,0.0,0.0,0.0,0.0,0.0,0.0,0.0,0.0,0.0,0.0,0.0,0.0,0.0,0.0,0.0,0.0,0.0,0.0,0.0,0.0,0.0,0.0,0.0,0.0,0.0,0.0,0.0,0.0,0.0,0.0,0.0,0.0,0.0,0.0,0.0,0.0,0.0,0.0,0.0,0.0,0.0,0.0,0.0,0.0,0.0,0.0,0.0,0.0,0.0,0.0,0.0,0.0,0.0,0.0,0.0,0.0,0.0,0.0,0.0,0.0,0.0,0.0,0.0,0.0,0.0,0.0,0.0,0.0,0.0,0.0,0.0,0.0,0.0,0.0,0.0,0.0,0.0,0.0,0.0,0.0,0.0,0.0,0.0,0.0,0.0,0.0,0.0,0.0,0.0,0.0,0.0,0.0,0.0,0.0,0.0,0.0,0.0,0.0,0.0,0.0,0.0,0.0,0.0,0.0,0.0,0.0,0.0,0.0,0.0,0.0,0.0,0.0,0.0,0.0,0.0,0.0,0.0,0.0,0.0,0.0,0.0,0.0,0.0,0.0,0.0,0.0,0.0,0.0,0.0,0.0,0.0,0.0,0.0,0.0,0.0,0.0,0.0,0.0,0.0,0.0,0.0,0.0,0.0,0.0,0.0,0.0,0.0,0.0,0.0,0.0,0.0,0.0,0.0,0.0,0.0,0.0,0.0,0.0,0.0,0.0,0.0,0.0,0.0,0.0,0.0,0.0,0.0,0.0,0.0,0.0,0.0,0.0,0.0,0.0,0.0,0.0,0.0,0.0,0.0,0.0,0.0,0.0,0.0,0.0,0.0,0.0,0.0,0.0,0.0,0.0,0.0,0.0,0.0,0.0,0.0,0.0,0.0,0.0,0.0,0.0,0.0,0.0,0.0,0.0,0.0,0.0,0.0,0.0,0.0,0.0,0.0,0.0,0.0,0.0,0.0,0.0,0.0,0.0,0.0,0.0,0.0,0.0,0.0,0.0,0.0,0.0,0.0,0.0,0.0,0.0,0.0,0.0,0.0,0.0,0.0,0.0,0.0,0.0,0.0,0.0,0.0,0.0,0.0,0.0,0.0,0.0,0.0,0.0,0.0,0.0,0.0,0.0,0.0,0.0,0.0,0.0,0.0,0.0,0.0,0.0,0.0,0.0,0.0,0.0,0.0,0.0,0.0,0.0,0.0,0.0,0.0,0.0,0.0,0.0,0.0,0.0,0.0,0.0,0.0,0.0,0.0,0.0,0.0,0.0,0.0,0.0,0.0,0.0,0.0,0.0,0.0,0.0,0.0,0.0,0.0,0.0,0.0,0.0,0.0,0.0,0.0,0.0,0.0,0.0,0.0,0.0,0.0,0.0,0.0,0.0,0.0,0.0,0.0,0.0,0.0,0.0,0.0,0.0,0.0,0.0,0.0,0.0,0.0,0.0,0.0,0.0,0.0,0.0,0.0,0.0,0.0,0.0,0.0,0.0,0.0,0.0,0.0,0.0,0.0,0.0,0.0,0.0,0.0,0.0,0.0,0.0,0.0,0.0,0.0,0.0,0.0,0.0,0.0,0.0,0.0,0.0,0.0,0.0,0.0,0.0,0.0,0.0,0.0,0.0,0.0,0.0,0.0,0.0,0.0,0.0,0.0,0.0,0.0,0.0,0.0,0.0,0.0,0.0,0.0,0.0,0.0,0.0,0.0,0.0,0.0,0.0,0.0,0.0,0.0,0.0,0.0,0.0,0.0,0.0,0.0,0.0,0.0,0.0,0.0,0.0,0.0,0.0,0.0,0.0,0.0,0.0,0.0,0.0,0.0,0.0,0.0,0.0,0.0,0.0,0.0,0.0,0.0,0.0,0.0,0.0,0.0,0.0,0.0,0.0,0.0,0.0,0.0,0.0,0.0,0.0,0.0,0.0,0.0,0.0,0.0,0.0,0.0,0.0,0.0,0.0,0.0,0.0,0.0,0.0,0.0,0.0,0.0,0.0,0.0,0.0,0.0,0.0,0.0,0.0,0.0,0.0,0.0,0.0,0.0,0.0,0.0,0.0,0.0,0.0,0.0,0.0,0.0,0.0,0.0,0.0,0.0,0.0,0.0,0.0,0.0,0.0,0.0,0.0,0.0,0.0,0.0,0.0,0.0,0.0,0.0,0.0,0.0,0.0,0.0,0.0,0.0,0.0,0.0,0.0,0.0,0.0,0.0,0.0,0.0,0.0,0.0,0.0,0.0,0.0,0.0,0.0,0.0,0.0,0.0,0.0,0.0,0.0,0.0,0.0,0.0,0.0,0.0,0.0,0.0,0.0,0.0,0.0,0.0,0.0,0.0,0.0,0.0,0.0,0.0,0.0,0.0,0.0,0.0,0.0,0.0,0.0,0.0,0.0,0.0,0.0,0.0,0.0,0.0,0.0,0.0,0.0,0.0,0.0,0.0,0.0,0.0,0.0,0.0,0.0,0.0,0.0,0.0,0.0,0.0,0.0,0.0,0.0,0.0,0.0,0.0,0.0,0.0,0.0,0.0,0.0,0.0,0.0,0.0,0.0,0.0,0.0,0.0,0.0,0.0,0.0,0.0,0.0,0.0,0.0,0.0,0.0,0.0,0.0,0.0,0.0,0.0,0.0,0.0,0.0,0.0,0.0,0.0,0.0,0.0,0.0,0.0,0.0,0.0,0.0,0.0,0.0,0.0,0.0,0.0,0.0,0.0,0.0,0.0,0.0,0.0,0.0,0.0,0.0,0.0,0.0,0.0,0.0,0.0,0.0,0.0,0.0,0.0,0.0,0.0,0.0,0.0,0.0,0.0,0.0,0.0,0.0,0.0,0.0,0.0,0.0,0.0,0.0,0.0,0.0,0.0,0.0,0.0,0.0,0.0,0.0,0.0,0.0,0.0,0.0,0.0,0.0,0.0,0.0,0.0,0.0,0.0,0.0,0.0,0.0,4.1879,4.09,0.0,0.0,0.0,0.0,0.0,0.0,0.0,0.0,0.0,0.0,0.0,0.0,0.0,0.0,0.0,0.0,0.0,0.0,0.0,0.0,0.0,0.0,0.0,4.5146,4.5246,4.4669,4.4618,4.4869,4.5447,4.5748,0.0,0.0,0.0,0.0,4.8761,4.9565,5.0117,5.0419,5.0142,5.0017,4.9992,5.0544,5.0368,4.9615,0.0,0.0,0.0,0.0,0.0,0.0,0.0,0.0,0.0,0.0,0.0,0.0,0.0,0.0,0.0,0.0,0.0,0.0,0.0,0.0,0.0,0.0,0.0,0.0,0.0,0.0,0.0,0.0,0.0,0.0,0.0,0.0,0.0,0.0,0.0,0.0,0.0,0.0,0.0,0.0,0.0,0.0,0.0,0.0,0.0,0.0,0.0,0.0,0.0,0.0,0.0,0.0,0.0,0.0,0.0,0.0,0.0,0.0,0.0,0.0,0.0,0.0,0.0,0.0,0.0,0.0,0.0,0.0,0.0,0.0,4.6059,4.423,0.0,0.0,0.0,0.0,0.0,0.0,0.0,0.0,0.0,0.0,0.0,0.0,0.0,0.0,0.0,0.0,0.0,0.0,0.0,0.0,0.0,4.4669,4.4769,4.5296,4.5472,4.5095,4.497,4.5171,4.5723,4.5874,4.6326,4.723,4.7958,4.8535,4.8912,4.9992,5.0469,5.0268,5.0017,5.0268,5.1021,5.2151,5.2,5.0745,5.082,0.0,0.0,0.0,0.0,0.0,0.0,0.0,0.0,0.0,0.0,0.0,0.0,0.0,0.0,0.0,0.0,0.0,0.0,0.0,0.0,0.0,0.0,0.0,0.0,0.0,0.0,0.0,0.0,0.0,0.0,0.0,0.0,0.0,0.0,0.0,0.0,0.0,0.0,0.0,0.0,0.0,0.0,0.0,0.0,0.0,0.0,0.0,0.0,0.0,0.0,0.0,0.0,0.0,0.0,0.0,0.0,0.0,0.0,0.0,0.0,0.0,0.0,0.0,5.2571,5.4677,5.7861,5.7197,5.7298,5.7693,5.2501,4.9748,4.8949,4.9501,0.0,0.0,0.0,0.0,0.0,0.0,0.0,0.0,0.0,0.0,0.0,0.0,0.0,0.0,0.0,0.0,0.0,0.0,0.0,4.4819,4.5321,4.5874,4.6376,4.6778,4.6351,4.6326,4.6878,4.733,4.7657,4.7807,4.9264,4.9891,4.949,5.0594,5.0695,4.9715,5.0619,5.1825,5.3306,5.4436,5.5089,5.5265,5.3432,5.3381,5.4612,0.0,0.0,0.0,0.0,0.0,0.0,0.0,0.0,0.0,0.0,0.0,0.0,0.0,0.0,0.0,0.0,0.0,0.0,0.0,0.0,0.0,0.0,0.0,0.0,0.0,0.0,0.0,0.0,0.0,0.0,0.0,0.0,0.0,0.0,0.0,0.0,0.0,0.0,0.0,0.0,0.0,4.4468,4.4895,0.0,0.0,0.0,0.0,0.0,0.0,0.0,0.0,0.0,0.0,0.0,0.0,0.0,4.8234,5.0268,5.2327,5.4006,5.5353,5.7361,5.9427,6.1297,6.0578,6.2174,6.5435,6.3404,0.0,5.4028,5.1868,0.0,0.0,0.0,0.0,0.0,0.0,0.0,0.0,0.0,0.0,0.0,0.0,0.0,0.0,0.0,0.0,0.0,0.0,0.0,0.0,0.0,4.6326,4.7179,4.7129,4.8636,4.8987,4.7657,4.8962,4.9515,4.8887,4.9264,5.0307,5.191,5.2091,5.2207,5.2362,5.2877,5.3658,5.4662,5.5792,5.662,5.7123,5.6143,5.5591,5.5315,5.4034,0.0,0.0,0.0,0.0,0.0,0.0,0.0,0.0,0.0,0.0,0.0,0.0,0.0,0.0,0.0,0.0,0.0,0.0,0.0,0.0,0.0,0.0,0.0,0.0,0.0,0.0,0.0,0.0,0.0,0.0,0.0,0.0,0.0,0.0,0.0,0.0,0.0,0.0,0.0,4.5773,4.7054,4.6075,4.7079,4.6954,0.0,0.0,0.0,0.0,0.0,0.0,0.0,0.0,0.0,4.9992,5.077,5.18,5.3105,5.4712,5.6729,5.9131,6.0474,6.2943,6.6471,6.6094,6.7516,7.0256,6.9613,6.6964,6.2706,5.9302,5.6698,5.4642,0.0,0.0,0.0,0.0,5.0513,5.1141,0.0,0.0,0.0,0.0,0.0,0.0,0.0,0.0,0.0,0.0,0.0,0.0,4.573,4.7348,4.8407,4.8385,5.0419,5.0921,4.9088,5.0167,5.0469,4.964,4.9615,5.0857,5.353,5.384,5.4443,5.5366,5.5761,5.6171,5.6671,5.7775,5.8604,5.9156,5.9156,5.8227,5.657,5.5315,5.4235,5.3256,0.0,0.0,0.0,0.0,0.0,0.0,0.0,0.0,0.0,0.0,0.0,0.0,0.0,0.0,0.0,0.0,0.0,0.0,0.0,0.0,0.0,0.0,0.0,0.0,0.0,0.0,0.0,0.0,0.0,0.0,0.0,0.0,0.0,0.0,0.0,0.0,0.0,4.8008,4.9414,4.7782,4.9766,5.0017,0.0,0.0,0.0,0.0,0.0,0.0,5.0971,5.1599,5.2678,5.4336,5.5039,5.5817,5.6671,5.7499,5.9311,6.2162,6.2346,6.476,6.8847,6.8847,7.0233,7.2667,7.2667,7.1503,6.9423,6.5443,6.1762,5.8363,5.5859,5.5247,5.5645,5.5072,5.5424,5.6436,0.0,0.0,0.0,0.0,0.0,0.0,0.0,0.0,0.0,0.0,0.0,4.5962,4.8752,4.9494,5.0359,5.1758,5.1021,5.0896,5.1825,5.0519,4.9665,4.959,5.1096,5.2287,5.3002,5.5811,5.7404,5.7736,5.8991,5.9809,6.0085,6.124,6.2044,6.2571,6.2571,6.1642,5.9859,5.6696,5.5917,5.6545,5.3909,0.0,0.0,0.0,0.0,0.0,0.0,0.0,0.0,0.0,0.0,0.0,0.0,0.0,0.0,0.0,0.0,0.0,0.0,0.0,0.0,0.0,0.0,0.0,0.0,0.0,0.0,0.0,0.0,0.0,0.0,0.0,0.0,0.0,0.0,0.0,0.0,0.0,0.0,5.1046,5.2503,0.0,0.0,0.0,0.0,5.0921,5.1975,5.3331,5.5013,5.5616,5.6671,5.8328,5.9433,6.0763,6.2395,6.2471,6.2797,6.359,6.3061,6.3889,6.5972,6.5972,6.8147,7.1912,7.1912,7.1922,7.1427,6.7478,6.4635,6.257,6.054,5.9762,5.9787,5.9762,5.9374,5.883,0.0,0.0,0.0,0.0,0.0,4.0822,4.1257,4.1806,4.3038,4.5416,4.6047,4.7357,5.012,5.1588,5.2691,5.3627,5.4637,5.4938,5.426,5.298,5.2226,5.2226,5.2525,5.432,5.7902,5.9758,6.0866,6.1283,6.1806,6.2064,6.1943,6.2722,6.3375,6.3902,6.4254,6.3701,6.2295,5.9307,5.7449,5.6369,5.4662,5.3532,0.0,0.0,0.0,0.0,0.0,0.0,0.0,0.0,0.0,0.0,0.0,0.0,0.0,0.0,0.0,0.0,0.0,0.0,0.0,0.0,0.0,0.0,0.0,0.0,0.0,0.0,0.0,0.0,0.0,0.0,0.0,0.0,0.0,0.0,0.0,0.0,0.0,5.4863,5.7072,0.0,5.4662,5.4386,5.4411,5.4461,5.5491,5.6997,5.9006,5.9633,6.0688,6.2345,6.2772,6.3274,6.3877,6.355,6.3475,6.3676,6.3099,6.3882,6.5765,6.5765,6.8029,7.1927,7.1927,7.2134,7.2385,7.0081,6.7747,6.5383,6.3378,6.2361,6.2061,6.245,6.2211,6.1702,0.0,0.0,0.0,0.0,4.0364,4.0491,4.0981,4.153,4.2834,4.5416,4.6616,4.8377,5.1469,5.3494,5.498,5.5915,5.6796,5.6846,5.5742,5.3934,5.2955,5.3155,5.4144,5.6456,6.0223,6.2498,6.3461,6.3055,6.3783,6.3778,6.3149,6.3877,6.4404,6.4756,6.5132,6.4906,6.4103,6.2044,5.9784,5.7474,5.5993,5.539,5.5089,0.0,0.0,0.0,0.0,0.0,0.0,0.0,0.0,0.0,0.0,0.0,0.0,0.0,0.0,0.0,0.0,0.0,0.0,0.0,0.0,0.0,0.0,0.0,0.0,0.0,0.0,0.0,0.0,0.0,0.0,0.0,0.0,0.0,0.0,5.3381,5.652,5.7976,6.0763,6.1542,5.8956,5.9056,5.9131,5.8755,5.9759,6.1115,6.2772,6.3199,6.3877,6.4982,6.5032,6.5032,6.5032,6.4304,6.3952,6.3952,6.3199,6.3503,6.479,6.479,6.6567,6.9595,7.0283,7.0989,7.1546,7.1076,6.9752,6.7807,6.5802,6.4755,6.4455,6.4844,6.4605,6.4066,0.0,0.0,0.0,4.1541,4.1541,4.1328,4.066,4.0949,4.2271,4.4863,4.6517,4.8996,5.308,5.5319,5.7152,5.8605,5.7198,5.6219,5.6269,5.313,5.1565,5.2143,5.5977,5.8521,5.9621,6.3763,6.4945,6.2959,6.4819,6.5048,6.3751,6.4806,6.5333,6.5333,6.5383,6.5383,6.5333,6.4806,6.3023,6.0337,5.8077,5.7775,5.8403,0.0,0.0,0.0,0.0,0.0,0.0,0.0,0.0,0.0,0.0,0.0,0.0,0.0,0.0,0.0,0.0,0.0,0.0,0.0,0.0,0.0,0.0,0.0,0.0,0.0,0.0,0.0,0.0,0.0,0.0,0.0,0.0,0.0,5.0393,5.534,5.9232,6.0412,6.3425,6.458,6.2446,6.3199,6.3852,6.3827,6.4781,6.5584,6.6112,6.6137,6.6137,6.6112,6.6112,6.6112,6.6086,6.5007,6.4454,6.4429,6.335,6.2822,6.2822,6.2822,6.3575,6.5127,6.7053,6.8277,6.9142,7.0377,7.05,6.9688,6.7807,6.7029,6.7029,6.6999,6.655,6.5772,0.0,0.0,4.0211,4.0211,4.0211,4.0413,4.1006,4.158,4.2885,4.5469,4.8025,5.0742,5.3726,5.6496,5.8554,5.9734,5.7625,5.657,5.7374,5.3181,5.1641,5.3856,5.5657,5.8402,6.2192,6.4222,6.4908,6.437,6.5739,6.5699,6.4279,6.5383,6.6112,6.6538,6.7342,6.7493,6.7116,6.7367,6.6589,6.4856,6.1416,5.9282,5.7901,0.0,0.0,0.0,0.0,0.0,0.0,0.0,0.0,0.0,0.0,0.0,0.0,0.0,0.0,0.0,0.0,0.0,0.0,0.0,0.0,0.0,0.0,0.0,0.0,0.0,0.0,0.0,0.0,0.0,0.0,0.0,5.1423,5.3306,5.4988,5.8278,6.1667,6.4781,6.7015,6.807,6.7467,6.7317,6.7091,6.6689,6.694,6.699,6.6764,6.6739,6.6538,6.6137,6.6112,6.5911,6.5509,6.4831,6.4279,6.3902,6.3174,6.2822,6.2822,6.2421,6.3271,6.5101,6.659,6.7135,6.7142,6.9347,6.9074,6.7232,6.811,6.8136,6.7657,6.7178,6.5951,6.4485,0.0,3.9697,3.9697,3.9697,3.9898,4.0325,4.115,4.1806,4.292,4.4823,4.8186,5.1251,5.3505,5.6475,5.8629,5.9257,5.6997,5.5616,5.5792,5.308,5.2297,5.4141,5.6367,5.9146,6.2327,6.3757,6.4341,6.4007,6.5198,6.5319,6.4505,6.6086,6.7116,6.7693,6.8572,6.8924,6.8823,6.8924,6.8597,6.7794,6.5308,6.3099,6.109,5.8704,5.7851,5.7725,5.647,5.6746,5.7424,5.5415,0.0,0.0,0.0,0.0,0.0,0.0,0.0,0.0,0.0,0.0,0.0,0.0,0.0,0.0,0.0,0.0,0.0,0.0,0.0,0.0,0.0,0.0,0.0,0.0,5.4813,5.7625,6.0437,6.2044,6.4178,6.7593,6.9476,7.048,7.048,7.0179,6.9677,6.8899,6.8823,6.8396,6.7367,6.7317,6.694,6.6137,6.5886,6.5735,6.5634,6.463,6.4103,6.4002,6.3199,6.2822,6.2822,6.2245,6.2564,6.3467,6.4803,6.5078,6.4745,6.6503,6.6299,6.5135,0.0,0.0,0.0,0.0,6.4994,6.3947,0.0,3.9697,3.9697,3.9697,4.0149,4.0701,4.12,4.1806,4.259,4.3564,4.7581,5.0845,5.2226,5.544,5.7524,5.7524,5.5491,5.3783,5.2804,5.2804,5.3157,5.3883,5.759,6.0138,6.1092,6.2966,6.3594,6.2923,6.4078,6.4655,6.4705,6.6865,6.8196,6.8748,6.93,6.9828,7.033,6.9828,6.9677,6.9677,6.92,6.7869,6.5886,6.2822,6.2446,6.3324,6.1266,6.0035,5.9156,5.7449,0.0,0.0,0.0,0.0,0.0,0.0,0.0,0.0,0.0,0.0,0.0,0.0,0.0,0.0,0.0,0.0,0.0,0.0,0.0,0.0,0.0,0.0,0.0,0.0,5.8202,6.1466,6.5785,6.6086,6.6815,6.9426,7.1133,7.2062,7.2012,7.1937,7.1485,7.043,7.0179,6.9401,6.7869,6.7744,0.0,0.0,0.0,6.5559,6.5936,6.4505,6.3952,6.4279,6.3299,6.2822,6.2822,6.2245,6.1743,6.14,6.266,6.2791,6.2159,6.3003,6.328,6.3347,6.5709,6.6157,6.5381,6.4366,6.3947,6.3827,0.0,3.9697,3.9697,3.9697,4.0149,4.0701,4.12,4.1806,4.2439,4.3062,4.7004,4.954,4.8937,5.2678,5.5214,5.5214,5.3181,5.1825,5.1599,5.2026,5.3293,5.5639,5.8147,6.0048,6.1188,6.2885,6.371,6.3525,6.5057,6.5785,6.5835,6.7618,6.8748,6.93,6.9853,7.0405,7.0907,7.0807,7.1033,7.1435,7.1309,6.9476,6.6639,6.5082,6.3877,6.2873,6.1994,6.2672,6.3676,6.1592,6.1642,6.2094,5.9533,5.7273,0.0,0.0,0.0,0.0,0.0,0.0,0.0,0.0,0.0,0.0,0.0,0.0,0.0,0.0,0.0,0.0,0.0,0.0,0.0,5.8755,6.1341,6.4103,6.7643,6.8798,6.9828,7.1259,7.2514,7.3092,7.2615,7.2163,7.1636,7.0983,6.9677,6.8597,6.7844,6.7367,6.6815,6.6137,6.6011,6.5584,6.4806,6.4479,6.3927,6.3149,6.2923,0.0,6.2822,6.2245,6.1943,6.1873,6.2842,6.1986,6.0202,6.2506,6.2535,6.1475,6.33,6.337,6.2509,6.3595,6.3677,6.3228,0.0,3.9697,3.9697,3.9697,4.0375,4.0974,4.125,4.2032,4.276,4.3313,4.5561,4.7365,4.787,4.9463,5.0814,5.1607,5.0393,4.9841,5.0393,5.2251,5.431,5.652,5.9282,6.114,6.1994,6.3375,6.4203,6.4479,6.5308,6.5986,6.6564,6.7693,6.8798,6.9878,7.043,7.1309,7.2339,7.2339,7.2665,7.3167,7.3167,7.2163,7.0506,6.8823,6.7518,6.6488,6.5936,6.5911,6.5911,6.453,6.4228,6.4078,6.1868,6.0035,5.8378,0.0,0.0,0.0,0.0,0.0,0.0,0.0,0.0,0.0,0.0,0.0,0.0,0.0,0.0,5.2176,5.3858,0.0,5.8554,6.1868,6.4279,6.6714,6.9476,7.0556,7.1284,7.1836,7.264,7.2941,7.2364,7.1811,7.1259,7.0706,6.9401,6.8396,6.7819,6.7267,6.6714,6.6137,6.5835,6.5434,6.4881,6.4354,6.3802,6.3249,6.2973,6.2822,6.2822,6.2245,6.1994,6.2024,6.1862,6.1043,5.9939,6.0471,5.9457,5.7884,5.9515,6.075,6.1553,6.2051,6.2617,6.3079,0.0,3.9697,3.9697,3.9697,4.0526,4.1175,4.1275,4.2183,4.3011,4.3564,4.4252,4.5132,4.6414,4.5983,4.6157,4.7432,4.7783,4.8586,5.0142,5.3256,5.5942,5.7926,6.0889,6.2697,6.3149,6.4228,6.5007,6.5459,6.5785,6.6413,6.7317,6.797,6.91,7.0606,7.1158,7.2263,7.3745,7.3745,7.4071,7.4573,7.4573,7.4649,7.4523,7.2615,7.1485,7.0807,7.0029,6.8572,6.6915,6.6564,6.5634,6.4479,6.3576,6.2697,6.1466,5.878,5.7876,0.0,0.0,0.0,0.0,0.0,0.0,0.0,0.0,5.2251,5.2779,5.4084,5.4612,5.5566,5.7926,5.9809,6.1918,6.4655,6.6815,6.8848,7.0958,7.1535,7.1786,7.1887,7.2489,7.264,7.1962,7.151,7.0958,7.0305,6.925,6.8396,6.7819,6.7267,6.6714,6.6137,6.5685,6.5358,6.5132,6.4279,6.3726,6.3525,6.3048,6.2822,6.2822,6.237,6.2169,6.2094,6.0864,6.0211,5.9885,5.8353,5.6595,5.5005,5.615,5.8196,6.0506,6.0467,6.1377,6.2613,0.0,3.9697,3.9697,3.9697,4.0199,4.0777,4.12,4.1856,4.2489,4.2986,4.3944,4.382,4.1818,4.2352,4.2928,4.3132,4.6019,4.9238,5.2352,5.5189,5.8152,6.1316,6.3224,6.4228,6.4279,6.5358,6.5961,6.6011,6.7518,6.8321,6.8447,6.9501,7.0606,7.1736,7.2288,7.3217,7.4322,7.4322,7.4649,7.5151,7.5151,7.5427,7.5778,7.505,7.4121,7.3016,7.146,6.9225,6.7041,6.7467,6.6538,6.5509,6.7317,6.6488,6.4379,6.2119,5.9408,5.6495,5.3532,5.1373,5.0142,5.0896,5.1147,5.185,0.0,5.5691,5.6445,5.662,5.7826,5.9081,5.991,6.1843,6.4228,6.699,6.8447,6.9853,7.1585,7.1435,7.1359,7.1836,7.2841,7.3067,7.2012,7.1861,7.1384,7.0355,6.925,6.8396,6.7819,6.7267,6.6714,6.6137,6.6061,6.5559,6.4555,6.4429,6.3877,6.2923,6.2873,6.2822,6.2822,6.2772,6.2747,6.2647,6.1014,5.9784,5.8805,5.7625,5.6696,5.5917,5.5152,5.5736,5.7168,5.9578,6.06,6.099,0.0,0.0,3.9697,3.9697,3.9417,3.9668,4.1093,4.1046,4.0964,4.1103,4.1542,4.1411,4.0326,4.1136,4.1403,4.0559,4.4442,4.8535,5.2201,5.5641,5.9006,6.2345,6.4053,6.5082,6.5409,6.6212,6.694,6.7568,6.8271,6.8949,6.9577,7.0054,7.1008,7.2389,7.2615,7.3544,7.49,7.49,7.5402,7.6205,7.6205,7.6331,7.6406,7.5201,7.3468,7.1485,7.0129,6.7869,0.0,6.5434,6.5132,6.5082,6.6664,6.5886,6.3927,6.1667,5.9357,5.6796,5.3381,5.1774,5.1172,5.1649,5.3206,5.5114,5.6922,5.7926,5.883,6.0136,6.0964,6.2094,6.4279,6.5434,6.689,6.9325,7.0104,7.0857,7.2188,7.1636,7.0807,7.0079,7.0405,7.0757,7.0932,7.0958,7.0506,6.9376,6.8572,6.7894,6.7342,6.6789,6.6363,6.6112,6.6112,6.5584,6.4479,6.4454,6.3927,6.2822,6.2822,6.2822,6.2822,6.2822,6.2471,6.1818,6.0763,5.9709,5.8654,5.7851,5.7022,5.6093,5.4988,5.4676,5.5005,5.685,5.8765,6.06,0.0,0.0,0.0,4.0047,3.8323,3.7809,4.0628,4.0306,3.989,4.0371,4.0114,3.9349,3.825,3.9038,3.9176,3.797,4.2248,4.6737,5.0943,5.5124,5.9056,6.2672,6.4555,6.5785,6.6338,6.7216,6.812,6.9074,6.9376,7.0003,7.0958,7.1108,7.1912,7.3192,7.3343,7.4197,7.5477,7.5628,7.6155,7.6883,7.6883,7.6607,7.5979,7.4021,7.1359,6.8547,6.7769,6.5409,6.2596,6.222,6.2144,6.2471,6.4028,6.3827,6.2596,6.0487,5.8378,5.6118,5.3306,5.2553,5.2729,5.3507,5.5616,5.7951,5.9709,6.0613,6.1642,6.3576,6.3977,6.4806,6.7518,6.802,6.8698,7.0757,7.1209,7.1535,7.2188,7.1184,6.9727,6.7919,6.7292,6.7392,6.8346,6.915,6.9325,6.8673,6.812,6.7618,6.7216,6.6664,6.6287,6.6112,6.6112,6.5584,6.4479,6.4454,6.3927,6.2822,6.2822,6.2822,6.2822,6.2672,6.2069,6.114,6.0563,5.9784,5.8905,5.8353,5.7549,5.657,5.5465,5.4587,5.3998,5.467,5.6704,5.9138,0.0,0.0,0.0,0.0,3.6828,3.4913,3.9791,3.9745,3.9871,4.1838,4.0755,3.8273,3.4338,3.4843,3.5268,3.471,3.8961,4.3839,4.8656,5.3508,5.8227,6.2647,6.4931,6.6363,6.694,6.8547,6.9652,7.0204,7.1284,7.2087,7.2665,7.3217,7.3795,7.4397,7.4925,7.5477,7.608,7.6607,7.6833,7.6883,7.6883,7.5929,7.4197,7.1435,6.7995,6.463,6.4605,6.1793,5.8102,5.8077,5.7349,5.6922,5.9633,6.0839,6.0939,5.9257,5.642,5.3808,5.3683,5.3658,5.431,5.7047,5.8202,5.9533,6.2797,6.4354,6.5434,6.6614,6.684,6.7216,6.8396,6.8597,6.915,7.0807,7.1535,7.1711,7.1209,6.9727,6.7869,6.566,6.3977,6.3249,6.3827,6.6312,6.807,6.8572,6.812,6.7794,6.7769,6.7241,6.6689,6.6137,6.6112,6.5584,6.4479,6.4454,6.3927,6.2822,6.2822,6.2822,6.2822,6.227,6.1718,6.114,6.0563,6.001,5.9433,5.8905,5.8353,5.775,5.6595,5.5491,5.4532,5.3954,5.4492,5.5814,0.0,0.0,0.0,0.0,0.0,3.5443,3.8089,3.8013,3.8208,3.9816,3.9563,0.0,0.0,0.0,0.0,0.0,3.7911,4.1607,4.5249,4.9549,5.3813,5.813,6.1241,6.3755,6.5835,6.7493,6.8798,6.9727,7.0832,7.1636,7.2213,7.3142,7.3895,7.4448,7.5,7.5753,7.6582,7.6406,7.613,7.5728,7.5,7.392,7.2439,6.9677,6.576,6.1492,0.0,5.7097,5.4486,5.3758,5.3507,5.3833,5.5867,5.6646,5.6545,5.5265,5.4587,5.4285,5.4285,5.5867,5.7951,5.9659,6.1868,6.4028,6.5534,6.6438,6.6965,6.6965,6.581,6.5132,6.6212,6.6112,6.6538,6.8572,6.9677,7.0204,7.0029,6.92,6.7116,6.3048,6.3048,6.2596,6.0588,6.3224,6.5609,6.6865,6.7141,6.7091,6.6689,6.6865,6.6714,6.6137,6.576,6.5208,6.4479,6.4128,6.3576,6.2822,6.2822,6.2822,6.2822,6.2245,6.1692,6.114,6.0563,6.001,5.9433,5.8554,5.8052,5.7725,5.5842,5.4888,5.4461,5.3532,5.3374,5.3987,0.0,0.0,0.0,0.0,0.0,0.0,0.0,0.0,0.0,0.0,0.0,0.0,0.0,0.0,0.0,0.0,0.0,3.8768,4.1727,4.5489,4.9313,5.3265,5.623,5.9069,6.1862,6.338,6.5035,6.6789,6.8095,6.92,7.0179,7.1284,7.2213,7.2966,7.3519,7.4247,7.5075,7.4724,7.4146,7.3318,7.1836,7.0204,6.8321,6.5157,6.1341,0.0,5.4561,5.2503,5.1046,5.0544,5.0619,5.1122,5.2402,5.3055,5.3457,5.3733,5.4461,5.5415,5.6595,5.893,6.1366,6.2873,6.5157,6.7091,6.7493,6.7693,6.7467,6.6312,6.4329,6.2873,6.3174,6.2446,6.2747,6.5559,6.6614,6.7417,6.8422,6.7568,6.5509,6.1893,6.1743,6.1215,5.9458,6.104,6.3199,6.5634,6.6162,6.6388,6.6413,6.6589,6.6488,6.6112,6.5584,6.5032,6.4479,6.3952,6.34,6.2822,6.2822,6.2822,6.2822,6.2245,6.1692,6.114,6.0563,5.991,5.9156,5.8478,5.7951,5.7424,5.5792,5.4913,5.4461,5.3532,5.308,5.3042,0.0,0.0,0.0,0.0,0.0,0.0,0.0,0.0,0.0,0.0,0.0,0.0,0.0,0.0,0.0,0.0,0.0,0.0,3.806,4.1551,4.4864,4.8095,5.0307,5.2742,5.5602,5.6734,5.8782,6.1657,6.3235,6.4838,6.6577,6.7454,6.853,6.9671,7.0105,7.068,7.1181,7.1156,7.0598,6.9511,6.7355,6.4897,6.2169,5.8378,5.5265,5.2528,4.9866,4.846,4.7958,4.8535,4.8786,4.8962,4.9515,5.0444,5.19,5.4662,5.5942,5.7173,6.0462,6.2647,6.4479,6.6589,6.7919,6.8673,6.8597,6.8095,6.699,6.4731,6.2446,6.0487,5.9357,5.7951,5.8202,6.2069,6.2873,6.3927,6.6614,6.5233,6.3475,6.2169,6.0261,5.9408,6.0286,5.996,6.124,6.4982,6.5258,6.5735,6.6865,6.6438,6.6137,6.6112,6.5559,6.4982,6.4479,6.3927,6.3375,6.2822,6.2822,6.2822,6.2822,6.2245,6.1692,6.114,6.0563,5.9734,5.8755,5.8704,5.8027,5.6972,5.6369,5.5465,5.4461,5.3884,5.3356,5.2929,0.0,0.0,0.0,0.0,0.0,0.0,0.0,0.0,0.0,0.0,0.0,0.0,0.0,0.0,0.0,0.0,0.0,0.0,3.5116,3.7564,4.036,4.3485,4.6485,4.9295,5.1954,5.3181,5.4995,5.7455,5.6724,5.7615,5.999,5.9427,5.9474,6.0002,6.0631,6.1151,6.1599,6.1222,6.1159,6.1314,5.9917,5.925,5.8905,5.6671,5.4361,5.2176,5.1046,4.9213,4.7405,4.7958,4.8962,5.0092,5.067,5.1624,5.3055,5.5817,5.8177,6.0462,6.2948,6.576,6.812,6.8673,6.9325,6.9526,6.8296,6.6614,6.458,6.1918,5.8654,5.5917,5.4813,5.5265,5.6947,6.0387,6.34,6.5685,6.6815,6.7191,6.6036,6.2446,6.2948,6.2923,6.114,6.1969,6.3199,6.458,6.468,6.5157,6.6262,6.6614,6.6564,6.6137,6.5183,6.4605,6.4454,6.3525,6.2973,6.2822,6.2822,6.2822,6.2822,6.2245,6.1692,6.114,6.0563,5.9935,5.9232,5.8428,5.7675,5.6897,5.5516,5.4561,5.3858,5.3331,5.303,5.2929,0.0,0.0,0.0,0.0,0.0,0.0,0.0,0.0,0.0,0.0,0.0,0.0,0.0,0.0,0.0,0.0,0.0,0.0,0.0,3.5176,3.6995,3.8945,4.1316,4.3742,4.6029,4.6905,4.8987,5.2399,5.0717,5.1635,5.4751,5.3357,5.3188,5.4105,5.4609,5.5726,5.7064,5.6549,5.6748,0.0,0.0,5.504,5.4838,5.3406,5.1925,5.0594,5.0293,4.9339,4.841,4.969,5.0745,5.1774,5.3331,5.4737,5.6445,5.9709,6.1943,6.3927,6.6639,6.8924,7.0455,7.0229,7.0029,6.9225,6.6589,6.4254,6.1642,5.8127,5.4938,5.2327,5.0971,5.1875,5.4009,5.7575,6.0989,6.4002,6.6287,6.6915,6.6413,6.4429,6.4831,6.4781,6.3475,6.3776,6.4454,6.5484,6.4881,6.4957,6.6061,6.6413,6.6438,6.6112,6.5032,6.4228,6.3751,6.3149,6.2822,6.2822,6.2822,6.2822,6.2822,6.2496,6.1943,6.1165,6.0839,5.996,5.8755,5.8152,5.7424,5.652,5.5114,5.4361,5.3984,5.3206,5.2929,5.2929,0.0,0.0,0.0,0.0,0.0,0.0,0.0,0.0,0.0,0.0,3.3757,0.0,0.0,0.0,0.0,0.0,0.0,0.0,0.0,0.0,3.4902,3.5371,3.6562,3.7978,3.9729,4.0104,4.2388,4.6849,4.5302,4.6516,5.0128,4.8354,4.8423,4.9966,4.9936,5.1546,5.4265,5.356,5.3951,5.478,5.2884,5.1697,5.0946,0.0,4.9188,4.8761,4.8761,4.9088,4.9866,5.2402,5.3406,5.4059,5.6746,5.883,6.0989,6.4655,6.6162,6.7342,7.0455,7.1761,7.2062,7.1284,7.0079,6.8095,6.4228,6.1391,5.8353,5.4135,5.1523,4.949,4.7883,4.8636,5.0795,5.4838,5.7876,6.1291,6.581,6.6036,6.6086,6.7066,6.6262,6.581,6.6287,6.5409,6.5434,6.6965,6.5584,6.5132,6.6187,6.6162,6.6036,6.5886,6.4906,6.3877,6.2847,6.2822,6.2822,6.2822,6.2822,6.2822,6.2822,6.2747,6.2144,6.119,6.1115,5.991,5.8001,5.7926,5.7223,5.6093,5.4988,5.4511,5.4336,5.3306,5.2929,5.2929,0.0,0.0,0.0,0.0,0.0,0.0,0.0,0.0,0.0,0.0,3.5146,3.2846,0.0,0.0,0.0,0.0,0.0,0.0,0.0,0.0,0.0,3.5371,3.6289,3.7143,3.7757,3.7836,3.9036,4.128,4.1075,4.2264,4.4618,4.2892,4.3241,4.5124,4.2178,4.2864,4.6071,4.4398,4.554,4.8435,4.7983,4.8656,4.9816,4.9163,0.0,0.0,4.8761,4.8837,4.954,5.3582,5.5892,5.7449,5.9734,6.222,6.4781,6.7292,6.8748,6.9953,7.1912,7.3192,7.3519,7.156,6.9225,6.6388,6.2496,5.8478,5.4687,5.1624,4.9238,4.733,4.6125,4.7556,5.0494,5.529,5.878,6.2596,6.7493,6.8095,6.812,6.8321,6.7769,6.7392,6.7493,6.6915,6.684,6.7593,6.6513,6.6112,6.6789,6.6363,6.5685,6.4781,6.4153,6.35,6.2847,6.2822,6.2822,6.2822,6.2822,6.2822,6.2822,6.2345,6.1793,6.1165,6.0663,5.9759,5.8554,5.8077,5.7223,5.6093,5.4988,5.4285,5.3783,5.3155,5.2929,5.2929,0.0,0.0,0.0,0.0,0.0,0.0,0.0,3.5728,3.7062,4.049,3.936,3.7298,3.4862,3.3922,3.3196,0.0,0.0,0.0,0.0,0.0,0.0,0.0,3.6211,3.6758,3.6973,3.7187,3.8467,4.0766,0.0,4.1348,4.3803,4.2408,4.2498,4.3645,4.1877,4.2748,4.5389,4.3542,4.4914,4.8216,4.7532,4.8172,4.964,0.0,0.0,0.0,4.9314,4.9389,5.0117,5.3406,5.657,5.9709,6.2772,6.566,6.8321,7.0556,7.1585,7.2364,7.3996,7.4649,7.4322,7.2062,6.8773,6.4931,6.0487,5.5817,5.1624,4.8862,4.6979,4.5673,4.5146,4.7079,4.9741,5.2703,5.5993,5.991,6.4906,6.586,6.6789,6.8798,6.8823,6.8648,6.8648,6.8145,6.7945,6.8221,6.7191,6.6689,6.6965,6.6438,6.5735,6.4931,6.4379,6.3827,6.3274,6.2973,6.2822,6.2822,6.2822,6.2822,6.2822,6.2546,6.1969,6.1165,6.0889,5.9985,5.8679,5.8127,5.7399,5.6495,5.5114,5.4386,5.4059,5.3231,5.2929,5.2929,0.0,0.0,0.0,0.0,0.0,0.0,3.7166,3.6948,3.8092,4.2814,4.372,4.2427,3.8334,3.6701,3.5086,0.0,0.0,0.0,0.0,0.0,0.0,0.0,0.0,0.0,3.668,0.0,0.0,4.0705,4.0522,0.0,0.0,0.0,0.0,0.0,4.3714,4.4751,4.6732,4.5254,4.6426,0.0,0.0,4.8984,5.0042,0.0,0.0,0.0,0.0,4.969,5.0393,5.2628,5.5817,5.9533,6.3199,6.7241,7.0907,7.2439,7.3393,7.4247,7.5678,7.5728,7.4824,7.2339,6.8221,6.345,5.8504,5.3406,4.8987,4.6476,4.5146,4.4443,4.4443,4.6225,4.8259,4.9967,5.2754,5.6595,6.2069,6.3425,6.5258,6.8999,6.9351,6.93,6.9336,6.8949,6.8622,6.8622,6.7593,6.6915,6.6789,6.6237,6.5735,6.5308,6.4655,6.4103,6.3701,6.3124,6.2822,6.2822,6.2822,6.2822,6.2822,6.2822,6.222,6.119,6.119,6.0186,5.8504,5.8077,5.7499,5.6721,5.529,5.4662,5.4436,5.3457,5.303,5.2929,0.0,0.0,0.0,0.0,0.0,0.0,3.8379,3.8065,3.9388,4.5502,4.6347,4.5073,4.1721,3.9476,3.6728,0.0,0.0,0.0,0.0,0.0,0.0,0.0,0.0,0.0,0.0,0.0,0.0,3.8255,4.0226,0.0,0.0,0.0,0.0,0.0,0.0,4.5072,4.6798,4.6599,0.0,0.0,0.0,0.0,0.0,0.0,0.0,0.0,0.0,4.8887,4.9264,5.1498,5.3155,5.4813,5.7725,6.468,7.161,7.0807,7.2715,7.5226,7.5879,7.603,7.5201,7.1962,6.7066,6.1743,5.6746,5.1373,4.6928,4.5146,4.4292,4.3865,4.3865,4.4091,4.5447,4.9088,5.1222,5.4838,6.1843,6.3726,6.566,6.9049,6.8999,6.8899,6.9311,6.8949,6.8622,6.8622,6.7593,6.6739,6.6212,6.566,6.5333,6.5283,6.4304,6.3751,6.3701,6.3124,6.2822,6.2822,6.2822,6.2822,6.2822,6.2822,6.222,6.119,6.119,5.996,5.7976,5.7926,5.7273,5.6219,5.5566,5.5013,5.4486,5.3858,5.3331,5.2929,0.0,0.0,0.0,0.0,0.0,0.0,3.77,3.765,3.9109,4.4959,4.6379,4.5698,4.263,4.1385,3.9147,3.4984,0.0,0.0,0.0,0.0,0.0,0.0,0.0,0.0,0.0,0.0,3.7637,3.832,4.1453,0.0,0.0,0.0,0.0,0.0,0.0,4.7178,4.6732,4.5659,0.0,0.0,0.0,0.0,0.0,0.0,0.0,0.0,0.0,0.0,4.8862,4.9389,5.077,5.2251,5.2377,5.7248,6.3651,6.7241,6.9702,7.1887,7.4774,7.5804,7.5251,7.1912,6.6664,6.1215,5.6872,5.082,4.5849,4.4844,4.3915,4.3313,4.3313,4.3313,4.3915,4.5799,4.6954,4.9665,5.5541,5.7047,5.9859,6.6187,6.6463,6.7116,6.9677,6.9451,6.8848,6.817,6.7091,6.6363,6.6112,6.5911,6.5785,6.5785,6.5057,6.4505,6.4153,6.3626,6.3174,6.2822,6.2822,6.2822,6.2822,6.2496,6.1918,6.114,6.0462,5.9483,5.8353,5.765,5.6922,5.6118,5.5239,5.4536,5.3984,5.3432,5.3105,5.2929,0.0,0.0,0.0,0.0,0.0,3.2535,3.6875,3.6897,3.8182,4.3203,4.4777,4.4656,4.2564,4.1762,4.0082,3.7002,3.5224,0.0,0.0,0.0,0.0,0.0,0.0,0.0,0.0,0.0,3.791,3.8769,4.1414,4.2732,0.0,0.0,4.7628,4.6274,0.0,0.0,0.0,0.0,0.0,0.0,0.0,0.0,0.0,0.0,0.0,0.0,0.0,0.0,0.0,0.0,0.0,4.8763,4.7066,4.9639,5.4739,6.1908,6.5986,6.8949,7.274,7.4649,7.4799,7.1636,6.6137,6.0437,5.6394,5.0167,4.502,4.4292,4.3514,4.2986,4.2986,4.2986,4.3162,4.3714,4.4418,4.6502,5.1197,5.2603,5.5742,6.2747,6.3375,6.4705,6.8422,6.8899,6.8572,6.7618,6.6664,6.6112,6.6112,6.6112,6.6036,6.5886,6.5333,6.4781,6.4254,6.3701,6.3224,6.2822,6.2822,6.2822,6.2822,6.2245,6.1692,6.1115,5.9985,5.9106,5.8403,5.7424,5.662,5.5892,5.5114,5.4361,5.3658,5.3281,5.3055,5.2929,0.0,0.0,0.0,0.0,0.0,0.0,3.6433,3.6071,3.6789,4.0444,4.1425,4.1749,4.1658,4.014,3.9097,3.8984,3.6323,0.0,0.0,0.0,0.0,0.0,0.0,0.0,0.0,0.0,3.834,3.9199,3.9273,3.9508,4.0033,4.3875,4.5303,4.488,0.0,0.0,0.0,0.0,0.0,0.0,0.0,0.0,5.2051,0.0,0.0,0.0,0.0,0.0,0.0,0.0,0.0,0.0,0.0,4.287,4.6326,5.4661,6.1818,6.7467,6.9702,7.2339,7.377,7.0958,6.5258,5.9182,5.4737,4.9012,4.4317,4.3212,4.2986,4.2986,4.2986,4.2986,4.3162,4.3714,4.4744,4.6828,5.0745,5.2678,5.5164,5.9081,6.0035,6.1667,6.5032,6.684,6.7593,6.7015,6.6438,6.6112,6.6112,6.6112,6.586,6.5308,6.4756,6.4228,6.3701,6.3124,6.2847,6.2822,6.2822,6.2822,6.2822,6.2245,6.1692,6.1115,5.9985,5.888,5.7851,5.7273,5.6394,5.539,5.539,5.4687,5.3708,5.3683,5.3356,5.2929,0.0,0.0,0.0,0.0,0.0,0.0,3.3516,3.3918,3.4693,3.6416,3.7875,3.8808,3.9054,3.8337,3.7866,3.7868,3.5874,0.0,0.0,0.0,0.0,0.0,0.0,0.0,0.0,3.7715,3.834,3.9199,4.0484,4.2053,4.3824,4.628,4.7376,4.7443,4.9921,4.9692,0.0,0.0,0.0,0.0,0.0,5.0604,5.1523,0.0,0.0,0.0,0.0,0.0,0.0,0.0,0.0,0.0,0.0,0.0,0.0,4.6641,5.3157,6.0186,6.2772,6.4957,6.5835,6.3073,5.9056,5.5039,5.2126,4.7908,4.4418,4.3689,4.3237,4.2986,4.2986,4.2986,4.3413,4.4744,4.5573,4.6728,4.8711,5.1699,5.529,5.9583,6.458,6.7794,6.8095,6.7919,6.7568,6.7015,6.6438,6.6112,6.6112,6.576,6.5484,6.5308,6.5107,6.4605,6.3701,6.35,6.3224,6.2822,6.2822,6.2621,6.2245,6.1692,6.114,6.0512,5.9031,5.8202,5.7826,5.6872,5.5817,5.4838,5.4838,5.416,5.3181,5.3181,5.308,5.2929,0.0,0.0,0.0,0.0,0.0,0.0,3.2148,3.2871,3.3613,3.4141,3.5312,3.6484,3.7578,3.6719,3.6465,3.7441,3.5957,0.0,0.0,0.0,0.0,0.0,0.0,0.0,3.7519,3.7949,3.8828,4.0176,4.2439,4.44,4.6164,4.9116,4.9984,4.9149,5.1036,5.0819,0.0,0.0,0.0,0.0,4.9039,5.019,5.0946,0.0,0.0,0.0,0.0,0.0,0.0,0.0,0.0,0.0,0.0,0.0,0.0,0.0,4.781,5.3718,5.6674,5.8995,6.0218,5.8777,5.5892,5.2779,5.0343,4.7104,4.4418,4.3639,4.3212,4.2986,4.2986,4.2986,4.3313,4.4367,4.4819,4.5648,4.738,5.0419,5.4361,5.9433,6.5107,6.8246,6.7367,6.7392,6.7267,6.6689,6.6312,6.6011,6.581,6.5484,6.5107,6.4705,6.468,6.4254,6.3375,6.3375,6.3174,6.2822,6.2822,6.2546,6.1994,6.1441,6.0763,5.9935,5.8504,5.7775,0.0,5.6595,5.5566,5.4561,5.4561,5.3884,5.2929,5.2929,5.2929,5.2929,0.0,0.0,0.0,0.0,0.0,0.0,0.0,3.2871,3.3418,3.3379,3.375,3.4785,3.6797,3.5273,3.5098,3.7539,3.6328,0.0,0.0,0.0,0.0,0.0,0.0,0.0,3.7871,3.834,3.959,4.166,4.4448,4.6152,4.7103,5.1661,5.2533,5.0388,5.2218,5.2359,5.113,4.9842,4.9246,4.913,4.9246,4.9772,0.0,0.0,0.0,0.0,0.0,0.0,0.0,0.0,0.0,0.0,0.0,0.0,0.0,0.0,0.0,0.0,0.0,5.4234,5.6488,5.695,5.4737,5.1749,4.9088,4.6476,0.0,4.3212,4.2986,4.2986,4.2986,4.2986,4.3037,4.3187,4.3212,4.4141,4.6803,4.9389,5.3256,5.9307,6.2873,6.458,6.3977,6.576,6.6739,6.6162,6.6112,6.5886,6.5333,6.5258,6.4756,6.3726,6.3651,6.3375,6.2847,6.2822,6.2822,6.2822,6.2797,6.2471,6.1918,6.1366,6.0512,5.9382,5.8353,5.7575,5.6997,5.6445,5.5566,5.4561,5.4561,5.3884,5.2929,5.2929,5.2929,5.2929,0.0,0.0,0.0,0.0,0.0,0.0,0.0,0.0,0.0,0.0,3.3301,3.3769,3.4277,3.4453,3.4941,0.0,0.0,0.0,0.0,0.0,0.0,0.0,0.0,0.0,3.7441,3.8184,3.916,4.0351,4.1693,4.4375,4.8332,5.0126,5.1906,5.357,5.4019,5.2738,5.0307,5.1058,5.0811,4.9888,5.0945,5.1245,0.0,0.0,0.0,0.0,4.9439,4.9138,0.0,0.0,0.0,0.0,0.0,0.0,0.0,0.0,4.1209,4.3223,4.5314,0.0,4.9884,4.916,4.8435,4.7456,0.0,4.5095,4.4317,4.3212,4.2986,4.2986,4.2986,4.2986,4.3539,4.5246,4.5522,4.605,4.7531,5.2929,5.883,6.453,6.7041,6.7744,6.6338,6.6664,6.6739,6.6162,6.6112,6.5886,6.5333,6.4881,6.4354,6.3701,6.3249,6.2973,6.2822,6.2822,6.2822,6.2822,6.2395,6.1918,6.1366,6.0788,5.9935,5.8855,5.8202,5.7575,5.6997,5.6445,5.5566,5.4561,5.4561,5.3884,5.2929,5.2929,5.2929,5.2929,0.0,0.0,0.0,0.0,0.0,0.0,0.0,0.0,0.0,0.0,3.3457,3.3789,3.3984,3.4414,3.5039,0.0,0.0,0.0,0.0,0.0,0.0,0.0,0.0,3.7383,3.7578,3.8418,3.9919,4.2059,4.32,4.6223,5.0994,5.1624,5.2842,5.4607,5.4034,5.2874,5.1349,5.2167,5.193,5.1052,5.1793,0.0,0.0,0.0,0.0,0.0,4.8347,4.7603,0.0,4.344,4.239,4.1772,0.0,0.0,0.0,0.0,4.1629,4.2706,4.4436,4.5428,4.6056,4.627,4.6301,4.6075,4.5221,4.502,4.4694,4.3589,4.3363,4.3263,4.3037,4.2986,4.3463,4.492,4.5372,4.6803,5.0444,5.5641,6.0839,6.5634,6.7216,6.7668,6.7041,6.6739,6.6438,6.6137,6.5886,6.5484,6.4931,6.4404,6.3852,6.3299,6.2998,6.2822,6.2822,6.2822,6.2697,6.2446,6.2144,6.1567,6.0788,6.0462,5.9608,5.8328,5.8027,5.7424,5.662,5.6344,5.5566,5.4561,5.4561,5.3884,5.2929,5.2929,5.2929,5.2929,0.0,0.0,0.0,0.0,0.0,0.0,0.0,0.0,0.0,0.0,0.0,0.0,0.0,0.0,0.0,0.0,0.0,0.0,0.0,0.0,0.0,0.0,3.7031,3.75,3.791,3.8769,4.0769,4.4023,4.5639,4.8746,5.3246,5.395,5.4482,5.4888,5.3808,5.3155,5.2929,5.2929,5.2653,5.2226,5.2126,0.0,0.0,0.0,0.0,0.0,0.0,0.0,0.0,4.2031,4.1736,4.1904,4.0098,0.0,0.0,0.0,0.0,0.0,4.5539,4.4801,4.3921,4.5842,4.6301,4.6175,4.5623,4.5497,4.5196,4.4141,4.3915,4.379,4.3313,4.3363,4.3664,4.4217,4.5121,4.8033,5.4536,5.8001,6.1215,6.4856,6.5936,6.6463,6.6689,6.6338,6.6112,6.6112,6.5609,6.5057,6.4505,6.3977,6.3425,6.2847,6.2822,6.2797,6.2697,6.2697,6.2471,6.1994,6.1818,6.1215,6.0186,6.0111,5.9232,5.7775,5.7775,5.7173,5.6194,5.6118,5.5491,5.4561,5.4461,5.3808,5.2929,5.2929,5.2929,5.2929,0.0,0.0,0.0,0.0,0.0,0.0,0.0,0.0,0.0,0.0,0.0,0.0,0.0,0.0,0.0,0.0,0.0,0.0,0.0,0.0,0.0,3.6113,3.6875,3.75,3.791,3.8769,3.9837,4.1144,4.3595,4.7108,5.1637,5.3859,5.546,5.6595,5.5516,5.4235,5.2929,5.2929,5.2879,5.2754,5.2302,0.0,0.0,0.0,0.0,0.0,0.0,0.0,0.0,4.243,4.0947,4.0188,3.8297,0.0,0.0,0.0,0.0,0.0,4.4138,4.3919,4.3169,4.5686,4.6301,4.6175,4.5623,4.5497,4.5296,4.4644,4.4493,4.4468,4.4392,4.5146,4.5974,4.6527,4.9063,5.2929,5.8629,6.0688,6.2521,6.5007,6.6614,6.7015,6.5685,6.5886,6.6112,6.6112,6.5609,6.5057,6.4505,6.3977,6.3425,6.2847,6.2822,6.2596,6.2144,6.2119,6.2094,6.1994,6.104,6.0236,5.9608,5.9156,5.8303,5.7173,5.7173,5.6796,5.6168,5.5717,5.5139,5.4511,5.4034,5.3457,5.2929,5.2929,5.2929,5.2929,0.0,0.0,0.0,0.0,0.0,0.0,0.0,0.0,0.0,0.0,0.0,0.0,0.0,0.0,0.0,0.0,0.0,0.0,0.0,0.0,3.6328,3.7012,3.7207,3.7383,3.7578,3.9355,4.1319,4.3485,4.4976,4.8754,5.4511,5.5602,5.6066,5.602,5.3611,5.2057,5.1303,5.1303,5.1303,5.1394,0.0,0.0,0.0,0.0,0.0,0.0,0.0,0.0,0.0,0.0,3.9101,3.8396,3.7311,0.0,0.0,0.0,0.0,0.0,4.2172,4.2996,4.3531,4.5382,4.5681,4.5673,4.586,4.5924,4.5773,4.5196,4.5095,4.5095,4.5095,4.6476,4.851,5.1172,5.3632,5.6545,6.0261,6.1492,6.2822,6.5032,6.5986,6.6262,6.5785,6.5961,6.5986,6.5685,6.5157,6.4605,6.4078,6.3525,6.3099,6.2847,6.2546,6.227,6.1994,6.1391,6.109,6.109,6.0563,5.9885,5.9056,5.883,5.8102,5.7022,5.7022,5.6721,5.6194,5.5942,5.534,5.4536,5.426,5.3658,5.2929,5.2929,5.2929,5.2929,0.0,0.0,0.0,0.0,0.0,0.0,0.0,0.0,0.0,0.0,0.0,0.0,0.0,0.0,0.0,0.0,0.0,0.0,0.0,3.6113,3.6309,3.7285,3.7402,3.7773,3.8476,4.0547,4.3161,4.6188,4.7344,5.1319,5.7685,5.74,5.6775,5.582,5.2643,5.1054,5.0693,5.0572,5.0524,5.0546,0.0,0.0,0.0,0.0,0.0,0.0,0.0,0.0,0.0,0.0,0.0,0.0,0.0,0.0,0.0,3.8088,3.8287,3.8395,4.0367,4.1517,4.2536,4.3813,4.4795,4.5803,4.7022,4.7179,4.7004,4.6702,4.6652,4.6577,4.6301,4.8259,5.1297,5.5491,5.7675,5.9633,6.1843,6.2621,6.3601,6.5283,6.5609,6.5785,6.6086,6.5986,6.5478,6.4602,6.4403,6.3936,6.2903,6.2795,6.2822,6.2822,6.2295,6.1943,6.1818,6.0814,6.0311,6.0311,6.006,5.9458,5.8529,5.8378,5.7775,5.6846,5.6846,5.6595,5.6194,5.5942,5.534,5.4536,5.4285,5.3658,5.2929,5.2929,5.2929,5.2929,0.0,0.0,0.0,0.0,0.0,0.0,0.0,0.0,0.0,0.0,0.0,0.0,0.0,0.0,0.0,0.0,0.0,0.0,0.0,3.5664,3.5488,3.5566,3.7051,3.9199,4.1992,4.2637,4.4243,4.6817,4.9648,5.3821,5.8991,5.8337,5.7895,5.765,5.5797,5.4123,5.2673,5.2172,5.1947,5.1897,5.1481,0.0,0.0,0.0,0.0,0.0,0.0,0.0,0.0,0.0,0.0,0.0,0.0,0.0,3.6336,3.8088,3.7441,3.6717,3.9307,3.8869,3.8147,3.9893,4.3674,4.7495,4.9601,4.9715,4.949,4.9967,5.0067,4.9741,4.8736,5.1172,5.4461,5.7926,6.0311,6.2471,6.468,6.5459,6.5886,6.6036,6.6538,6.6664,6.6162,6.566,6.443,6.2233,6.3077,6.2761,6.0565,6.1918,6.2822,6.2822,6.2295,6.1768,6.124,6.0638,6.0311,6.0311,5.9307,5.8529,5.7951,5.7399,5.6821,5.6269,5.6269,5.6244,5.6118,5.5114,5.4637,5.4461,5.3457,5.3005,5.2929,5.2929,5.2929,5.2929,0.0,0.0,0.0,0.0,0.0,0.0,0.0,0.0,0.0,0.0,0.0,0.0,0.0,0.0,0.0,0.0,0.0,0.0,0.0,3.5312,3.5625,3.6172,3.7305,3.9101,4.1601,4.3906,4.6484,4.9336,5.3033,5.5358,5.6057,5.496,5.4513,5.4373,5.1149,5.0223,5.095,4.8942,4.8263,4.8474,4.7653,4.7865,0.0,0.0,0.0,0.0,0.0,0.0,0.0,0.0,3.8987,3.7363,3.6836,3.6562,3.6504,3.6889,3.6539,3.621,3.7208,3.815,3.9171,4.027,4.2838,4.579,4.8288,5.004,5.1398,5.2277,5.303,5.3108,5.1791,5.1935,5.3767,5.8263,6.0608,6.2873,6.594,6.6212,6.6237,6.6614,6.6538,6.6363,6.6137,6.5609,6.4793,6.3545,6.2214,6.1568,6.1835,6.1091,6.1178,6.2239,6.1793,6.1215,6.0638,6.0085,5.9659,5.9307,5.8905,5.8252,5.7349,5.7123,5.6721,5.6219,5.6219,5.6219,5.6143,5.539,5.4888,5.4461,5.3356,5.2929,5.2929,5.2929,5.2929,5.298,0.0,0.0,0.0,0.0,0.0,0.0,0.0,0.0,0.0,0.0,0.0,0.0,0.0,0.0,0.0,0.0,0.0,0.0,3.4492,3.4805,3.5234,3.582,3.7051,3.875,4.0918,4.4609,4.7851,5.0605,5.4578,5.5653,5.4036,5.2477,5.1846,5.195,4.8316,4.7777,4.959,4.7528,4.6501,4.6141,4.5688,4.5712,0.0,0.0,0.0,0.0,0.0,0.0,0.0,0.0,3.9178,3.8077,3.7497,3.6827,3.6348,3.6555,3.6087,3.5605,3.5605,3.6876,3.8459,3.9192,4.1585,4.4617,4.7866,5.0473,5.2953,5.5271,5.5717,5.5428,5.4593,5.328,5.3692,5.769,5.964,6.1528,6.4078,6.4724,6.5012,6.5297,6.5062,6.479,6.4531,6.416,6.3093,6.1116,6.0334,5.9796,5.9523,5.855,5.8567,5.9835,5.9155,5.8942,5.9237,5.8694,5.8511,5.873,5.873,5.8227,5.7298,5.6947,5.6671,5.647,5.6294,5.6219,5.6168,5.544,5.4712,5.3984,5.3231,5.2929,5.2929,5.2929,5.2929,5.3005,0.0,0.0,0.0,0.0,0.0,0.0,0.0,0.0,0.0,0.0,0.0,0.0,0.0,0.0,0.0,0.0,0.0,0.0,3.4043,3.4082,3.4082,3.4062,3.6133,3.8281,4.043,4.4687,4.7969,5.0195,5.3594,5.4644,5.3441,5.1375,5.0719,5.1206,4.879,4.8177,4.8937,4.8982,4.7607,4.5647,4.6417,4.5056,4.2638,0.0,0.0,0.0,0.0,0.0,0.0,0.0,3.9555,3.8774,3.8663,3.7156,3.5791,3.7405,3.6379,3.4726,3.4707,3.4726,3.4941,3.582,3.985,4.4752,4.9124,5.1395,5.4047,5.927,5.8102,5.6346,5.6898,5.5537,5.4878,5.6415,5.7429,5.8277,5.8724,6.0902,6.2255,6.1644,6.2136,6.2065,6.1105,6.0789,5.8701,5.3623,5.6996,5.7217,5.2634,5.4171,5.518,5.5158,5.4215,5.4779,5.6952,5.6477,5.703,5.8653,5.873,5.8428,5.7851,5.6746,5.652,5.6923,5.6371,5.6146,5.6045,5.5013,5.3909,5.2929,5.2929,5.2929,5.2929,5.2929,5.2929,5.3005,0.0,0.0,0.0,0.0,0.0,0.0,0.0,0.0,0.0,0.0,0.0,0.0,0.0,0.0,0.0,0.0,0.0,0.0,3.3613,3.3906,3.3945,3.3633,3.5703,3.6875,3.6914,4.1406,4.6152,5.1055,5.209,5.0869,4.7514,4.663,4.6229,4.6219,4.6044,4.6572,4.7463,4.5391,4.4127,4.3521,4.2039,4.1523,4.1652,0.0,0.0,0.0,0.0,0.0,0.0,0.0,0.0,0.0,3.8702,3.8258,3.7636,3.6108,3.585,3.5957,3.5351,3.584,3.6816,3.7969,4.0084,4.3752,5.0848,5.3209,5.5326,6.0291,5.8332,5.573,5.5975,5.3828,5.2252,5.2774,5.5244,5.738,5.8232,6.0458,6.1299,5.9401,6.0809,6.111,5.8801,5.8148,5.7259,5.5799,5.4895,5.4544,5.4829,5.3818,5.3669,5.4624,5.5823,5.5729,5.4134,5.7028,5.7839,5.642,5.799,5.8428,5.7901,5.7549,5.6476,5.4824,5.4654,5.4364,5.4028,5.4414,5.3909,5.2929,5.2929,5.2929,5.2929,5.2929,5.2929,5.3055,0.0,0.0,0.0,0.0,0.0,0.0,0.0,0.0,0.0,0.0,3.5234,3.5019,0.0,0.0,0.0,0.0,0.0,0.0,3.3691,3.3926,3.4023,3.3926,3.5371,3.6484,3.7168,4.1133,4.457,4.7363,4.8887,4.7793,4.4258,4.4863,4.5004,4.4761,4.586,4.6433,4.6435,4.5209,4.3573,4.182,4.111,4.0598,4.0249,0.0,0.0,0.0,0.0,0.0,0.0,0.0,0.0,0.0,3.9904,3.9196,3.7978,3.6786,3.6133,3.5742,3.5059,3.5801,3.7187,3.8789,4.1615,4.5708,5.2235,5.5865,5.8365,6.0193,5.8964,5.7091,5.5843,5.384,5.2088,5.1429,5.2707,5.4108,5.4854,5.7039,5.7963,5.63,5.7537,5.776,5.5641,5.5309,5.4822,5.3665,5.2872,5.255,5.2804,5.1322,5.0798,5.1421,5.2555,5.2667,5.1616,5.4232,5.5145,5.444,5.5628,5.6017,5.5703,5.7194,5.6997,5.5443,5.3932,5.3033,5.2485,5.2114,5.1845,5.1747,5.1747,5.2189,5.2929,5.2929,5.3055,5.3356,0.0,0.0,3.3418,3.3418,0.0,0.0,0.0,0.0,0.0,0.0,3.498,3.4746,0.0,0.0,0.0,0.0,0.0,0.0,0.0,3.4121,3.4297,3.4687,3.5215,3.6855,3.9707,4.2422,4.2851,4.0879,4.4707,4.5273,4.2832,4.5117,4.5957,4.5625,4.7285,4.7109,4.568,4.6758,4.4602,4.0661,4.2399,4.1252,3.8711,3.9531,0.0,0.0,0.0,0.0,0.0,0.0,0.0,0.0,4.169,3.9988,3.7741,3.8569,3.7024,3.4923,3.4459,3.5254,3.6777,3.9004,4.4079,4.9506,5.2866,5.8174,6.1594,5.8973,5.9334,5.9186,5.615,5.4734,5.3428,5.1496,5.0357,4.989,5.0058,5.225,5.352,5.2736,5.3324,5.3331,5.2201,5.2382,5.1575,4.9071,5.0853,5.0899,4.8314,4.7812,4.7383,4.6933,4.6719,4.7488,4.9234,4.9638,5.0692,5.2457,5.2339,5.2218,5.2358,5.5786,5.7222,5.677,5.3357,5.1538,5.0896,4.8737,4.8603,4.9748,4.9748,5.0928,5.2629,5.2629,5.2953,5.3478,0.0,0.0,3.3418,3.3418,0.0,0.0,0.0,0.0,0.0,0.0,0.0,0.0,0.0,0.0,0.0,0.0,0.0,0.0,0.0,3.457,3.4609,3.4687,3.5781,3.7168,3.8828,3.916,3.9082,3.8613,4.2168,4.2773,4.0644,4.3808,4.5078,4.4726,4.6094,4.5957,4.4551,4.3218,4.1797,4.0527,4.0966,4.0298,3.9082,3.9277,3.875,0.0,0.0,0.0,0.0,0.0,0.0,0.0,4.115,4.155,4.0891,3.7938,3.738,3.7529,3.6443,3.7051,3.8711,4.1543,4.6988,5.1498,5.1118,5.3797,5.6272,5.6085,5.6236,5.6121,5.5101,5.4044,5.2423,4.9811,5.0732,5.129,4.9871,5.1801,5.2545,5.0517,5.2087,5.2359,4.9879,4.9735,4.9571,4.8959,4.9064,4.8827,4.8203,4.7812,4.7383,4.6933,4.8513,4.8474,4.6557,4.9991,5.0851,4.927,5.0918,5.1738,5.1738,5.2604,5.1855,4.9781,4.8235,4.7208,4.6831,4.7542,4.7795,4.7636,4.7636,4.8866,5.0622,5.0622,5.0888,5.1273,0.0,0.0,0.0,0.0,0.0,0.0,0.0,0.0,0.0,0.0,0.0,0.0,0.0,0.0,0.0,0.0,0.0,0.0,0.0,0.0,3.5215,3.5625,3.668,3.7402,3.7656,3.8447,3.8227,3.7012,4.0065,4.1043,3.9961,4.2988,4.4609,4.5078,4.6562,4.6269,4.4609,4.3281,4.1992,4.084,4.084,4.0312,3.9531,3.9531,3.8867,3.7891,3.7695,0.0,0.0,0.0,0.0,0.0,0.0,0.0,4.0426,3.8038,3.7741,3.7926,3.6689,3.7891,4.0676,4.5451,4.8844,5.1158,5.144,5.1979,5.2552,5.2796,5.3923,5.4684,5.399,5.3464,5.2205,4.9367,4.9911,5.0357,4.9346,5.0363,5.0618,4.9385,5.0343,5.0518,4.9052,4.8867,4.8769,4.8555,4.834,4.8027,4.7617,4.7383,4.707,4.6641,4.7521,4.7267,4.5683,4.775,4.8088,4.6712,4.7462,4.7631,4.7288,4.9791,5.0196,4.88,4.6514,4.5433,4.5125,4.4816,4.5062,4.5744,4.6928,4.8496,5.0151,5.1335,5.1318,5.0746,0.0,0.0,0.0,0.0,0.0,0.0,0.0,0.0,0.0,0.0,0.0,0.0,0.0,0.0,0.0,0.0,0.0,0.0,0.0,0.0,0.0,3.7023,3.8215,3.8416,3.7599,3.9371,3.9265,3.7077,3.9265,4.0659,4.1174,4.2958,4.4531,4.584,4.7109,4.6641,4.4863,4.3984,4.2598,4.0957,4.0957,4.0488,3.9766,3.9766,3.9004,3.7871,3.7441,3.8154,3.9281,3.9528,0.0,0.0,0.0,0.0,3.9311,3.8552,3.8,3.7387,3.6412,3.8555,4.2467,4.8349,4.9572,4.9953,5.1984,5.1162,5.0149,5.0585,5.2588,5.3961,5.3184,5.2995,5.2283,4.9879,4.9124,4.8867,4.8867,4.8867,4.8867,4.8867,4.8867,4.8867,4.8867,4.8789,4.8594,4.8242,4.8066,4.7676,4.6973,4.6855,4.6621,4.6211,4.5859,4.5605,4.5449,4.5019,4.4766,4.4687,4.3867,4.3105,4.2521,4.6805,4.8796,4.8718,4.5701,4.4328,4.423,4.2086,4.2119,4.3856,4.5966,4.7698,4.9223,5.1343,5.1106,4.9756,0.0,0.0,0.0,0.0,0.0,0.0,0.0,0.0,0.0,0.0,3.5078,3.5449,0.0,0.0,0.0,0.0,0.0,0.0,0.0,0.0,0.0,3.8353,4.108,4.2133,4.1161,4.1748,4.1882,4.155,4.2016,4.3589,4.6212,4.4885,4.5,4.6191,4.5683,4.5098,4.4316,4.1641,4.0332,4.0059,4.0059,3.9766,3.9297,3.9297,3.873,3.7871,3.7441,3.8154,3.9323,3.9966,4.1204,0.0,0.0,0.0,4.1432,3.9371,3.7906,3.6832,3.6677,3.9863,4.395,4.6638,4.8201,4.9135,4.9787,4.9537,4.9749,5.2188,5.2932,5.3184,5.2967,5.2722,5.236,5.2048,5.0276,4.8867,4.8867,4.8867,4.8867,4.8867,4.8867,4.8867,4.8867,4.8516,4.8281,4.8203,4.7519,4.7051,4.6933,4.6582,4.6191,4.5781,4.5703,4.5312,4.457,4.4101,4.3691,4.334,4.2832,4.2539,4.2422,4.2784,4.3081,4.34,4.2566,4.2171,4.2132,4.1504,4.1327,4.1657,4.2385,4.3541,4.4945,4.5642,4.5738,4.5446,0.0,0.0,0.0,0.0,0.0,0.0,0.0,0.0,0.0,0.0,0.0,3.5234,0.0,0.0,0.0,3.4726,0.0,0.0,0.0,0.0,0.0,4.1207,4.1662,4.1943,4.2232,4.3169,4.2399,3.9908,4.1418,4.3747,4.6679,4.6367,4.7547,5.004,4.8577,4.7606,4.6753,4.3077,4.1448,4.1279,4.0038,3.9394,3.918,3.8945,3.8457,3.7871,3.7441,3.8753,4.0628,4.0373,4.1506,4.301,4.2864,0.0,0.0,0.0,3.7081,3.6912,3.845,4.0684,4.3379,4.6523,4.7539,4.8027,4.8945,4.9004,4.9256,5.0426,5.1796,5.302,5.434,5.3387,5.2387,5.2387,5.0439,4.8867,4.8867,4.8867,4.8867,4.8867,4.8652,4.8496,4.8496,4.8105,4.7754,4.75,4.7148,4.6816,4.6601,4.6406,4.6113,4.5683,4.543,4.4902,4.4023,4.3574,4.3027,4.2363,4.2168,4.1953,4.1719,4.1523,4.168,4.2051,4.1621,4.1445,4.1426,4.125,4.1172,4.1366,4.289,4.3751,4.4289,4.589,4.5588,4.4348,0.0,0.0,0.0,0.0,0.0,0.0,0.0,0.0,0.0,0.0,0.0,0.0,0.0,0.0,0.0,0.0,3.4883,0.0,0.0,0.0,0.0,4.1751,4.1323,4.1494,4.2392,4.3286,4.2275,3.9236,4.1085,4.3716,4.7026,4.8737,5.155,5.5116,5.2455,5.067,4.9371,4.5062,4.3405,4.3392,4.0131,3.8945,3.9004,3.8691,3.8242,3.7734,3.7539,3.9295,4.1698,4.0848,4.2024,4.382,4.3168,4.161,0.0,0.0,0.0,3.7161,3.955,4.09,4.2546,4.6001,4.6697,4.7003,4.8791,4.8882,4.8691,4.8691,5.062,5.269,5.4412,5.3335,5.2156,5.2051,5.0116,4.8535,4.8535,4.8535,4.8535,4.8535,4.8242,4.8047,4.8047,4.7656,4.7285,4.6953,4.6836,4.6641,4.6328,4.6308,4.6055,4.5527,4.5195,4.4551,4.3555,4.3008,4.2383,4.1641,4.1641,4.1484,4.1172,4.1172,4.1348,4.1621,4.1308,4.1172,4.1172,4.1172,4.1172,4.1366,4.3335,4.3828,4.3649,4.561,4.5103,4.338,0.0,0.0,0.0,0.0,0.0,0.0,0.0,0.0,0.0,0.0,0.0,0.0,3.4785,3.4707,3.4375,3.3555,3.4258,3.536,3.672,3.8835,0.0,3.7656,4.0394,0.0,4.1877,4.1537,4.1845,4.2848,4.2678,4.4785,4.9071,5.2891,5.7,6.0908,5.6199,5.2999,5.0793,4.641,4.5358,4.6195,4.0292,3.8242,3.8613,3.8574,3.8066,3.7383,3.7754,3.9564,4.1743,4.1315,4.3372,4.6055,4.5479,4.4217,4.2475,0.0,0.0,0.0,3.8879,4.0402,4.2156,4.4294,4.535,4.6477,4.9209,4.9049,4.8242,4.8242,5.0062,5.1677,5.1411,5.1597,5.1568,5.1236,4.9187,4.7637,4.7637,4.7637,4.7637,4.7637,4.7637,4.7617,4.7617,4.7226,4.6953,4.6933,4.6562,4.6328,4.6308,4.6308,4.5918,4.5078,4.5039,4.4414,4.3125,4.2285,4.1641,4.1211,4.1211,4.1191,4.1172,4.1172,4.1191,4.1211,4.1191,4.1172,4.1172,4.1172,4.1172,4.1211,4.1778,4.17,4.1444,4.1955,4.1758,4.1386,0.0,0.0,0.0,0.0,0.0,0.0,0.0,0.0,0.0,0.0,0.0,0.0,0.0,3.4297,3.418,3.3867,3.5892,3.8055,3.9963,4.1038,0.0,4.2482,4.3533,4.3886,4.3624,4.4538,4.3826,4.1443,4.1275,4.3013,4.6507,4.8563,5.2615,5.8283,5.7831,5.6842,5.5062,4.8549,4.5889,4.5639,4.0699,3.8848,3.8906,3.8359,3.7969,3.7656,3.7266,3.9363,4.2103,4.043,4.2438,4.5101,4.2312,4.0902,3.9926,3.8546,3.8673,3.9343,3.9601,4.0076,4.0809,4.214,4.2823,4.3723,4.5493,4.6457,4.6992,4.6992,4.8117,4.888,4.8157,4.9811,5.1278,5.111,4.9126,4.748,4.7207,4.7402,4.7383,4.6816,4.6992,4.7051,4.6777,4.6367,4.623,4.6504,4.6133,4.6016,4.6289,4.6055,4.5625,4.5039,4.4473,4.3555,4.2266,4.168,4.1328,4.1172,4.1172,4.1172,4.1172,4.1172,4.1172,4.1172,4.1172,4.1172,4.1172,4.1172,4.1172,4.1191,4.1348,4.1465,4.1601,4.1738,4.1875,4.1992,0.0,0.0,0.0,3.1953,0.0,3.3008,3.3008,3.3359,3.3691,3.3828,0.0,0.0,0.0,0.0,3.432,3.4876,3.6882,3.8979,4.1008,4.1321,4.2085,4.3618,4.3578,4.3786,4.4278,4.4842,4.3576,4.0505,4.0182,4.1176,4.3302,4.5184,4.9082,5.4534,5.66,5.7537,5.7204,5.014,4.7334,4.7143,4.1338,3.9931,4.1284,4.0436,4.0166,4.0133,4.0224,4.1813,4.3524,4.1839,4.3395,4.5614,4.2955,4.1023,3.9604,3.8959,3.9597,4.0434,4.034,4.0308,4.0609,4.206,4.1559,4.1347,4.3918,4.4758,4.5137,4.5566,4.623,4.6543,4.5976,4.7474,4.8901,4.9065,4.7734,4.6582,4.6133,4.6328,4.6308,4.5723,4.5898,4.6035,4.5898,4.5625,4.5566,4.5859,4.5625,4.5586,4.5859,4.5605,4.5195,4.459,4.373,4.2793,4.1816,4.1387,4.1172,4.1172,4.1172,4.1172,4.1172,4.1172,4.1172,4.1172,4.1172,4.1172,4.1172,4.1172,4.1172,4.1172,4.1172,4.1426,4.1797,4.1797,4.2148,4.2656,3.0898,3.123,3.1523,3.1523,3.1894,3.2248,3.2248,3.2539,3.2969,3.3379,0.0,0.0,0.0,0.0,0.0,3.6373,3.6896,3.7805,3.937,3.9556,3.9842,4.0334,0.0,0.0,4.3645,4.2138,4.1062,4.0527,3.9646,3.947,3.9919,4.3676,4.7075,5.0101,5.2207,5.4533,5.6449,5.0856,4.9638,5.0848,4.2215,4.1524,4.5613,4.4845,4.4576,4.4684,4.6672,4.6819,4.6043,4.5562,4.6445,4.7846,4.7771,4.5135,4.2051,4.1898,4.1226,4.0639,0.0,0.0,0.0,4.3863,4.1548,3.985,4.467,4.3998,4.2715,4.4023,4.4648,4.4961,4.4961,4.4629,4.4492,4.4883,4.4961,4.4844,4.4414,4.4375,4.4375,4.4336,4.4355,4.4531,4.4922,4.498,4.5,4.5,4.5,4.5,4.5019,4.5,4.457,4.3672,4.2832,4.2207,4.1777,4.1387,4.1172,4.1191,4.1191,4.1191,4.1191,4.1191,4.1191,4.1172,4.1172,4.1172,4.1172,4.1172,4.1172,4.1172,4.1191,4.1445,4.1816,4.1836,4.2383,4.3183,3.0898,3.123,3.1523,3.1523,3.2129,3.2617,3.2617,3.2988,3.3281,0.0,0.0,0.0,3.4082,3.5195,3.6023,3.6157,3.7678,3.8914,3.9583,4.0808,4.1733,4.2163,4.3396,4.3965,4.3707,4.4497,4.3597,4.1043,4.0443,3.939,3.8027,3.9453,4.2043,4.5685,4.5906,4.6954,4.8509,4.7739,4.7312,4.6891,4.3481,4.3308,4.4956,4.5002,4.4479,4.4004,4.5837,4.5861,4.4988,4.4451,4.5505,4.6888,4.5706,4.4669,4.388,4.3816,4.4514,4.4698,4.2321,0.0,0.0,0.0,0.0,0.0,3.961,3.9865,4.0469,4.1797,4.2637,4.3242,4.3555,4.3516,4.3379,4.3183,4.3672,4.3926,4.3496,4.3711,4.3672,4.3047,4.3516,4.3828,4.3633,4.3887,4.4219,4.4551,4.4258,4.4355,4.5,4.4414,4.3535,4.2363,4.209,4.1777,4.1348,4.123,4.1328,4.1621,4.1621,4.1621,4.1621,4.1621,4.1465,4.1172,4.1172,4.1172,4.1172,4.1172,4.1172,4.1211,4.1504,4.1894,4.2285,4.2598,4.3281,4.4043,3.0898,3.1094,3.1309,3.1484,3.2226,3.2793,3.2793,3.3457,3.3828,0.0,0.0,0.0,3.4609,3.6328,3.7271,3.6831,3.8079,3.8977,3.9355,4.0327,4.1499,4.2922,4.3905,4.4633,4.5145,4.5917,4.4645,4.1181,4.0953,3.9387,3.6777,3.7207,3.8775,4.1265,4.2049,4.2571,4.2926,4.5595,4.6002,4.4796,4.4605,4.5901,4.8049,4.9434,4.9822,4.9611,5.0025,5.0008,4.9549,4.7805,4.8127,4.892,4.6495,4.5642,4.5378,4.4365,4.5207,4.5949,4.384,4.4097,4.4067,4.0827,0.0,0.0,3.8003,3.7851,3.8203,3.9316,4.0078,4.0742,4.1348,4.1465,4.1504,4.1621,4.2051,4.2422,4.2539,4.2754,4.2715,4.2226,4.2598,4.2891,4.2812,4.3027,4.3281,4.3555,4.332,4.3398,4.3906,4.3457,4.2754,4.1836,4.1797,4.168,4.1426,4.1426,4.1641,4.207,4.207,4.207,4.207,4.207,4.1933,4.1699,4.1699,4.1699,4.1699,4.1699,4.1601,4.1465,4.1699,4.2168,4.2754,4.3183,4.3906,4.4687,0.0,3.0898,3.1035,3.1504,3.2305,3.291,3.3066,3.4043,3.4551,0.0,3.4551,3.5293,3.5898,3.7559,3.8473,3.7897,3.8113,3.8396,3.8653,3.8687,4.0052,4.3079,4.3041,4.4255,4.7043,4.6652,4.4669,4.1091,4.1158,3.941,3.5957,3.6387,3.6797,3.7258,3.9889,4.0238,3.9264,4.3756,4.4884,4.3807,4.5797,4.8834,5.2593,5.5716,5.7266,5.757,5.6697,5.6527,5.6275,5.3207,5.2405,5.2228,4.9213,4.782,4.6884,4.4725,4.4902,4.5758,4.5613,4.5701,4.558,4.4566,4.1823,0.0,3.8569,3.7226,3.6309,3.707,3.7519,3.8027,3.8848,3.8984,3.9258,4.0098,4.0273,4.0644,4.1601,4.1738,4.1738,4.1738,4.1738,4.1875,4.2246,4.2324,4.2363,4.2363,4.2402,4.2383,4.2285,4.2324,4.2168,4.1738,4.1777,4.1797,4.1797,4.1836,4.207,4.25,4.25,4.25,4.25,4.25,4.248,4.2422,4.2422,4.2422,4.2422,4.2422,4.2207,4.1875,4.1914,4.2402,4.3125,4.3555,4.4238,4.5019,3.0898,3.0898,3.1133,3.1914,3.2734,3.3652,3.4726,3.5098,3.5566,3.6426,3.6973,3.7851,3.9355,3.9258,3.8916,3.8489,3.7856,3.7516,3.7445,3.7445,3.9305,4.3393,4.3564,4.4642,4.7068,4.7029,4.4863,4.0639,4.0979,3.9259,3.5527,3.5957,3.6191,3.6309,3.7569,3.7932,3.7845,4.0204,4.0998,4.1314,4.8291,5.1109,5.1565,5.5981,5.725,5.6691,5.827,5.7213,5.4984,5.4289,5.3111,5.185,5.1857,5.063,4.9023,4.8509,4.8283,4.7898,4.6813,4.7613,4.7807,4.3697,4.2583,0.0,3.8296,3.7031,3.6601,3.6758,3.6855,3.707,3.7578,3.7676,3.7832,3.834,3.873,3.9512,4.1074,4.1289,4.1289,4.1289,4.1289,4.1328,4.1406,4.1719,4.1914,4.1914,4.2226,4.2129,4.1445,4.1738,4.1738,4.1308,4.1621,4.1797,4.1797,4.2129,4.2519,4.2949,4.2949,4.2949,4.2949,4.2949,4.2754,4.2422,4.2422,4.2422,4.2422,4.2422,4.2383,4.2344,4.2695,4.293,4.3125,4.3555,4.4043,4.459,3.0898,3.0898,3.1289,3.2578,3.3496,3.4512,3.582,3.6562,3.7129,3.7559,3.873,3.9707,4.0156,4.0195,3.9668,3.8359,3.748,3.6769,3.6284,3.6451,3.8023,4.143,4.2312,4.3961,4.6475,4.6613,4.4827,4.0905,4.0864,3.8981,3.5391,3.5605,3.5703,3.5762,3.6816,3.7708,3.856,4.1263,4.2543,4.3299,4.9677,5.1913,5.2082,5.805,6.003,5.9463,5.9438,5.8174,5.6521,5.6287,5.5551,5.4525,5.3258,5.2151,5.1197,5.0921,5.0444,4.9871,4.9239,4.9711,4.9652,4.6196,4.5485,0.0,0.0,3.858,3.7786,3.6318,3.5684,3.5508,3.5918,3.5996,3.6289,3.7168,3.748,3.8144,3.9668,4.0254,4.0527,4.0527,4.0527,4.0625,4.084,4.1035,4.125,4.1465,4.168,4.1621,4.1191,4.1367,4.1484,4.1484,4.1699,4.2012,4.2441,4.2637,4.2969,4.3398,4.3398,4.3398,4.3398,4.3398,4.3281,4.3086,4.3301,4.3418,4.3418,4.3418,4.3418,4.3398,4.3164,4.334,4.3789,4.4219,4.4648,4.5098,3.0879,3.0898,3.1406,3.3027,3.4082,3.5176,3.6582,3.7734,3.8418,3.832,3.9902,4.0879,4.043,4.0703,4.0351,3.8926,3.75,3.6562,3.6269,3.6113,3.6989,3.9269,4.1176,4.3225,4.5545,4.5955,4.4519,4.1129,4.0456,3.8508,3.5391,3.5488,3.5508,3.5566,3.668,3.8035,3.9745,4.3014,4.4954,4.6344,5.0794,5.2398,5.2885,5.9712,6.2345,6.2127,6.0515,5.9738,5.924,5.844,5.8077,5.7349,5.4235,5.3181,5.2955,5.2302,5.1875,5.1574,5.1473,5.1674,5.1419,4.9325,4.8768,4.7559,0.0,0.0,0.0,3.6864,3.5448,3.4629,3.4805,3.4766,3.5078,3.623,3.6484,3.6894,3.793,3.8769,3.9375,3.9609,3.957,3.9707,4.0215,4.0351,4.0586,4.1016,4.1055,4.1074,4.1172,4.1172,4.1328,4.166,4.1836,4.2246,4.2949,4.3125,4.3359,4.3711,4.3711,4.3711,4.3711,4.3711,4.375,4.3867,4.4238,4.4394,4.4414,4.4492,4.4473,4.4316,4.3516,4.3633,4.4316,4.4746,4.5137,4.5508,3.082,3.0898,3.1309,3.2637,3.3887,3.5273,3.6973,3.7656,3.8398,3.9531,4.0215,4.0996,4.2031,4.0879,4.0547,4.1797,3.8711,3.7441,3.9258,3.7266,3.6989,3.9269,4.1879,4.3585,4.4117,4.5023,4.389,4.0572,3.9369,3.762,3.541,3.5781,3.5957,3.5976,3.6504,3.7984,4.014,4.1785,4.4279,4.7485,5.253,5.3737,5.3033,5.8533,6.0613,6.0709,6.1946,6.2338,6.202,6.0007,5.8679,5.7499,5.5139,5.4034,5.3406,5.2402,5.2402,5.2628,5.2151,5.308,5.3512,5.0529,5.0889,5.0786,4.6175,0.0,4.1901,4.0067,0.0,3.6152,3.5449,0.0,0.0,3.5449,3.5859,3.6152,3.6289,3.6738,3.7461,3.8594,3.8379,3.8457,3.9277,3.9726,4.0137,4.0566,4.0586,4.0762,4.1152,4.1172,4.1191,4.125,4.1973,4.2402,4.25,4.3262,4.3652,4.3711,4.3711,4.3711,4.3711,4.3711,4.3926,4.4316,4.4375,4.4394,4.4433,4.4805,4.4726,4.4355,4.3828,4.3691,4.3848,4.4297,4.4492,4.4668,3.0859,3.0898,3.1289,3.2578,3.3437,3.4629,3.6621,3.8574,4.0,4.0566,4.1426,4.2305,4.3086,4.2996,4.2702,4.2071,4.1116,3.9962,3.8804,3.7969,3.8457,4.0556,4.1331,4.3129,4.6031,4.43,4.2678,4.1463,3.926,3.7217,3.5391,3.5566,3.6368,3.7575,3.6995,3.8705,4.2049,4.2992,4.5307,4.8658,5.2987,5.4475,5.4696,5.9822,6.1768,6.1868,6.2571,6.2822,6.2546,6.0613,5.9257,5.8152,5.6897,5.5214,5.3733,5.3959,5.3507,5.2879,5.2653,5.2819,5.2817,5.195,5.1077,4.9968,4.8213,4.6107,4.4244,4.3218,0.0,0.0,0.0,0.0,0.0,0.0,3.5739,3.5078,3.5586,3.5371,3.5644,3.6934,3.7148,3.7637,3.873,3.9238,3.9785,4.0469,4.0527,4.0703,4.1152,4.1172,4.1289,4.1523,4.2109,4.2558,4.2793,4.3398,4.3711,4.3711,4.3984,4.4101,4.4121,4.4355,4.457,4.4766,4.5039,4.5137,4.5156,4.5332,4.5293,4.5098,4.4648,4.4629,4.4863,4.5058,4.5293,4.5586,3.0859,3.0898,3.125,3.2422,3.3066,3.416,3.6348,3.8633,4.0273,4.0762,4.1641,4.2637,4.3769,4.4421,4.4374,4.3484,4.3366,4.2249,3.9645,3.9736,4.0028,4.0306,4.1866,4.3776,4.6083,4.3615,4.2232,4.2159,3.8931,3.6775,3.5566,3.5566,3.6423,3.7975,3.7302,3.9245,4.3139,4.4855,4.7509,5.0962,5.4692,5.6646,5.7775,6.0939,6.2421,6.2822,6.2822,6.2822,6.2596,6.1065,5.9935,5.9031,5.8353,5.6721,5.5114,5.534,5.4863,5.4084,5.3181,5.3076,5.308,5.2309,5.1005,4.9759,4.8893,4.7482,4.6119,4.556,4.4255,0.0,0.0,0.0,3.7966,3.7625,0.0,3.4922,3.5332,3.4844,3.4785,3.5742,3.6328,3.7031,3.7969,3.8437,3.9043,3.9922,4.0098,4.041,4.0976,4.1113,4.1308,4.1621,4.2031,4.2461,4.2891,4.332,4.3652,4.3906,4.4238,4.4453,4.457,4.4883,4.5098,4.5215,4.5547,4.5683,4.5683,4.5801,4.5781,4.5664,4.5449,4.5566,4.584,4.5723,4.5937,4.6367,3.0801,3.0898,3.1172,3.2031,3.2871,3.416,3.6348,3.709,3.8027,3.9726,3.998,4.1113,4.4062,4.4009,4.4733,4.7168,4.5144,4.3637,4.3516,4.3392,4.1574,3.7634,4.4405,4.6323,4.2251,4.3039,4.3039,4.1986,3.8027,3.5996,3.5996,3.5996,3.5996,3.6142,3.7324,3.9401,4.234,4.6825,5.0971,5.4777,5.8554,6.1115,6.2421,6.0964,6.1416,6.2822,6.2822,6.2822,6.2647,6.1542,6.0763,6.0085,5.9031,5.8629,5.8152,5.6018,5.6495,5.7047,5.3808,5.4842,5.578,5.1201,5.1247,5.1467,4.788,4.7461,4.7528,4.6541,4.5961,4.4772,4.1997,4.0667,0.0,0.0,0.0,0.0,0.0,3.5371,3.5371,3.541,3.6152,3.668,3.6738,3.7109,3.7715,3.8574,3.9004,3.9629,4.0488,4.0937,4.1172,4.1191,4.1601,4.2031,4.2441,4.2891,4.3535,4.4375,4.4394,4.4609,4.5,4.5019,4.5254,4.5664,4.5664,4.5683,4.5703,4.6113,4.6035,4.5723,4.6113,4.6269,4.623,4.582,4.5937,4.6367,3.1211,3.1309,3.1406,3.168,3.2207,3.3418,3.5859,3.7324,3.918,4.2051,4.293,4.4766,4.8633,4.9723,5.0715,5.2199,5.1921,5.0507,4.7755,4.7583,4.7059,4.575,4.6317,4.7445,4.9198,4.587,4.3557,4.25,3.9672,3.7476,3.6016,3.6016,3.6813,3.8247,3.7728,3.9501,4.3026,4.5147,4.8466,5.2576,5.8109,6.1567,6.3299,6.2345,6.2345,6.2822,6.2822,6.2822,6.2772,6.2395,6.1416,6.0387,6.0763,5.9659,5.8102,5.77,5.7725,5.7575,5.6068,5.6298,5.6382,5.4107,5.2696,5.1624,5.1034,4.9723,4.8997,5.0387,4.8583,4.6875,4.7315,4.3575,0.0,0.0,0.0,0.0,0.0,3.5391,3.5605,3.6172,3.5996,3.6055,3.6621,3.6797,3.7226,3.8086,3.8555,3.918,4.0059,4.0508,4.0879,4.1172,4.1582,4.1992,4.2422,4.2851,4.3516,4.4394,4.4687,4.5039,4.5469,4.5742,4.5957,4.6094,4.6094,4.6094,4.6113,4.625,4.6211,4.6133,4.6562,4.6719,4.6699,4.6562,4.6601,4.6816,3.1269,3.1406,3.1621,3.1914,3.2461,3.3457,3.5273,3.7676,4.0293,4.3105,4.5039,4.7558,5.125,5.2599,5.3454,5.4191,5.55,5.434,4.9702,5.1729,5.1571,4.8266,4.9153,4.9985,5.0646,4.7678,4.5119,4.2995,4.0791,3.85,3.625,3.6094,3.6745,3.818,3.7887,3.948,4.2502,4.4961,4.7832,5.1205,5.7452,6.0777,6.2199,6.262,6.2948,6.3099,6.2898,6.2822,6.2822,6.2822,6.2119,6.1341,6.2069,6.0939,5.9357,5.9307,5.9182,5.8805,5.765,5.7531,5.7382,5.5631,5.3885,5.251,5.2089,5.1272,5.0949,5.2425,5.0938,4.9365,4.9493,4.546,0.0,0.0,0.0,0.0,0.0,3.5976,3.6211,3.6621,3.6055,3.5898,3.6601,3.6523,3.6738,3.7422,3.8008,3.873,3.9609,4.0195,4.0723,4.1172,4.1426,4.1855,4.2422,4.2695,4.3437,4.4629,4.4902,4.5332,4.5918,4.6172,4.6308,4.6308,4.6308,4.6308,4.6308,4.6465,4.6523,4.6562,4.6992,4.7168,4.7168,4.7168,4.7266,4.748,3.0996,3.1269,3.1836,3.2656,3.3496,3.4219,3.4687,3.8066,4.1211,4.3027,4.6269,4.9394,5.2051,5.2676,5.3167,5.3678,5.6058,5.5272,5.0115,5.5983,5.5297,4.5708,5.2755,5.3884,4.7269,4.8731,4.756,4.3579,4.1423,3.9069,3.6699,3.623,3.6016,3.6094,3.7812,3.9297,4.0837,4.6041,4.9112,5.0994,5.6898,5.933,5.9607,6.1952,6.3174,6.3576,6.3023,6.2822,6.2797,6.2822,6.2822,6.2822,6.2822,6.2471,6.1818,6.0713,6.0814,6.0788,5.8679,5.8855,5.8971,5.5907,5.5153,5.4378,5.1345,5.213,5.3299,5.2851,5.2763,5.1905,4.8882,4.651,4.3643,0.0,0.0,0.0,0.0,3.7051,3.7148,3.6777,3.6328,3.6211,3.6641,3.6269,3.6191,3.6601,3.7422,3.8262,3.9121,4.0019,4.0703,4.1152,4.1172,4.1582,4.2422,4.2441,4.332,4.5019,4.5039,4.5488,4.6308,4.6308,4.6308,4.6328,4.6328,4.6348,4.6387,4.6797,4.6953,4.7012,4.7441,4.7617,4.7637,4.7617,4.7871,4.8301,3.1367,3.1953,3.2539,3.2754,3.3496,3.4434,3.5508,3.8711,4.2187,4.5508,4.8945,5.2324,5.5547,5.5723,5.6424,5.8438,6.0391,6.051,5.8229,6.1613,6.0856,5.4337,5.5474,5.52,5.2923,5.099,4.861,4.5763,4.3352,4.0422,3.7129,3.6367,3.6016,3.6094,3.7812,3.9121,4.0254,4.3894,4.7736,5.1818,5.7175,5.9544,6.0217,6.2101,6.2923,6.3023,6.2873,6.2571,6.227,6.2697,6.2822,6.2822,6.2822,6.2722,6.2471,6.1768,6.1969,6.2195,6.1215,6.1441,6.1432,5.9409,5.8933,5.838,5.644,5.5974,5.5943,5.5879,5.4019,5.2423,5.2258,4.9153,4.5788,0.0,0.0,0.0,0.0,3.7226,3.7363,3.7578,3.6953,3.6543,3.666,3.6269,3.6074,3.6172,3.6973,3.7832,3.8691,3.957,4.041,4.1152,4.1172,4.1582,4.2422,4.2754,4.3633,4.5039,4.5351,4.5781,4.6308,4.6308,4.6465,4.6777,4.6777,4.6953,4.7266,4.7363,4.7422,4.7461,4.7871,4.8242,4.8496,4.8164,4.832,4.8711,3.1836,3.2793,3.3691,3.3906,3.5566,3.7012,3.7363,3.9707,4.2832,4.6699,5.0215,5.3164,5.5293,5.6328,5.74,5.8625,6.0476,6.0765,5.8899,6.181,6.1152,5.5499,5.5956,5.5291,5.2772,5.0921,4.8485,4.5383,4.3123,4.0356,3.7285,3.6426,3.6016,3.6094,3.7617,3.8769,3.9824,4.3223,4.6677,5.0381,5.5491,5.7678,0.0,6.154,6.237,6.1818,6.2571,6.2471,6.2094,6.2647,6.2822,6.2822,6.2822,6.2822,6.2772,6.2446,6.2571,6.2772,6.2446,6.2596,6.2596,6.1642,6.1416,6.104,5.9659,5.8871,5.8344,5.8099,5.5929,5.3885,5.3546,5.077,4.776,0.0,0.0,0.0,3.9607,3.9607,3.941,3.8549,3.791,3.75,3.75,3.6777,3.6387,3.6562,3.7187,3.7949,3.8809,3.9512,4.0293,4.1152,4.1719,4.2148,4.2422,4.3418,4.4297,4.5039,4.5469,4.5898,4.6308,4.6308,4.6426,4.666,4.666,4.6797,4.7051,4.7422,4.7578,4.7637,4.8262,4.8633,4.8828,4.8574,4.8652,4.8867,3.2344,3.3574,3.4805,3.5156,3.8066,4.0234,3.9922,4.1543,4.4043,4.7461,5.0918,5.3203,5.3574,5.5664,5.6894,5.6523,5.8577,5.8778,5.6361,5.9948,5.9482,5.3382,5.5847,5.5111,5.031,4.9773,4.78,4.4322,4.1985,3.9651,3.7363,3.6445,3.6016,3.6074,3.7305,3.8418,3.9609,4.3164,4.5683,4.7731,5.3018,5.505,5.5591,6.0798,6.1868,6.0738,6.227,6.2421,6.1994,6.2621,6.2822,6.2822,6.2822,6.2822,6.2822,6.2822,6.2822,6.2822,6.2822,6.2822,6.2822,6.2822,6.2822,6.2571,6.1617,6.0939,6.0387,5.9834,5.8077,5.6004,5.4023,5.1728,4.9204,0.0,4.5714,4.4612,4.2547,4.2335,4.1653,3.9539,3.8926,0.0,3.8652,3.75,3.6894,3.7266,3.7676,3.8281,3.9082,3.9609,4.0293,4.1152,4.2305,4.2832,4.2695,4.418,4.5019,4.5195,4.5644,4.5996,4.6308,4.6367,4.6387,4.6387,4.6445,4.6504,4.6621,4.7422,4.7754,4.7832,4.8574,4.8867,4.8867,4.8867,4.8867,4.8867,3.2773,3.3769,3.4609,3.4355,3.7148,4.0351,4.3066,4.6152,4.8535,4.959,5.2715,5.4883,5.4961,5.5683,5.6133,5.6055,5.8393,5.9525,5.8649,6.2952,6.283,5.6597,5.8204,5.7292,5.2932,4.9763,4.7617,4.6442,4.2595,3.9725,3.7793,3.6582,3.6016,3.6055,3.6992,3.8476,4.041,4.2148,4.3887,4.6016,5.2213,5.4907,5.5739,6.0856,6.237,6.1818,6.2571,6.2169,6.1492,6.2496,6.2822,6.2822,6.2822,6.2822,6.2822,6.2822,6.2822,6.2822,6.2822,6.2822,6.2822,6.2822,6.2822,6.2772,6.2571,6.2119,6.1542,6.0989,5.9834,5.8277,5.6078,5.2304,4.9248,4.8778,4.5676,4.3179,4.2752,4.1407,4.0219,3.986,3.9375,3.9082,3.9082,3.793,3.7226,3.7285,3.7676,3.8144,3.8652,3.9453,4.0293,4.1152,4.1738,4.2676,4.4043,4.4355,4.5039,4.6074,4.6504,4.6562,4.6308,4.666,4.6816,4.6836,4.7207,4.7558,4.791,4.8418,4.8633,4.8652,4.8808,4.8867,4.8867,4.8867,4.8867,4.8867,3.4512,3.5312,3.6348,3.7266,4.0078,4.3164,4.5957,4.8926,5.0781,5.0527,5.2129,5.3301,5.3301,5.4687,5.5605,5.5605,5.6821,5.7428,5.7205,6.039,6.0169,5.5401,5.708,5.6144,5.1926,4.8655,4.688,4.6765,4.2153,3.9637,3.8998,3.7203,3.623,3.6055,3.6914,3.8379,4.0273,4.1562,4.3105,4.5247,5.1626,5.43,5.4975,6.0661,6.1943,6.0889,6.232,6.1918,6.0939,6.2345,6.2822,6.2822,6.2822,6.2822,6.2822,6.2822,6.2822,6.2822,6.2822,6.2822,6.2822,6.2822,6.2822,6.2747,6.2471,6.2195,6.1768,6.0914,6.0085,5.883,5.662,5.3651,5.1583,5.1583,4.8755,4.619,4.5099,4.3297,4.1706,4.07,4.0156,3.9805,3.959,3.9004,3.8457,3.7988,3.834,3.8672,3.8887,3.9531,4.0293,4.1152,4.2226,4.3183,4.4023,4.4941,4.5586,4.5976,4.6406,4.6621,4.6641,4.6836,4.7051,4.7285,4.75,4.7695,4.791,4.834,4.8652,4.8867,4.8867,4.8867,4.8867,4.8867,4.8867,4.8867,3.666,3.7383,3.8633,4.0703,4.3496,4.6055,4.793,5.041,5.1875,5.1289,5.1504,5.1738,5.1836,5.375,5.5039,5.5039,5.5117,5.5137,5.5039,5.7168,5.6897,5.36,5.5406,5.4711,5.0564,4.791,4.6418,4.6064,4.1649,3.9513,3.9454,3.8093,3.7162,3.6717,3.7162,3.8105,3.957,4.1055,4.2617,4.4675,5.1166,5.3715,5.4319,6.0343,6.1492,6.0085,6.1969,6.1718,6.0713,6.2169,6.2647,6.2647,6.2647,6.2747,6.2822,6.2822,6.2822,6.2822,6.2822,6.2822,6.2659,6.2199,6.2035,6.1886,6.134,6.1141,6.093,6.0434,5.9709,5.8579,5.6721,5.5114,5.3869,5.3296,5.1224,4.8928,4.684,4.4826,4.3024,4.1405,4.0879,4.0449,3.9941,4.0059,3.9766,3.8789,3.9004,3.9238,3.9336,3.9707,4.0293,4.1152,4.2637,4.3613,4.3984,4.5351,4.6055,4.6094,4.6406,4.6738,4.707,4.7168,4.7344,4.7578,4.7676,4.7773,4.7871,4.8203,4.8555,4.8867,4.8867,4.8867,4.8867,4.8867,4.8867,4.8867,3.875,3.9609,4.0781,4.2539,4.5,4.709,4.8047,5.041,5.2187,5.25,5.2558,5.2734,5.3144,5.3769,5.416,5.416,5.4512,5.457,5.418,5.6534,5.6568,5.358,5.5406,5.4903,5.1328,4.8789,4.6513,4.4567,4.1758,3.941,3.7566,3.9068,3.9553,3.9046,3.7818,3.7598,3.8242,4.0351,4.1992,4.3768,5.0452,5.3401,5.4274,5.9927,6.1642,6.1115,6.1843,6.1667,6.119,6.1868,6.2069,6.2069,6.2069,6.2421,6.2822,6.2822,6.2822,6.2822,6.2822,6.2822,6.2306,6.0194,5.9667,5.9524,5.8914,5.8437,5.8506,6.0018,5.9106,5.7826,5.7097,5.6018,5.4439,5.2042,4.9966,4.7764,4.5282,4.3224,4.1817,4.1289,4.1133,4.0781,3.998,4.0605,4.0527,3.9238,3.918,3.9394,3.9805,3.9883,4.0293,4.1152,4.207,4.3301,4.4883,4.5058,4.5898,4.7402,4.7441,4.748,4.7539,4.791,4.791,4.7598,4.7988,4.8379,4.875,4.8789,4.8828,4.8867,4.8867,4.8867,4.8867,4.8867,4.8867,4.8867,4.1074,4.1641,4.2754,4.5,4.6035,4.7285,4.9433,5.043,5.1172,5.1855,5.2383,5.2773,5.2949,5.3125,5.334,5.3613,5.3789,5.3926,5.4023,5.6452,5.6403,5.3088,5.5262,5.4821,5.1074,4.9297,4.7771,4.6449,4.464,4.296,4.1407,4.2214,4.1769,4.0198,3.9556,3.924,3.9219,4.0859,4.2285,4.3942,4.9027,5.1311,5.2255,5.7893,5.9682,5.9398,6.1658,6.1718,6.0738,6.1316,6.1517,6.1617,6.2295,6.2421,6.2395,6.2722,6.2822,6.2822,6.2822,6.2822,6.2552,6.1598,6.0362,5.9524,6.0392,5.907,5.819,5.9939,5.9282,5.8328,5.8077,5.7123,5.5583,5.3183,5.0634,4.8124,4.5785,4.3336,4.1738,4.1562,4.1094,4.0547,3.9961,4.043,4.0469,3.9668,3.9844,3.9961,3.9902,4.0137,4.0664,4.1523,4.2383,4.3535,4.5,4.5527,4.6269,4.7187,4.7461,4.7715,4.7969,4.8125,4.8262,4.8359,4.8516,4.8691,4.8867,4.8867,4.8867,4.8867,4.8867,4.8867,4.8867,4.8867,4.8867,4.8867,4.3476,4.3808,4.4805,4.7266,4.7441,4.8008,5.0273,5.0371,5.0391,5.0976,5.1582,5.2109,5.248,5.2519,5.2695,5.3125,5.3281,5.3496,5.3808,5.5567,5.5423,5.2834,5.4393,5.3924,5.1016,4.9746,4.8602,4.7739,4.6843,4.5677,4.4123,4.438,4.3722,4.2107,4.182,4.124,4.0547,4.1973,4.3223,4.4646,4.8372,5.0099,5.1014,5.6582,5.8213,5.8102,6.1209,6.1466,6.0387,6.0788,6.0814,6.0839,6.1793,6.1943,6.1843,6.222,6.2446,6.2596,6.2596,6.2697,6.2659,6.1952,6.0528,5.9607,6.0744,5.9258,5.8142,5.9715,5.9483,5.8905,5.8755,5.8077,5.6523,5.3481,5.1167,4.8696,4.5768,4.336,4.1933,4.1816,4.1152,4.0547,4.0117,4.0469,4.0547,4.0117,4.0469,4.0586,4.0293,4.043,4.0918,4.1777,4.2637,4.3652,4.4824,4.582,4.6582,4.7129,4.7558,4.7988,4.8398,4.8398,4.8574,4.8867,4.8867,4.8867,4.8867,4.8867,4.8867,4.8867,4.8867,4.8867,4.8867,4.8867,4.8867,4.8867,4.5918,4.6269,4.6953,4.9121,4.9492,4.9648,5.0117,5.0176,5.0176,5.0195,5.0195,5.0683,5.1953,5.209,5.2266,5.2676,5.3105,5.3359,5.3359,5.346,5.3264,5.2734,5.2305,5.1875,5.1426,5.0176,4.8867,4.7629,4.754,4.6342,4.4109,4.4771,4.529,4.5524,4.4527,4.3203,4.1894,4.3633,4.4863,4.5981,4.9008,5.0474,5.1458,5.6529,5.8213,5.8007,6.0342,6.0814,6.0311,6.0337,5.996,5.9608,6.0161,6.0738,6.119,6.119,6.1592,6.2019,6.2019,6.2421,6.2224,5.9919,5.9307,5.9164,5.8641,5.8118,5.8046,5.9242,5.9483,5.9332,5.8805,5.8704,5.705,5.2229,5.1017,4.9119,4.439,4.2969,4.2266,4.1855,4.1426,4.0996,4.0566,4.0918,4.0976,4.0547,4.0918,4.1172,4.1152,4.0762,4.0918,4.1777,4.2637,4.3496,4.4394,4.5664,4.6738,4.7578,4.7988,4.8418,4.8848,4.8848,4.8848,4.8867,4.8867,4.8867,4.8867,4.8867,4.8867,4.8867,4.8867,4.8867,4.8867,4.8867,4.8867,4.8867,4.7441,4.7832,4.8262,4.8945,4.9062,4.9219,4.9668,4.9473,4.9492,5.0098,4.9922,5.0,5.0703,5.1035,5.1504,5.2226,5.2402,5.2617,5.2891,5.291,5.2734,5.2305,5.2148,5.1738,5.1016,5.0332,4.918,4.7578,4.8617,4.9463,4.9988,5.1058,5.0268,4.7932,4.7639,4.6022,4.3633,4.4473,4.5156,4.5809,4.7014,4.7754,4.8526,5.2131,5.3536,5.4143,5.8354,5.9273,5.8766,6.0388,6.0537,6.0085,6.0261,6.0713,6.1341,6.2094,6.2421,6.2571,6.2571,6.2697,6.2659,6.187,6.0445,5.9703,6.1104,6.0718,6.0119,6.0054,5.9759,5.9433,5.9282,5.9257,5.7712,5.3125,5.1545,4.9308,4.4826,4.293,4.1953,4.1816,4.1172,4.0801,4.0957,4.082,4.0801,4.0957,4.1094,4.1172,4.1172,4.1308,4.1797,4.2637,4.3516,4.4394,4.5273,4.6543,4.7305,4.7578,4.8301,4.873,4.8867,4.8867,4.8867,4.8867,4.8867,4.8867,4.8867,4.8867,4.8867,4.8867,4.8867,4.8867,4.8867,4.8867,4.8867,4.8867,4.8398,4.8672,4.8867,4.8867,4.8867,4.8945,4.9238,4.9043,4.9062,4.9609,4.9453,4.9433,4.9883,5.0312,5.0918,5.1758,5.1992,5.2266,5.2676,5.2558,5.2363,5.209,5.1914,5.1582,5.1055,5.0469,4.9648,4.8555,5.0372,5.2016,5.3702,5.514,5.383,5.0188,5.0366,4.8528,4.5371,4.5625,4.5996,4.6474,4.7427,4.7551,4.7544,5.1071,5.1955,5.2124,5.6767,5.8141,5.8065,6.0149,6.0763,6.0688,6.0889,6.119,6.1592,6.2069,6.2345,6.2521,6.2521,6.2672,6.2822,6.2822,6.168,6.092,6.222,6.1994,6.1266,6.0487,6.0035,5.9809,5.9809,5.8986,5.7424,5.4893,5.1958,4.9011,4.6223,4.3813,4.2285,4.2285,4.166,4.1406,4.1855,4.1484,4.1348,4.1621,4.1504,4.1406,4.1406,4.1816,4.2422,4.3281,4.4336,4.5215,4.5898,4.7187,4.7812,4.7832,4.8535,4.8867,4.8867,4.8867,4.8867,4.8867,4.8867,4.8867,4.8867,4.8867,4.8867,4.8867,4.8867,4.8867,4.8867,4.8867,4.8867,4.8887,4.8867,4.8867,4.8867,4.8867,4.8867,4.8867,4.8867,4.8867,4.8867,4.8867,4.8867,4.9023,4.9433,4.9902,5.0488,5.123,5.1758,5.2207,5.2598,5.2246,5.2031,5.2031,5.1641,5.1426,5.1387,5.0586,5.0156,5.0078,5.2254,5.3859,5.4986,5.6955,5.577,5.2034,5.2518,5.057,4.6973,4.6973,4.7277,4.7928,4.9369,4.9101,4.8176,5.2305,5.2563,5.1331,5.5385,5.7193,5.7959,5.9747,6.0788,6.1341,6.1843,6.2044,6.1969,6.1441,6.1667,6.2069,6.2069,6.2446,6.2822,6.2822,6.2822,6.2697,6.2169,6.2044,6.1718,6.0663,6.0412,6.0283,6.0126,5.8027,5.6325,5.6429,5.1871,4.8189,4.8003,4.5168,4.3047,4.3066,4.2715,4.2656,4.3125,4.2773,4.2539,4.2558,4.2148,4.1914,4.1973,4.2383,4.2969,4.3769,4.5039,4.5937,4.6387,4.7598,4.8223,4.8262,4.8672,4.8867,4.8867,4.8867,4.8867,4.8867,4.8867,4.8867,4.8867,4.8867,4.8867,4.8867,4.8867,4.8867,4.8867,4.8887,4.8906,4.8965,4.8867,4.8867,4.8867,4.8867,4.8867,4.8867,4.8867,4.8867,4.8867,4.8867,4.8867,4.8906,4.9004,4.9707,5.0117,4.998,5.0957,5.1621,5.1719,5.1641,5.1582,5.1582,5.1484,5.1289,5.0957,5.0449,4.9844,4.916,5.0998,5.2085,5.2434,5.5637,5.4984,5.1252,5.2755,5.1167,4.7422,4.7422,4.8224,4.9435,4.8149,4.8231,4.9069,4.881,4.8358,4.8594,5.3745,5.5449,5.5877,6.0154,6.1692,6.1843,6.1969,6.2295,6.2596,6.2471,6.2521,6.2621,6.2621,6.2722,6.2822,6.2822,6.2822,6.2797,6.2672,6.2295,6.1918,6.1667,6.1266,6.0463,5.8677,5.7467,5.5614,5.1958,4.9417,4.7111,4.51,4.349,4.2695,4.3047,4.2988,4.3223,4.4004,4.3672,4.3555,4.3906,4.3203,4.3066,4.375,4.418,4.4492,4.4707,4.5644,4.6504,4.7266,4.7891,4.8379,4.8711,4.8808,4.8867,4.8867,4.8867,4.8867,4.8867,4.8867,4.8867,4.8867,4.8867,4.8867,4.8867,4.8867,4.8867,4.8906,4.9238,4.9375,4.9433,4.8867,4.8867,4.8867,4.8867,4.8867,4.8867,4.8867,4.8867,4.8867,4.8867,4.8867,4.8867,4.8867,4.9473,4.9785,4.9551,5.0683,5.1348,5.1152,5.1328,5.1426,5.1426,5.125,5.1035,5.0801,5.0195,4.9551,4.8867,5.0899,5.1899,5.1988,5.5001,5.474,5.161,5.2562,5.1224,4.8144,4.7754,4.8719,5.0495,4.9904,5.0252,5.1136,5.1142,5.0698,5.0502,5.4558,5.616,5.6894,6.071,6.2169,6.2395,6.2395,6.2596,6.2822,6.2822,6.2822,6.2822,6.2822,6.2822,6.2822,6.2822,6.2822,6.2822,6.2822,6.2596,6.232,6.2044,6.1768,6.1121,5.9592,5.8088,5.6033,5.3153,5.0097,4.7379,4.5718,4.4231,4.3418,4.3652,4.4023,4.4531,4.5195,4.5039,4.4922,4.498,4.4355,4.418,4.4668,4.5098,4.541,4.5605,4.6621,4.7402,4.7871,4.8281,4.8613,4.8867,4.8867,4.8867,4.8867,4.8867,4.8867,4.8867,4.8867,4.8867,4.8867,4.8867,4.8867,4.8867,4.8867,4.8867,4.8906,4.9355,4.9531,4.9609,4.8867,4.8867,4.8867,4.8867,4.8867,4.8867,4.8867,4.8867,4.8867,4.8867,4.8867,4.8867,4.8867,4.9258,4.9492,4.9433,5.0547,5.1094,5.0723,5.1035,5.125,5.125,5.0898,5.0703,5.0703,4.9941,4.9316,4.8867,5.0894,5.1847,5.1937,5.4148,5.4059,5.1847,5.2123,5.0993,4.8808,4.8008,4.892,5.1005,5.2053,5.2658,5.3086,5.4986,5.4881,5.3972,5.6291,5.7795,5.9068,6.1315,6.2446,6.2822,6.2822,6.2822,6.2822,6.2822,6.2822,6.2822,6.2822,6.2822,6.2822,6.2822,6.2822,6.2822,6.2822,6.2822,6.2697,6.222,6.2119,6.1888,6.1091,5.8847,5.6905,5.6141,5.1649,4.8187,4.7869,4.5855,4.4453,4.457,4.5293,4.5937,4.6348,4.6465,4.6348,4.5996,4.5547,4.5351,4.541,4.5762,4.6152,4.6582,4.7637,4.8242,4.8301,4.8672,4.8867,4.8867,4.8867,4.8867,4.8867,4.8867,4.8867,4.8867,4.8867,4.8867,4.8867,4.8867,4.8867,4.8867,4.8867,4.8906,4.9023,4.9453,4.9668,4.9844,4.8867,4.8867,4.8867,4.8867,4.8867,4.8867,4.8867,4.8867,4.8867,4.8867,4.8867,4.8867,4.8867,4.9258,4.9375,4.9004,4.9824,5.0351,5.0273,5.0332,5.0371,5.0371,5.0312,5.0273,5.0273,4.9785,4.9316,4.8867,4.9308,4.9472,4.9472,5.1342,5.1205,4.9544,5.0984,5.0597,4.8828,4.832,4.9201,5.0851,5.0651,5.1545,5.2921,5.3251,5.3566,5.404,5.682,5.8211,5.914,6.1762,6.2747,6.2822,6.2822,6.2822,6.2822,6.2822,6.2822,6.2822,6.2822,6.2822,6.2822,6.2822,6.2822,6.2822,6.2822,6.2822,6.2797,6.2722,6.2697,6.205,5.9953,5.8556,5.696,5.4508,5.0883,4.8313,4.8229,4.5974,4.4668,4.5391,4.5918,4.6367,4.6797,4.7168,4.7363,4.7285,4.6875,4.6797,4.7168,4.7246,4.748,4.7891,4.8105,4.8379,4.875,4.8828,4.8867,4.8867,4.8867,4.8867,4.8867,4.8867,4.8867,4.8867,4.8867,4.8867,4.8867,4.8867,4.8867,4.8867,4.8867,4.9101,4.9473,4.9922,5.0293,5.0683,4.8867,4.8867,4.8867,4.8867,4.8867,4.8867,4.8867,4.8867,4.8867,4.8867,4.8867,4.8867,4.8867,4.9043,4.9082,4.8867,4.9238,4.9473,4.9473,4.9922,5.0176,5.0176,4.9961,4.9707,4.9473,4.9277,4.9062,4.8867,4.8867,4.8867,4.894,4.9691,4.9711,4.894,4.9782,4.964,4.8808,4.8144,4.904,5.0851,5.0118,5.1791,5.4685,5.5021,5.6197,5.7907,5.9545,6.0433,6.1088,6.2395,6.2822,6.2822,6.2822,6.2822,6.2822,6.2822,6.2822,6.2822,6.2822,6.2822,6.2822,6.2822,6.2822,6.2822,6.2822,6.2822,6.2822,6.2822,6.2822,6.2395,6.1039,6.0409,5.9122,5.6093,5.3919,5.2137,5.0753,4.8651,4.7366,4.7772,4.7551,4.7402,4.7598,4.8008,4.8164,4.793,4.7734,4.7695,4.791,4.791,4.8105,4.8535,4.8555,4.8652,4.8867,4.8867,4.8867,4.8867,4.9101,4.9219,4.9219,4.9219,4.9219,4.9219,4.9219,4.9219,4.9219,4.9219,4.9355,4.9551,4.9316,4.9492,4.9922,5.0351,5.0644,5.0859,4.8867,4.8867,4.8867,4.8867,4.8867,4.8867,4.8867,4.8867,4.8867,4.8867,4.8867,4.8867,4.8867,4.8867,4.8867,4.8867,4.8867,4.8867,4.8867,4.9492,4.9883,4.9883,4.9551,4.9219,4.8867,4.8867,4.8867,4.8867,4.8867,4.8867,4.8867,4.8867,4.8867,4.8867,4.8867,4.8867,4.8808,4.8047,4.8693,5.0063,4.9841,5.1703,5.487,5.6439,5.8387,6.0576,6.1632,6.2345,6.2822,6.2822,6.2822,6.2822,6.2822,6.2822,6.2822,6.2822,6.2822,6.2822,6.2822,6.2822,6.2822,6.2822,6.2822,6.2822,6.2822,6.2822,6.2822,6.2822,6.2822,6.2697,6.227,6.2094,6.121,5.8742,5.7293,5.5701,5.3316,5.1114,4.9655,4.918,4.8573,4.8203,4.8203,4.8594,4.873,4.8379,4.8359,4.8359,4.8359,4.8359,4.8516,4.8848,4.8867,4.8906,4.9023,4.9023,4.9062,4.916,4.9512,4.9687,4.9668,4.957,4.959,4.9668,4.957,4.959,4.9687,4.9687,4.9883,5.0137,4.9805,4.9941,5.0371,5.0683,5.0859,5.0996,4.8867,4.8867,4.8867,4.8867,4.8867,4.8867,4.8867,4.8867,4.8867,4.8867,4.8867,4.8867,4.8867,4.8867,4.8867,4.8867,4.8867,4.8867,4.8867,4.8926,4.8965,4.8965,4.8926,4.8887,4.8867,4.8867,4.8867,4.8867,4.8867,4.8867,4.8867,4.8867,4.8867,4.8867,4.8867,4.8867,4.8828,4.8359,4.802,4.7968,4.9522,5.0165,5.0568,5.5276,5.7472,5.8512,6.1042,6.2345,6.2822,6.2822,6.2822,6.2822,6.2822,6.2822,6.2822,6.2822,6.2822,6.2822,6.2822,6.2822,6.2822,6.2822,6.2822,6.2822,6.2822,6.2822,6.2822,6.2822,6.2822,6.2822,6.2772,6.2345,6.1888,6.1707,5.9106,5.6502,5.4513,5.2023,4.9742,4.7958,4.8001,4.8203,4.8203,4.8594,4.8848,4.8808,4.8808,4.8808,4.8808,4.8808,4.8828,4.8867,4.8867,4.9062,4.9473,4.9473,4.9687,5.0078,5.0117,5.0137,5.0117,4.9707,4.9746,5.0098,4.9707,4.9766,5.0137,5.0137,5.0156,5.0176,5.0137,5.0391,5.0762,5.0801,5.1055,5.1387,4.8808,4.8867,4.8867,4.8867,4.8867,4.8867,4.8867,4.8867,4.8867,4.8867,4.8867,4.8867,4.8867,4.8867,4.8867,4.8867,4.8867,4.8867,4.8867,4.8867,4.8867,4.8867,4.8867,4.8867,4.8867,4.8867,4.8867,4.8867,4.8867,4.8867,4.8867,4.8867,4.8867,4.8867,4.8867,4.8867,4.8808,4.8105,4.7734,4.7629,4.8025,4.8841,5.0356,5.439,5.6861,5.8663,6.1457,6.2647,6.2822,6.2822,6.2822,6.2822,6.2822,6.2822,6.2822,6.2822,6.2822,6.2822,6.2822,6.2822,6.2822,6.2822,6.2822,6.2822,6.2822,6.2822,6.2822,6.2822,6.2822,6.2822,6.2822,6.2647,6.2521,6.2521,6.1173,5.9918,5.9167,5.5709,5.3017,5.2256,5.0094,4.8613,4.8613,4.8769,4.8867,4.8867,4.8867,4.8867,4.8867,4.8867,4.8984,4.9258,4.9277,4.9355,4.9531,4.9531,4.9746,5.0176,5.0449,5.0566,5.0566,5.0391,5.041,5.0566,5.0391,5.041,5.0566,5.0566,5.0723,5.0937,5.0664,5.082,5.1191,5.1191,5.1289,5.1465,4.8769,4.8867,4.8867,4.8867,4.8867,4.8867,4.8867,4.8867,4.8867,4.8867,4.8867,4.8867,4.8867,4.8867,4.8867,4.8867,4.8867,4.8867,4.8867,4.8867,4.8867,4.8867,4.8867,4.8867,4.8867,4.8867,4.8867,4.8867,4.8867,4.8867,4.8867,4.8867,4.8867,4.8867,4.8867,4.8867,4.8808,4.8223,4.791,4.7754,4.7441,4.8096,4.9841,5.3752,5.612,5.7901,6.1483,6.2822,6.2822,6.2822,6.2822,6.2659,6.1952,6.1242,6.0744,6.1515,6.168,6.187,6.2577,6.2822,6.2822,6.2822,6.2822,6.2822,6.2822,6.2822,6.2822,6.2822,6.2822,6.2822,6.2822,6.2822,6.2822,6.2822,6.2496,6.2002,6.1219,5.7776,5.5018,5.4237,5.1031,4.8867,4.8867,4.8867,4.8867,4.8867,4.8867,4.8926,4.9062,4.9062,4.9277,4.9726,4.9726,4.9805,4.9922,4.9922,5.0137,5.0586,5.0859,5.0996,5.0996,5.0859,5.0879,5.0996,5.0859,5.0879,5.0996,5.0996,5.1172,5.1406,5.1113,5.1172,5.1426,5.1426,5.1426,5.1465,4.8769,4.8848,4.8848,4.8867,4.8867,4.894,4.8867,4.8867,4.8867,4.8867,4.8867,4.8867,4.8867,4.8867,4.8867,4.8867,4.8867,4.8867,4.8867,4.8867,4.8867,4.8867,4.8867,4.8867,4.8867,4.8867,4.8867,4.8867,4.8867,4.8867,4.8867,4.8867,4.8867,4.8867,4.8867,4.8867,4.8867,4.894,4.8613,4.8203,4.8203,4.7949,4.8136,5.33,5.518,5.5847,6.0963,6.2822,6.2822,6.2822,6.2822,6.2388,6.0003,5.7692,5.6313,5.863,5.9307,5.9835,6.2117,6.2822,6.2847,6.2822,6.2822,6.2847,6.2822,6.2847,6.2847,6.2847,6.2847,6.2847,6.2847,6.2847,6.2847,6.2847,6.2847,6.1952,5.9667,5.7349,5.5005,5.2634,5.0368,4.8867,4.8867,4.8867,4.8867,4.8867,4.8867,4.9062,4.9512,4.9531,4.9726,5.0176,5.0176,5.0391,5.0801,5.0801,5.1016,5.1426,5.1426,5.1426,5.1426,5.0996,5.1035,5.1406,5.0996,5.1035,5.1426,5.1426,5.1426,5.1426,5.1426,5.1426,5.1426,5.1426,5.1426,5.1445,4.8262,4.8164,4.8144,4.875,4.8613,4.8496,4.8808,4.8867,4.8867,4.8867,4.8867,4.8867,4.8867,4.8867,4.8867,4.8867,4.8867,4.8867,4.8867,4.8867,4.8867,4.8867,4.8867,4.8867,4.8867,4.8867,4.8867,4.8867,4.8867,4.8867,4.8867,4.8867,4.8867,4.8867,4.8867,4.8867,4.8848,4.8535,4.832,4.8203,4.8203,4.8125,4.859,5.3712,5.5632,5.626,6.111,6.2822,6.2822,6.2822,6.168,5.9919,5.7606,5.64,5.5943,5.6746,5.8034,5.9475,6.0194,6.1893,6.335,6.2923,6.3124,6.3324,6.2923,6.3425,6.3877,6.35,6.3726,6.3977,6.3977,6.3977,6.3977,6.3977,6.3977,6.3052,6.0289,5.7941,5.5446,5.2766,5.0368,4.8867,4.8867,4.8867,4.8867,4.8867,4.9141,4.9512,4.9961,4.998,5.0176,5.0605,5.0625,5.082,5.123,5.0957,5.1016,5.1426,5.1426,5.1426,5.1426,5.1308,5.1308,5.1426,5.1308,5.1308,5.1426,5.1426,5.1426,5.1426,5.1426,5.1426,5.1426,5.1426,5.1621,5.1933,4.8047,4.7871,4.7851,4.8711,4.8496,4.8359,4.8789,4.8867,4.8867,4.8867,4.8867,4.8867,4.8867,4.8867,4.8867,4.8867,4.8867,4.8867,4.8867,4.8867,4.8867,4.8867,4.8867,4.8867,4.8867,4.8867,4.8867,4.8867,4.8867,4.8867,4.8867,4.8867,4.8867,4.8867,4.8867,4.8867,4.8848,4.8574,4.8476,4.8476,4.8476,4.8476,4.8934,5.2975,5.5093,5.6204,5.9077,6.1267,6.2659,6.1763,5.9859,5.7498,5.5268,5.3859,5.3238,5.4213,5.5641,5.7124,5.8847,6.0918,6.2608,6.3052,6.3576,6.3902,6.355,6.4002,6.4379,6.4053,6.4254,6.4454,6.4454,6.4454,6.4203,6.32,6.303,6.2458,6.0644,5.7571,5.5508,5.5778,5.2043,4.9821,5.0779,5.0007,4.9375,4.9375,4.9629,4.998,5.041,5.043,5.0625,5.1035,5.1055,5.1172,5.1426,5.1348,5.1348,5.1426,5.1426,5.1426,5.1426,5.1426,5.1426,5.1426,5.1426,5.1426,5.1426,5.1426,5.1426,5.1426,5.1426,5.1426,5.1426,5.1426,5.1601,5.1855,4.793,4.7754,4.7754,4.8652,4.8437,4.8301,4.8789,4.8867,4.8867,4.8867,4.8867,4.8867,4.8867,4.8867,4.8867,4.8867,4.8867,4.8867,4.8867,4.8867,4.8867,4.8867,4.8867,4.8867,4.8867,4.8867,4.8867,4.8867,4.8867,4.8867,4.8867,4.8867,4.8867,4.8867,4.8867,4.8867,4.8867,4.8867,4.8867,4.8867,4.8867,4.8867,4.9124,5.1507,5.3703,5.5617,5.5792,5.8738,6.2117,5.9751,5.7498,5.518,5.2813,5.0621,4.9308,5.1507,5.2521,5.3925,5.794,5.9968,6.137,6.3319,6.4228,6.458,6.4479,6.453,6.4605,6.4555,6.458,6.4605,6.4605,6.4605,6.3796,6.1389,6.1105,6.1105,6.06,5.673,5.5557,5.9832,5.4394,5.1081,5.329,5.1511,5.0195,5.0234,5.0234,5.041,5.084,5.0898,5.1094,5.1484,5.1523,5.1543,5.1543,5.1933,5.1914,5.1484,5.1523,5.1523,5.1484,5.1484,5.1465,5.1426,5.1426,5.1426,5.1445,5.1465,5.1465,5.1445,5.1465,5.1465,5.1426,5.1426,5.1465,5.1504,4.7109,4.6875,4.6953,4.8144,4.8008,4.7969,4.875,4.8867,4.8867,4.8867,4.8867,4.8867,4.8867,4.8867,4.8867,4.8867,4.8867,4.8867,4.8867,4.8867,4.8867,4.8867,4.8867,4.8867,4.8867,4.8867,4.8867,4.8867,4.8867,4.8867,4.8867,4.8867,4.8867,4.8867,4.8867,4.8867,4.8867,4.8867,4.8867,4.8867,4.8867,4.8867,4.9124,5.1507,5.2724,5.3437,5.5268,5.7692,5.9667,5.7435,5.5093,5.2724,5.0348,4.9308,4.9032,4.9472,5.129,5.365,5.6527,5.9273,6.1993,6.4339,6.5358,6.5534,6.4655,6.5132,6.5634,6.5208,6.5459,6.576,6.576,6.576,6.4938,6.2489,6.3763,6.3505,5.9286,5.776,5.6745,5.5488,5.2331,5.046,5.0893,5.0535,5.0312,5.0644,5.0664,5.0859,5.1269,5.1621,5.1855,5.1933,5.2266,5.2422,5.2422,5.2519,5.2363,5.1953,5.2285,5.2266,5.1933,5.1933,5.1758,5.1426,5.1426,5.1426,5.1465,5.1797,5.1738,5.1465,5.1816,5.1738,5.1426,5.1426,5.1641,5.2031,4.6855,4.6601,4.6699,4.7988,4.7851,4.7871,4.873,4.8867,4.8867,4.8867,4.8867,4.8867,4.8867,4.8867,4.8867,4.8867,4.8867,4.8867,4.8867,4.8867,4.8867,4.8867,4.8867,4.8965,4.918,4.8965,4.8867,4.8867,4.8867,4.8867,4.8867,4.8867,4.8867,4.8867,4.8867,4.8867,4.8867,4.8867,4.8867,4.8867,4.8867,4.8867,4.9032,5.0276,5.1417,5.2366,5.2545,5.4036,5.5856,5.4654,5.3437,5.1979,4.9914,4.918,4.9219,4.9433,5.0683,5.2673,5.6108,5.8566,6.1085,6.4455,6.4802,6.4505,6.5103,6.571,6.6036,6.5735,6.5911,6.6112,6.6112,6.6112,6.4914,6.1285,6.1822,6.1258,5.7244,5.6647,5.6561,5.6251,5.4049,5.2058,5.0857,5.0781,5.0859,5.1094,5.1094,5.1191,5.1426,5.1855,5.209,5.209,5.25,5.2715,5.2715,5.291,5.291,5.2695,5.2695,5.2598,5.2383,5.2383,5.2246,5.2051,5.2051,5.2051,5.2051,5.2285,5.2246,5.2051,5.207,5.1933,5.1719,5.1504,5.1719,5.2168,4.6758,4.6543,4.666,4.7793,4.7754,4.7851,4.8633,4.8808,4.8867,4.8867,4.8867,4.8867,4.8867,4.8867,4.8867,4.8867,4.8867,4.8867,4.8867,4.8867,4.8867,4.8867,4.8926,4.9101,4.9414,4.9121,4.8965,4.8965,4.8887,4.8867,4.8867,4.8867,4.8867,4.8867,4.8867,4.8867,4.8867,4.8867,4.8867,4.8867,4.8867,4.8867,4.8867,4.8867,5.0094,5.1577,4.9564,5.0185,5.1847,5.2297,5.2159,5.1602,5.0026,4.959,4.9707,5.0078,5.0469,5.1733,5.6206,5.8119,5.9794,6.3828,6.37,6.2936,6.4478,6.5199,6.557,6.6026,6.6112,6.6112,6.6112,6.6112,6.4653,6.018,5.9817,5.9066,5.6128,5.5753,5.6315,5.7986,5.594,5.3638,5.162,5.1426,5.1426,5.1426,5.1426,5.1426,5.1426,5.1914,5.2187,5.2187,5.2676,5.293,5.293,5.3301,5.3476,5.3476,5.3105,5.2891,5.2812,5.2812,5.2773,5.2715,5.2715,5.2715,5.2715,5.2793,5.2773,5.2676,5.2402,5.2246,5.2148,5.1777,5.1836,5.2148,4.6367,4.6348,4.6465,4.7012,4.7363,4.7734,4.8223,4.8613,4.8867,4.8867,4.8867,4.8867,4.8867,4.8867,4.8867,4.8867,4.8867,4.8867,4.8867,4.8867,4.8867,4.8867,4.9238,4.9277,4.8965,4.9277,4.9433,4.9433,4.9043,4.8867,4.8867,4.8867,4.8867,4.8867,4.8867,4.8867,4.8867,4.8867,4.8867,4.8867,4.8867,4.8867,4.8867,4.8867,4.9124,4.9289,4.9032,4.9124,4.9656,5.1667,5.1229,4.99,4.9605,4.9785,5.0098,5.0156,5.0469,5.1888,5.6692,5.8366,5.9431,6.2197,6.2688,6.2001,6.018,6.1464,6.3554,6.5656,6.6112,6.6112,6.6112,6.6112,6.5199,6.2469,6.3754,6.3554,5.8974,5.8263,5.7617,5.5847,5.3447,5.1794,5.1426,5.1426,5.1426,5.1426,5.1426,5.1426,5.1426,5.2187,5.2617,5.2617,5.3418,5.3848,5.3848,5.3906,5.3945,5.3945,5.3887,5.3652,5.3281,5.3281,5.3066,5.2715,5.2715,5.2715,5.2734,5.3125,5.3047,5.2734,5.3066,5.2949,5.2617,5.2558,5.2344,5.2207,4.6308,4.6308,4.6504,4.7168,4.7441,4.7812,4.8476,4.873,4.8867,4.8867,4.8867,4.8867,4.8867,4.8867,4.8867,4.8867,4.8867,4.8867,4.8867,4.8867,4.8965,4.9219,4.918,4.9297,4.959,4.9297,4.9277,4.9531,4.9082,4.8867,4.8867,4.8867,4.8867,4.8867,4.8867,4.8867,4.8867,4.8867,4.8867,4.8867,4.8867,4.8867,4.8867,4.8867,4.8867,4.8867,4.8867,4.8867,4.9071,5.0394,5.0265,4.9609,5.0098,5.0371,5.0586,5.0801,5.1016,5.1884,5.5434,5.6608,5.7317,5.9817,5.934,5.8425,5.8722,5.984,6.1498,6.3626,6.5199,6.6112,6.6112,6.6112,6.5285,6.2936,6.3378,6.2357,5.741,5.9066,5.9999,5.741,5.3733,5.1523,5.1777,5.1797,5.1894,5.2129,5.2148,5.2148,5.2148,5.2734,5.3066,5.3066,5.3691,5.4023,5.4023,5.4023,5.4023,5.4023,5.4277,5.416,5.373,5.373,5.3633,5.3437,5.3437,5.3437,5.3457,5.3652,5.3613,5.3437,5.3379,5.3086,5.2715,5.2715,5.2734,5.2851]}]]